ftp/pub/palmer/observations_modified/2019/March/original_files/AR190326_BASE.txt
Download
Sample DateTime Unit Id WS Avg 2min WD Avg 2min WGS 10min WGD 10min Air Temp Rel Humidity Dew Point Pyranometer Quantum Air Pressure Snow Level Rainfall PW Current Visibility CBase 1 CBase 2 CBase 3 Vert Vis
2019/03/26 00:00:01 BASE 2.45 329 3.76 335 0.6 100 0.6 0 0 985.8 NA 0.0000 BR 8000 0 0 0 430
2019/03/26 00:01:01 BASE 2.43 319 3.76 335 0.7 100 0.7 0 0 985.8 NA 0.0000 BR 7000 0 0 0 430
2019/03/26 00:02:01 BASE 2.66 308 3.76 335 0.7 100 0.7 0 0 985.9 NA 0.0000 BR 6000 0 0 0 390
2019/03/26 00:03:01 BASE 3.10 299 4.12 291 0.7 100 0.7 0 0 985.9 NA 0.0000 BR 5000 0 0 0 360
2019/03/26 00:04:00 BASE 3.31 295 4.12 291 0.6 100 0.6 0 0 985.9 NA 0.0000 BR 3200 0 0 0 330
2019/03/26 00:05:00 BASE 3.31 287 4.12 274 0.7 100 0.7 0 0 985.9 NA 0.0000 BR 1800 0 0 0 300
2019/03/26 00:06:00 BASE 3.17 285 4.12 274 0.7 100 0.7 0 0 985.9 NA 0.0000 BR 1400 0 0 0 300
2019/03/26 00:07:01 BASE 2.92 295 4.12 274 0.7 100 0.7 0 0 985.9 NA 0.0000 BR 1200 0 0 0 260
2019/03/26 00:08:01 BASE 2.57 303 4.12 274 0.8 100 0.8 0 0 985.9 NA 0.0000 BR 1100 0 0 0 260
2019/03/26 00:09:01 BASE 2.41 310 4.12 274 0.8 100 0.8 0 0 985.9 NA 0.0000 BR 1000 0 0 0 260
2019/03/26 00:10:01 BASE 2.41 315 4.12 274 0.8 100 0.8 0 0 985.9 NA 0.0000 BR 0900 0 0 0 260
2019/03/26 00:11:01 BASE 2.26 317 4.12 274 0.8 100 0.8 0 0 985.9 NA 0.0000 BR 0900 0 0 0 300
2019/03/26 00:12:01 BASE 2.15 319 4.12 274 0.8 100 0.8 0 0 985.9 NA 0.0000 BR 0900 0 0 0 260
2019/03/26 00:13:01 BASE 2.27 319 4.12 274 0.8 100 0.8 0 0 985.9 NA 0.0000 BR 0900 0 0 0 260
2019/03/26 00:14:01 BASE 2.58 320 4.12 274 0.7 100 0.7 0 0 986.0 NA 0.0000 BR 0900 0 0 0 260
2019/03/26 00:15:01 BASE 2.77 324 3.34 287 0.7 100 0.7 0 0 986.0 NA 0.0000 BR 1000 0 0 0 300
2019/03/26 00:16:02 BASE 2.61 326 3.09 297 0.7 100 0.7 0 0 986.0 NA 0.0000 BR 1000 0 0 0 300
2019/03/26 00:17:01 BASE 2.58 331 2.98 323 0.7 100 0.7 0 0 985.9 NA 0.0000 BR 1000 0 0 0 300
2019/03/26 00:18:02 BASE 2.80 333 3.29 330 0.7 100 0.7 0 0 985.9 NA 0.0000 BR 1000 0 0 0 300
2019/03/26 00:19:01 BASE 2.77 332 3.29 330 0.7 100 0.7 0 0 985.9 NA 0.0000 BR 0900 0 0 0 300
2019/03/26 00:20:01 BASE 2.68 334 3.29 330 0.8 100 0.8 0 0 985.9 NA 0.0000 BR 1000 0 0 0 300
2019/03/26 00:21:01 BASE 2.76 335 3.29 330 0.7 100 0.7 0 0 985.9 NA 0.0000 BR 0900 0 0 0 300
2019/03/26 00:22:01 BASE 2.84 335 3.29 330 0.7 100 0.7 0 0 985.9 NA 0.0000 BR 0900 0 0 0 430
2019/03/26 00:23:01 BASE 2.75 337 3.29 330 0.7 100 0.7 0 0 986.0 NA 0.0000 BR 0900 0 0 0 360
2019/03/26 00:24:01 BASE 2.54 343 3.29 330 0.7 100 0.7 0 0 986.0 NA 0.0000 BR 1000 0 0 0 490
2019/03/26 00:25:01 BASE 2.44 346 3.29 330 0.7 100 0.7 0 0 986.0 NA 0.0000 BR 1000 0 0 0 460
2019/03/26 00:26:01 BASE 2.42 344 3.29 330 0.6 100 0.6 0 0 986.0 NA 0.0000 BR 1000 0 0 0 390
2019/03/26 00:27:01 BASE 2.36 343 3.29 330 0.6 100 0.6 0 0 986.0 NA 0.0000 BR 1000 0 0 0 390
2019/03/26 00:28:01 BASE 2.25 343 3.09 337 0.6 100 0.6 0 0 986.0 NA 0.0000 BR 0900 0 0 0 330
2019/03/26 00:29:01 BASE 2.24 344 3.09 337 0.6 100 0.6 0 0 986.0 NA 0.0000 BR 0900 0 0 0 460
2019/03/26 00:30:02 BASE 2.39 343 3.09 337 0.6 100 0.6 0 0 986.0 NA 0.0000 BR 0900 0 0 0 390
2019/03/26 00:31:02 BASE 2.44 342 3.09 337 0.6 100 0.6 0 0 986.0 NA 0.0000 BR 0900 0 0 0 300
2019/03/26 00:32:01 BASE 2.41 340 2.68 339 0.6 100 0.6 0 0 986.0 NA 0.0000 BR 0900 0 0 0 360
2019/03/26 00:33:02 BASE 2.47 342 2.62 344 0.6 100 0.6 0 0 986.0 NA 0.0000 BR 0800 0 0 0 390
2019/03/26 00:34:02 BASE 2.51 342 2.62 340 0.6 100 0.6 0 0 986.0 NA 0.0000 BR 0800 0 0 0 430
2019/03/26 00:35:02 BASE 2.42 342 2.62 340 0.6 100 0.6 0 0 986.1 NA 0.0000 BR 0800 0 0 0 460
2019/03/26 00:36:02 BASE 2.34 342 2.62 340 0.6 100 0.6 0 0 986.2 NA 0.0000 BR 0800 0 0 0 460
2019/03/26 00:37:02 BASE 2.33 340 2.62 340 0.6 100 0.6 0 0 986.2 NA 0.0000 BR 0800 0 0 0 460
2019/03/26 00:38:02 BASE 2.30 338 2.62 340 0.6 100 0.6 0 0 986.2 NA 0.0000 FG 0800 0 0 0 390
2019/03/26 00:39:02 BASE 2.24 338 2.62 340 0.6 100 0.6 0 0 986.2 NA 0.0000 FG 0900 0 0 0 390
2019/03/26 00:40:02 BASE 2.19 340 2.62 340 0.6 100 0.6 0 0 986.2 NA 0.0000 FG 0800 0 0 0 390
2019/03/26 00:41:02 BASE 2.19 340 2.62 340 0.6 100 0.6 0 0 986.2 NA 0.0000 FG 0800 0 0 0 490
2019/03/26 00:42:01 BASE 2.26 340 2.62 340 0.7 100 0.7 0 0 986.2 NA 0.0000 FG 0800 0 0 0 460
2019/03/26 00:43:02 BASE 2.41 340 2.62 340 0.7 100 0.7 0 0 986.3 NA 0.0000 FG 0800 0 0 0 430
2019/03/26 00:44:02 BASE 2.56 338 2.68 331 0.7 100 0.7 0 0 986.3 NA 0.0000 FG 0800 0 0 0 390
2019/03/26 00:45:02 BASE 2.62 335 2.73 334 0.6 100 0.6 0 0 986.3 NA 0.0000 FG 0800 0 0 0 330
2019/03/26 00:46:02 BASE 2.73 332 2.88 331 0.6 100 0.6 0 0 986.3 NA 0.0000 FG 0800 0 0 0 360
2019/03/26 00:47:02 BASE 2.80 331 2.93 329 0.6 100 0.6 0 0 986.3 NA 0.0000 FG 0800 0 0 0 390
2019/03/26 00:48:02 BASE 2.76 329 2.93 329 0.6 100 0.6 0 0 986.4 NA 0.0000 FG 0800 0 0 0 460
2019/03/26 00:49:02 BASE 2.77 328 2.93 329 0.6 100 0.6 0 0 986.4 NA 0.0000 FG 0800 0 0 0 460
2019/03/26 00:50:02 BASE 2.86 327 2.98 324 0.6 100 0.6 0 0 986.4 NA 0.0000 FG 0800 0 0 0 490
2019/03/26 00:51:02 BASE 2.89 327 2.98 327 0.6 100 0.6 0 0 986.4 NA 0.0000 FG 0800 0 0 0 460
2019/03/26 00:52:02 BASE 2.90 331 3.09 336 0.7 100 0.7 0 0 986.4 NA 0.0000 FG 0800 0 0 0 460
2019/03/26 00:53:02 BASE 2.99 334 3.19 335 0.7 100 0.7 0 0 986.4 NA 0.0000 FG 0800 0 0 0 490
2019/03/26 00:54:01 BASE 3.16 334 3.45 332 0.7 100 0.7 0 0 986.4 NA 0.0000 FG 0800 0 0 0 460
2019/03/26 00:55:02 BASE 3.33 335 3.45 341 0.6 100 0.6 0 0 986.4 NA 0.0000 FG 0900 0 0 0 430
2019/03/26 00:56:02 BASE 3.50 339 3.86 341 0.6 100 0.6 0 0 986.4 NA 0.0000 FG 0900 0 0 0 460
2019/03/26 00:57:02 BASE 3.91 340 4.48 336 0.6 100 0.6 0 0 986.4 NA 0.0000 FG 0800 0 0 0 460
2019/03/26 00:58:02 BASE 4.34 337 4.78 331 0.6 100 0.6 0 0 986.5 NA 0.0000 FG 0900 0 0 0 460
2019/03/26 00:59:02 BASE 4.31 336 4.78 331 0.6 100 0.6 0 0 986.5 NA 0.0000 FG 1000 0 0 0 520
2019/03/26 01:00:02 BASE 4.21 336 4.78 331 0.6 100 0.6 0 0 986.5 NA 0.0000 FG 0800 0 0 0 430
2019/03/26 01:01:02 BASE 4.33 337 4.78 331 0.6 100 0.6 0 0 986.5 NA 0.0000 UP FG 0800 0 0 0 460
2019/03/26 01:02:02 BASE 4.15 340 4.78 331 0.6 100 0.6 0 0 986.5 NA 0.0000 UP FG 0800 0 0 0 460
2019/03/26 01:03:02 BASE 3.95 341 4.78 331 0.6 100 0.6 0 0 986.6 NA 0.0000 UP FG 0800 0 0 0 360
2019/03/26 01:04:02 BASE 3.89 341 4.78 331 0.6 100 0.6 0 0 986.6 NA 0.0000 UP FG 0800 0 0 0 360
2019/03/26 01:05:02 BASE 3.80 342 4.78 331 0.6 100 0.6 0 0 986.5 NA 0.0000 UP FG 0750 0 0 0 360
2019/03/26 01:06:01 BASE 3.66 344 4.78 331 0.6 100 0.6 0 0 986.5 NA 0.0000 UP FG 0750 0 0 0 330
2019/03/26 01:07:02 BASE 3.53 346 4.78 331 0.6 100 0.6 0 0 986.5 NA 0.0000 UP FG 0800 0 0 0 300
2019/03/26 01:08:02 BASE 3.60 347 4.63 331 0.5 100 0.5 0 0 986.5 NA 0.0000 UP FG 0800 0 0 0 300
2019/03/26 01:09:02 BASE 3.62 346 4.58 337 0.5 100 0.5 0 0 986.5 NA 0.0000 UP FG 0800 0 0 0 300
2019/03/26 01:10:03 BASE 3.61 346 4.58 337 0.5 100 0.5 0 0 986.6 NA 0.0000 UP FG 0800 0 0 0 300
2019/03/26 01:11:02 BASE 3.63 346 4.22 341 0.5 100 0.5 0 0 986.6 NA 0.0000 UP FG 0800 0 0 0 230
2019/03/26 01:12:02 BASE 3.62 345 4.22 341 0.5 100 0.5 0 0 986.6 NA 0.0000 FG 0800 0 0 0 300
2019/03/26 01:13:02 BASE 3.33 350 4.22 341 0.5 100 0.5 0 0 986.6 NA 0.0000 FG 0800 0 0 0 230
2019/03/26 01:14:02 BASE 3.05 353 4.22 341 0.5 100 0.5 0 0 986.6 NA 0.0000 FG 0800 0 0 0 230
2019/03/26 01:15:02 BASE 3.18 349 4.22 341 0.5 100 0.5 0 0 986.6 NA 0.0000 UP FG 0800 0 0 0 330
2019/03/26 01:16:03 BASE 3.44 349 4.22 341 0.6 100 0.6 0 0 986.6 NA 0.0000 UP FG 0800 0 0 0 590
2019/03/26 01:17:02 BASE 3.57 349 4.22 341 0.6 100 0.6 0 0 986.6 NA 0.0000 UP FG 0800 0 0 0 490
2019/03/26 01:18:03 BASE 3.83 345 4.32 353 0.6 100 0.6 0 0 986.6 NA 0.0000 UP FG 0800 620 0 0 0
2019/03/26 01:19:02 BASE 3.95 348 4.32 353 0.5 100 0.5 0 0 986.6 NA 0.0000 UP FG 0800 560 0 0 0
2019/03/26 01:20:02 BASE 3.76 353 4.32 353 0.5 100 0.5 0 0 986.6 NA 0.0000 UP FG 0800 0 0 0 790
2019/03/26 01:21:02 BASE 3.52 350 4.32 353 0.5 100 0.5 0 0 986.6 NA 0.0000 UP FG 0900 0 0 0 750
2019/03/26 01:22:02 BASE 3.29 346 4.32 353 0.5 100 0.5 0 0 986.6 NA 0.0000 UP FG 1000 0 0 0 750
2019/03/26 01:23:02 BASE 3.15 345 4.32 353 0.5 100 0.5 0 0 986.6 NA 0.0000 UP FG 0900 0 0 0 720
2019/03/26 01:24:02 BASE 3.10 343 4.32 353 0.5 100 0.5 0 0 986.6 NA 0.0000 UP FG 0900 0 0 0 690
2019/03/26 01:25:02 BASE 3.16 340 4.32 353 0.5 100 0.5 0 0 986.6 NA 0.0000 UP BR 0900 0 0 0 720
2019/03/26 01:26:02 BASE 3.30 339 4.32 353 0.5 100 0.5 0 0 986.7 NA 0.0000 UP BR 0900 0 0 0 690
2019/03/26 01:27:02 BASE 3.52 336 4.32 353 0.5 100 0.5 0 0 986.7 NA 0.0000 UP BR 0900 0 0 0 750
2019/03/26 01:28:01 BASE 3.84 334 4.22 333 0.5 100 0.5 0 0 986.7 NA 0.0000 UP BR 1400 0 0 0 720
2019/03/26 01:29:01 BASE 3.88 333 4.27 330 0.5 100 0.5 0 0 986.7 NA 0.0000 UP BR 2800 0 0 0 920
2019/03/26 01:30:02 BASE 3.73 333 4.27 330 0.5 100 0.5 0 0 986.7 NA 0.0000 UP BR 2900 0 0 0 750
2019/03/26 01:31:02 BASE 3.89 333 4.27 332 0.6 100 0.6 0 0 986.7 NA 0.0000 UP BR 2300 0 0 0 690
2019/03/26 01:32:03 BASE 3.94 332 4.27 332 0.6 100 0.6 0 0 986.8 NA 0.0000 UP BR 3100 300 0 0 0
2019/03/26 01:33:02 BASE 3.73 330 4.27 332 0.6 100 0.6 0 0 986.8 NA 0.0000 UP BR 5000 300 0 0 0
2019/03/26 01:34:02 BASE 3.58 326 4.27 332 0.6 100 0.6 0 0 986.8 NA 0.0000 UP BR 6000 0 0 0 660
2019/03/26 01:35:02 BASE 3.70 322 4.58 320 0.6 100 0.6 0 0 986.8 NA 0.0000 UP BR 6000 0 0 0 690
2019/03/26 01:36:02 BASE 3.85 323 4.58 320 0.6 100 0.6 0 0 986.8 NA 0.0000 UP BR 5000 0 0 0 690
2019/03/26 01:37:02 BASE 3.69 319 4.58 320 0.6 100 0.6 0 0 986.8 NA 0.0000 UP BR 6000 0 0 0 690
2019/03/26 01:38:02 BASE 3.65 316 4.58 320 0.6 100 0.6 0 0 986.9 NA 0.0000 UP BR 8000 0 0 0 690
2019/03/26 01:39:02 BASE 3.85 319 4.58 320 0.6 100 0.6 0 0 986.9 NA 0.0000 UP BR 8000 260 0 0 0
2019/03/26 01:40:02 BASE 4.02 325 4.58 320 0.5 100 0.5 0 0 986.9 NA 0.0000 UP BR 9000 260 0 0 0
2019/03/26 01:41:02 BASE 3.92 327 4.58 320 0.5 100 0.5 0 0 986.8 NA 0.0000 UP BR 9000 300 0 0 0
2019/03/26 01:42:03 BASE 3.71 327 4.58 320 0.5 100 0.5 0 0 986.8 NA 0.0000 UP BR 9000 300 0 0 0
2019/03/26 01:43:02 BASE 3.63 330 4.58 320 0.6 100 0.6 0 0 986.8 NA 0.0000 UP BR 9000 330 0 0 0
2019/03/26 01:44:02 BASE 3.70 331 4.58 320 0.6 100 0.6 0 0 986.8 NA 0.0000 UP BR 9000 300 0 0 0
2019/03/26 01:45:02 BASE 3.91 331 4.42 334 0.6 100 0.6 0 0 986.8 NA 0.0000 UP BR 9000 300 0 0 0
2019/03/26 01:46:02 BASE 3.85 329 4.42 334 0.6 100 0.6 0 0 986.9 NA 0.0000 UP BR 9000 260 0 0 0
2019/03/26 01:47:02 BASE 3.52 329 4.42 334 0.6 100 0.6 0 0 987.0 NA 0.0000 UP BR 9000 230 0 0 0
2019/03/26 01:48:02 BASE 3.44 334 4.42 334 0.6 100 0.6 0 0 987.0 NA 0.0000 UP BR 9000 260 0 0 0
2019/03/26 01:49:02 BASE 3.58 334 4.42 334 0.6 100 0.6 0 0 987.0 NA 0.0000 BR 9000 230 0 0 0
2019/03/26 01:50:02 BASE 3.76 334 4.42 334 0.5 100 0.5 0 0 987.0 NA 0.0000 BR 9999 230 0 0 0
2019/03/26 01:51:02 BASE 4.07 335 5.04 337 0.5 100 0.5 0 0 987.0 NA 0.0000 BR 9999 230 0 0 0
2019/03/26 01:52:02 BASE 4.09 334 5.04 337 0.5 100 0.5 0 0 987.1 NA 0.0000 BR 9999 200 0 0 0
2019/03/26 01:53:02 BASE 3.63 339 5.04 337 0.5 100 0.5 0 0 987.1 NA 0.0000 9999 200 0 0 0
2019/03/26 01:54:02 BASE 3.59 334 5.04 337 0.5 100 0.5 0 0 987.1 NA 0.0000 9999 230 0 0 0
2019/03/26 01:55:02 BASE 4.28 325 5.66 324 0.6 100 0.6 0 0 987.1 NA 0.0000 9999 230 0 0 0
2019/03/26 01:56:01 BASE 4.93 323 5.81 325 0.6 100 0.6 0 0 987.2 NA 0.0000 9999 200 0 0 0
2019/03/26 01:57:02 BASE 5.10 323 5.81 325 0.6 100 0.6 0 0 987.2 NA 0.0000 9999 200 0 0 0
2019/03/26 01:58:02 BASE 4.82 318 5.81 325 0.6 100 0.6 0 0 987.2 NA 0.0000 9999 230 0 0 0
2019/03/26 01:59:01 BASE 4.70 316 5.81 325 0.7 100 0.7 0 0 987.2 NA 0.0000 9999 200 0 0 0
2019/03/26 02:00:02 BASE 5.09 317 6.02 315 0.7 100 0.7 0 0 987.2 NA 0.0000 9999 230 0 0 0
2019/03/26 02:01:02 BASE 5.23 315 6.02 315 0.7 100 0.7 0 0 987.2 NA 0.0000 9999 200 0 0 0
2019/03/26 02:02:01 BASE 5.16 317 6.02 315 0.7 100 0.7 0 0 987.2 NA 0.0000 9999 200 0 0 0
2019/03/26 02:03:02 BASE 5.01 322 6.02 315 0.7 100 0.7 0 0 987.2 NA 0.0000 9999 0 0 0 560
2019/03/26 02:04:02 BASE 4.94 319 6.02 315 0.8 100 0.8 0 0 987.3 NA 0.0000 9999 200 0 0 0
2019/03/26 02:05:01 BASE 5.17 316 6.02 315 0.8 100 0.8 0 0 987.3 NA 0.0000 9999 200 0 0 0
2019/03/26 02:06:02 BASE 5.09 320 6.02 315 0.8 100 0.8 0 0 987.3 NA 0.0000 9999 200 0 0 0
2019/03/26 02:07:02 BASE 4.67 326 6.02 315 0.8 100 0.8 0 0 987.3 NA 0.0000 9999 230 0 0 0
2019/03/26 02:08:01 BASE 4.17 326 6.02 315 0.8 100 0.8 0 0 987.3 NA 0.0000 9999 260 0 0 0
2019/03/26 02:09:02 BASE 3.80 329 6.02 315 0.8 100 0.8 0 0 987.3 NA 0.0000 9999 230 0 0 0
2019/03/26 02:10:02 BASE 3.99 333 5.97 316 0.8 100 0.8 0 0 987.3 NA 0.0000 9999 200 0 0 0
2019/03/26 02:11:01 BASE 4.09 332 5.97 316 0.8 100 0.8 0 0 987.3 NA 0.0000 9999 200 0 0 0
2019/03/26 02:12:02 BASE 3.75 335 5.97 316 0.8 100 0.8 0 0 987.3 NA 0.0000 9999 200 0 0 0
2019/03/26 02:13:02 BASE 3.99 340 5.97 316 0.8 100 0.8 0 0 987.3 NA 0.0000 9999 200 0 0 0
2019/03/26 02:14:01 BASE 4.02 338 5.92 317 0.8 100 0.8 0 0 987.3 NA 0.0000 9999 0 0 0 520
2019/03/26 02:15:02 BASE 3.72 336 5.61 319 0.8 100 0.8 0 0 987.3 NA 0.0000 9999 0 0 0 520
2019/03/26 02:16:02 BASE 4.36 338 5.50 340 0.8 100 0.8 0 0 987.3 NA 0.0000 9999 0 0 0 520
2019/03/26 02:17:02 BASE 4.84 344 5.50 340 0.8 100 0.8 0 0 987.3 NA 0.0000 9999 200 0 0 0
2019/03/26 02:18:03 BASE 4.94 344 5.56 338 0.8 100 0.8 0 0 987.3 NA 0.0000 9999 200 0 0 0
2019/03/26 02:19:01 BASE 5.24 344 5.71 351 0.8 100 0.8 0 0 987.3 NA 0.0000 9999 200 0 0 0
2019/03/26 02:20:02 BASE 5.22 342 5.71 351 0.8 100 0.8 0 0 987.3 NA 0.0000 9999 200 0 0 0
2019/03/26 02:21:01 BASE 4.80 340 5.71 351 0.9 100 0.9 0 0 987.3 NA 0.0000 9999 0 0 0 520
2019/03/26 02:22:02 BASE 4.11 343 5.71 351 0.9 100 0.9 0 0 987.3 NA 0.0000 9999 0 0 0 520
2019/03/26 02:23:02 BASE 3.91 341 5.71 351 0.9 100 0.9 0 0 987.3 NA 0.0000 9999 200 0 0 0
2019/03/26 02:24:02 BASE 4.21 342 5.71 351 0.9 100 0.9 0 0 987.3 NA 0.0000 9999 200 0 0 0
2019/03/26 02:25:02 BASE 4.52 345 5.71 351 0.9 100 0.9 0 0 987.3 NA 0.0000 9999 200 0 0 0
2019/03/26 02:26:02 BASE 4.35 340 5.71 351 0.9 100 0.9 0 0 987.3 NA 0.0000 9999 200 0 0 0
2019/03/26 02:27:02 BASE 4.05 336 5.71 351 0.9 100 0.9 0 0 987.3 NA 0.0000 9999 230 0 0 0
2019/03/26 02:28:02 BASE 4.05 334 5.71 351 0.9 100 0.9 0 0 987.3 NA 0.0000 9999 230 0 0 0
2019/03/26 02:29:02 BASE 4.02 332 5.66 336 0.9 100 0.9 0 0 987.3 NA 0.0000 9999 230 0 0 0
2019/03/26 02:30:02 BASE 4.31 326 5.25 340 0.9 100 0.9 0 0 987.3 NA 0.0000 9999 200 0 0 0
2019/03/26 02:31:02 BASE 4.80 313 5.35 305 0.9 100 0.9 0 0 987.3 NA 0.0000 9999 200 0 0 0
2019/03/26 02:32:01 BASE 4.37 306 5.35 305 0.9 100 0.9 0 0 987.3 NA 0.0000 9999 0 0 0 520
2019/03/26 02:33:02 BASE 3.79 307 5.35 305 0.9 100 0.9 0 0 987.4 NA 0.0000 9999 0 0 0 560
2019/03/26 02:34:02 BASE 3.83 306 5.35 305 0.9 100 0.9 0 0 987.4 NA 0.0000 9999 0 0 0 560
2019/03/26 02:35:02 BASE 3.84 307 5.35 305 0.9 100 0.9 0 0 987.3 NA 0.0000 9999 0 0 0 560
2019/03/26 02:36:02 BASE 3.68 304 5.35 305 0.8 100 0.8 0 0 987.4 NA 0.0000 9999 200 0 0 0
2019/03/26 02:37:02 BASE 3.46 299 5.35 305 0.8 100 0.8 0 0 987.4 NA 0.0000 9999 200 0 0 0
2019/03/26 02:38:02 BASE 3.59 303 5.35 305 0.8 100 0.8 0 0 987.4 NA 0.0000 9999 0 0 0 620
2019/03/26 02:39:02 BASE 3.48 311 5.35 305 0.8 100 0.8 0 0 987.4 NA 0.0000 9999 0 0 0 660
2019/03/26 02:40:02 BASE 3.43 312 5.35 305 0.8 100 0.8 0 0 987.4 NA 0.0000 9999 0 0 0 590
2019/03/26 02:41:02 BASE 3.58 306 4.89 306 0.8 100 0.8 0 0 987.4 NA 0.0000 9999 0 0 0 520
2019/03/26 02:42:02 BASE 3.47 303 4.89 306 0.8 100 0.8 0 0 987.4 NA 0.0000 9999 0 0 0 590
2019/03/26 02:43:02 BASE 3.60 302 4.27 301 0.8 100 0.8 0 0 987.5 NA 0.0000 9999 0 0 0 520
2019/03/26 02:44:01 BASE 3.98 301 4.32 297 0.7 100 0.7 0 0 987.6 NA 0.0000 9999 0 0 0 520
2019/03/26 02:45:02 BASE 4.32 300 4.58 309 0.7 100 0.7 0 0 987.6 NA 0.0000 7000 0 0 0 460
2019/03/26 02:46:02 BASE 4.23 307 4.58 309 0.7 100 0.7 0 0 987.6 NA 0.0000 BR 7000 0 0 0 430
2019/03/26 02:47:01 BASE 4.05 314 4.58 309 0.7 100 0.7 0 0 987.6 NA 0.0000 BR 8000 0 0 0 430
2019/03/26 02:48:02 BASE 3.98 314 4.58 309 0.7 100 0.7 0 0 987.6 NA 0.0000 BR 9999 0 0 0 460
2019/03/26 02:49:02 BASE 3.37 315 4.58 309 0.8 100 0.8 0 0 987.6 NA 0.0000 BR 7000 0 0 0 430
2019/03/26 02:50:02 BASE 2.91 315 4.58 309 0.8 100 0.8 0 0 987.6 NA 0.0000 BR 8000 0 0 0 390
2019/03/26 02:51:02 BASE 3.03 316 4.58 309 0.8 100 0.8 0 0 987.6 NA 0.0000 BR 9000 0 0 0 430
2019/03/26 02:52:02 BASE 3.37 317 4.58 309 0.8 100 0.8 0 0 987.6 NA 0.0000 BR 9000 0 0 0 460
2019/03/26 02:53:02 BASE 3.60 315 4.58 309 0.8 100 0.8 0 0 987.6 NA 0.0000 BR 9000 0 0 0 430
2019/03/26 02:54:02 BASE 3.69 315 4.58 309 0.8 100 0.8 0 0 987.6 NA 0.0000 BR 9000 0 0 0 460
2019/03/26 02:55:02 BASE 3.74 318 4.27 318 0.8 100 0.8 0 0 987.7 NA 0.0000 BR 9000 0 0 0 460
2019/03/26 02:56:02 BASE 3.63 318 4.22 315 0.7 100 0.7 0 0 987.7 NA 0.0000 BR 8000 0 0 0 490
2019/03/26 02:57:02 BASE 3.72 317 4.17 318 0.7 100 0.7 0 0 987.7 NA 0.0000 BR 8000 0 0 0 460
2019/03/26 02:58:02 BASE 3.93 319 4.22 321 0.6 100 0.6 0 0 987.7 NA 0.0000 BR 8000 0 0 0 460
2019/03/26 02:59:02 BASE 3.97 324 4.22 321 0.6 100 0.6 0 0 987.7 NA 0.0000 BR 7000 0 0 0 490
2019/03/26 03:00:02 BASE 4.07 324 4.78 320 0.6 100 0.6 0 0 987.7 NA 0.0000 BR 8000 0 0 0 490
2019/03/26 03:01:02 BASE 4.44 321 5.14 313 0.6 100 0.6 0 0 987.7 NA 0.0000 BR 8000 0 0 0 460
2019/03/26 03:02:02 BASE 4.83 318 5.30 319 0.6 100 0.6 0 0 987.7 NA 0.0000 BR 8000 0 0 0 460
2019/03/26 03:03:01 BASE 4.81 317 5.35 316 0.7 100 0.7 0 0 987.7 NA 0.0000 BR 8000 0 0 0 490
2019/03/26 03:04:01 BASE 4.69 320 5.35 316 0.7 100 0.7 0 0 987.7 NA 0.0000 BR 8000 0 0 0 660
2019/03/26 03:05:02 BASE 4.51 322 5.35 316 0.7 100 0.7 0 0 987.7 NA 0.0000 BR 8000 0 0 0 620
2019/03/26 03:06:03 BASE 4.42 322 5.35 316 0.7 100 0.7 0 0 987.7 NA 0.0000 BR 7000 0 0 0 620
2019/03/26 03:07:02 BASE 4.46 323 5.35 316 0.8 100 0.8 0 0 987.7 NA 0.0000 BR 7000 0 0 0 620
2019/03/26 03:08:09 BASE 4.46 326 5.35 316 0.8 100 0.8 0 0 987.7 NA 0.0000 BR 6000 0 0 0 660
2019/03/26 03:09:02 BASE 4.67 325 5.35 316 0.8 100 0.8 0 0 987.7 NA 0.0000 BR 5000 0 0 0 720
2019/03/26 03:10:02 BASE 4.85 318 5.35 316 0.7 100 0.7 0 0 987.8 NA 0.0000 BR 3800 0 0 0 590
2019/03/26 03:11:02 BASE 4.77 319 5.35 316 0.7 100 0.7 0 0 987.8 NA 0.0000 BR 3000 0 0 0 490
2019/03/26 03:12:02 BASE 4.43 324 5.35 316 0.7 100 0.7 0 0 987.8 NA 0.0000 BR 3500 0 0 0 590
2019/03/26 03:13:02 BASE 4.12 324 5.20 316 0.7 100 0.7 0 0 987.8 NA 0.0000 BR 5000 0 0 0 520
2019/03/26 03:14:02 BASE 4.31 323 5.20 316 0.7 100 0.7 0 0 987.8 NA 0.0000 BR 6000 0 0 0 490
2019/03/26 03:15:02 BASE 4.66 321 5.35 325 0.7 100 0.7 0 0 987.8 NA 0.0000 BR 8000 0 0 0 490
2019/03/26 03:16:02 BASE 4.70 316 5.35 325 0.7 100 0.7 0 0 987.8 NA 0.0000 BR 9000 0 0 0 490
2019/03/26 03:17:02 BASE 4.73 316 5.35 325 0.7 100 0.7 0 0 987.8 NA 0.0000 BR 9000 0 0 0 520
2019/03/26 03:18:03 BASE 4.95 320 5.56 320 0.7 100 0.7 0 0 987.8 NA 0.0000 BR 8000 0 0 0 520
2019/03/26 03:19:02 BASE 4.98 322 5.56 320 0.7 100 0.7 0 0 987.8 NA 0.0000 BR 8000 0 0 0 660
2019/03/26 03:20:02 BASE 4.95 327 5.56 320 0.7 100 0.7 0 0 987.8 NA 0.0000 BR 7000 0 0 0 720
2019/03/26 03:21:02 BASE 5.17 331 5.61 327 0.7 100 0.7 0 0 987.8 NA 0.0000 BR 7000 0 0 0 660
2019/03/26 03:22:01 BASE 5.54 331 6.28 332 0.7 100 0.7 0 0 987.8 NA 0.0000 BR 7000 0 0 0 660
2019/03/26 03:23:02 BASE 5.96 331 6.38 334 0.7 100 0.7 0 0 987.8 NA 0.0000 BR 7000 0 0 0 690
2019/03/26 03:24:02 BASE 5.87 332 6.38 334 0.7 100 0.7 0 0 987.8 NA 0.0000 BR 9000 260 0 0 0
2019/03/26 03:25:01 BASE 5.63 333 6.38 334 0.8 100 0.8 0 0 987.8 NA 0.0000 BR 9999 360 0 0 0
2019/03/26 03:26:02 BASE 5.44 330 6.38 334 0.8 100 0.8 0 0 987.8 NA 0.0000 BR 9999 360 0 0 0
2019/03/26 03:27:02 BASE 5.55 329 6.38 334 0.8 100 0.8 0 0 987.9 NA 0.0000 BR 9999 300 0 0 0
2019/03/26 03:28:02 BASE 5.69 332 6.38 334 0.8 100 0.8 0 0 987.9 NA 0.0000 BR 9999 260 0 0 0
2019/03/26 03:29:02 BASE 5.69 336 6.38 334 0.8 100 0.8 0 0 987.9 NA 0.0000 BR 9000 300 0 0 0
2019/03/26 03:30:02 BASE 6.12 335 6.84 329 0.8 100 0.8 0 0 987.9 NA 0.0000 BR 8000 260 0 0 0
2019/03/26 03:31:02 BASE 6.32 335 6.84 329 0.8 100 0.8 0 0 987.9 NA 0.0000 BR 8000 230 0 0 0
2019/03/26 03:32:02 BASE 6.15 337 7.05 332 0.8 100 0.8 0 0 987.9 NA 0.0000 BR 8000 260 0 0 0
2019/03/26 03:33:02 BASE 6.23 338 7.05 332 0.8 100 0.8 0 0 987.9 NA 0.0000 BR 7000 0 0 0 620
2019/03/26 03:34:02 BASE 6.44 336 7.05 332 0.8 100 0.8 0 0 987.9 NA 0.0000 BR 8000 0 0 0 620
2019/03/26 03:35:02 BASE 6.16 330 7.05 332 0.8 100 0.8 0 0 987.9 NA 0.0000 BR 9000 230 0 0 0
2019/03/26 03:36:02 BASE 5.89 330 7.05 332 0.8 100 0.8 0 0 987.9 NA 0.0000 BR 9000 0 0 0 590
2019/03/26 03:37:02 BASE 6.14 331 7.05 332 0.8 100 0.8 0 0 987.9 NA 0.0000 BR 9000 0 0 0 590
2019/03/26 03:38:02 BASE 6.15 325 7.41 321 0.8 100 0.8 0 0 987.9 NA 0.0000 BR 9000 0 0 0 620
2019/03/26 03:39:02 BASE 6.22 320 7.41 321 0.8 100 0.8 0 0 987.9 NA 0.0000 BR 9000 0 0 0 620
2019/03/26 03:40:02 BASE 6.12 318 7.41 321 0.8 100 0.8 0 0 987.9 NA 0.0000 BR 9999 0 0 0 620
2019/03/26 03:41:02 BASE 5.56 317 7.41 321 0.8 100 0.8 0 0 987.9 NA 0.0000 BR 9000 0 0 0 590
2019/03/26 03:42:02 BASE 4.93 319 7.41 321 0.8 100 0.8 0 0 987.9 NA 0.0000 BR 8000 0 0 0 560
2019/03/26 03:43:02 BASE 4.91 323 7.41 321 0.8 100 0.8 0 0 987.9 NA 0.0000 BR 8000 0 0 0 560
2019/03/26 03:44:02 BASE 5.00 320 7.41 321 0.8 100 0.8 0 0 987.9 NA 0.0000 BR 8000 0 0 0 590
2019/03/26 03:45:02 BASE 4.49 321 7.41 321 0.8 100 0.8 0 0 987.9 NA 0.0000 BR 8000 0 0 0 590
2019/03/26 03:46:02 BASE 4.41 327 7.41 321 0.8 100 0.8 0 0 987.9 NA 0.0000 BR 8000 0 0 0 560
2019/03/26 03:47:02 BASE 4.47 331 7.41 321 0.8 100 0.8 0 0 987.9 NA 0.0000 BR 8000 0 0 0 560
2019/03/26 03:48:01 BASE 4.66 333 7.31 316 0.8 100 0.8 0 0 987.9 NA 0.0000 BR 8000 0 0 0 520
2019/03/26 03:49:02 BASE 4.71 334 6.58 308 0.8 100 0.8 0 0 987.9 NA 0.0000 BR 8000 0 0 0 720
2019/03/26 03:50:02 BASE 4.75 332 5.92 313 0.8 100 0.8 0 0 987.9 NA 0.0000 BR 8000 0 0 0 590
2019/03/26 03:51:02 BASE 4.84 334 5.61 317 0.8 100 0.8 0 0 987.9 NA 0.0000 BR 8000 0 0 0 590
2019/03/26 03:52:02 BASE 4.96 337 5.92 342 0.8 100 0.8 0 0 988.0 NA 0.0000 BR 7000 0 0 0 590
2019/03/26 03:53:02 BASE 5.23 334 6.02 332 0.8 100 0.8 0 0 988.0 NA 0.0000 BR 7000 0 0 0 560
2019/03/26 03:54:01 BASE 5.08 327 6.02 332 0.8 100 0.8 0 0 988.0 NA 0.0000 BR 7000 0 0 0 560
2019/03/26 03:55:02 BASE 5.01 325 6.02 332 0.8 100 0.8 0 0 988.0 NA 0.0000 BR 8000 0 0 0 590
2019/03/26 03:56:02 BASE 5.41 328 6.02 332 0.8 100 0.8 0 0 988.0 NA 0.0000 BR 7000 0 0 0 560
2019/03/26 03:57:02 BASE 5.94 331 6.79 332 0.8 100 0.8 0 0 988.0 NA 0.0000 BR 8000 0 0 0 620
2019/03/26 03:58:02 BASE 6.20 335 6.79 332 0.8 100 0.8 0 0 988.1 NA 0.0000 BR 8000 0 0 0 590
2019/03/26 03:59:02 BASE 6.10 336 6.79 332 0.8 100 0.8 0 0 988.1 NA 0.0000 BR 8000 0 0 0 560
2019/03/26 04:00:03 BASE 5.97 332 6.89 329 0.8 100 0.8 0 0 988.1 NA 0.0000 BR 9000 0 0 0 520
2019/03/26 04:01:02 BASE 5.76 331 6.89 329 0.8 100 0.8 0 0 988.2 NA 0.0000 BR 9000 0 0 0 520
2019/03/26 04:02:01 BASE 5.82 336 6.89 329 0.8 100 0.8 0 0 988.2 NA 0.0000 BR 7000 0 0 0 560
2019/03/26 04:03:02 BASE 5.81 337 6.89 329 0.8 100 0.8 0 0 988.2 NA 0.0000 BR 7000 0 0 0 620
2019/03/26 04:04:02 BASE 5.43 335 6.89 329 0.8 100 0.8 0 0 988.2 NA 0.0000 BR 7000 0 0 0 590
2019/03/26 04:05:02 BASE 5.32 331 6.89 329 0.8 100 0.8 0 0 988.2 NA 0.0000 BR 7000 0 0 0 560
2019/03/26 04:06:02 BASE 5.43 329 6.89 329 0.8 100 0.8 0 0 988.2 NA 0.0000 BR 7000 0 0 0 560
2019/03/26 04:07:02 BASE 5.62 329 6.89 329 0.8 100 0.8 0 0 988.2 NA 0.0000 BR 7000 0 0 0 520
2019/03/26 04:08:01 BASE 5.85 329 6.89 329 0.8 100 0.8 0 0 988.2 NA 0.0000 BR 7000 0 0 0 560
2019/03/26 04:09:02 BASE 6.10 330 6.89 329 0.8 100 0.8 0 0 988.2 NA 0.0000 BR 7000 0 0 0 560
2019/03/26 04:10:03 BASE 6.05 332 6.43 333 0.8 100 0.8 0 0 988.2 NA 0.0000 BR 7000 0 0 0 560
2019/03/26 04:11:02 BASE 5.91 332 6.43 333 0.8 100 0.8 0 0 988.3 NA 0.0000 BR 8000 0 0 0 560
2019/03/26 04:12:02 BASE 6.20 331 7.00 324 0.8 100 0.8 0 0 988.3 NA 0.0000 BR 8000 0 0 0 520
2019/03/26 04:13:02 BASE 6.16 329 7.00 324 0.8 100 0.8 0 0 988.3 NA 0.0000 BR 9000 0 0 0 520
2019/03/26 04:14:02 BASE 5.80 333 7.00 324 0.8 100 0.8 0 0 988.3 NA 0.0000 BR 9999 0 0 0 560
2019/03/26 04:15:04 BASE 6.01 335 7.00 324 0.8 100 0.8 0 0 988.3 NA 0.0000 BR 9999 0 0 0 560
2019/03/26 04:16:02 BASE 6.48 333 7.25 337 0.8 100 0.8 0 0 988.3 NA 0.0000 BR 9999 0 0 0 560
2019/03/26 04:17:02 BASE 6.84 329 7.36 325 0.8 100 0.8 0 0 988.3 NA 0.0000 BR 9999 0 0 0 520
2019/03/26 04:18:03 BASE 6.97 324 7.51 317 0.8 100 0.8 0 0 988.4 NA 0.0000 BR 9999 0 0 0 560
2019/03/26 04:19:02 BASE 6.70 322 7.51 317 0.8 100 0.8 0 0 988.4 NA 0.0000 BR 9999 0 0 0 520
2019/03/26 04:20:02 BASE 6.25 323 7.51 317 0.8 100 0.8 0 0 988.4 NA 0.0000 BR 9000 0 0 0 490
2019/03/26 04:21:02 BASE 6.60 320 7.77 311 0.8 100 0.8 0 0 988.4 NA 0.0000 BR 8000 0 0 0 390
2019/03/26 04:22:02 BASE 7.34 312 8.13 307 0.8 100 0.8 0 0 988.4 NA 0.0000 BR 4600 0 0 0 360
2019/03/26 04:23:02 BASE 7.15 305 8.13 307 0.8 100 0.8 0 0 988.4 NA 0.0000 BR 1900 0 0 0 330
2019/03/26 04:24:02 BASE 6.83 297 8.13 307 0.8 100 0.8 0 0 988.4 NA 0.0000 BR 1600 0 0 0 330
2019/03/26 04:25:03 BASE 6.68 295 8.13 307 0.8 100 0.8 0 0 988.5 NA 0.0000 BR 1900 0 0 0 390
2019/03/26 04:26:02 BASE 6.58 296 8.13 307 0.8 100 0.8 0 0 988.5 NA 0.0000 BR 2000 0 0 0 330
2019/03/26 04:27:02 BASE 6.91 296 8.13 307 0.9 100 0.9 0 0 988.5 NA 0.0000 BR 1800 0 0 0 390
2019/03/26 04:28:02 BASE 7.14 296 8.13 307 0.9 100 0.9 0 0 988.5 NA 0.0000 BR 1800 0 0 0 390
2019/03/26 04:29:02 BASE 7.39 295 8.13 307 0.9 100 0.9 0 0 988.5 NA 0.0000 BR 2200 0 0 0 430
2019/03/26 04:30:03 BASE 7.10 296 8.13 307 0.9 100 0.9 0 0 988.5 NA 0.0000 BR 2900 0 0 0 430
2019/03/26 04:31:02 BASE 7.07 297 8.28 292 0.9 100 0.9 0 0 988.5 NA 0.0000 BR 3000 0 0 0 390
2019/03/26 04:32:03 BASE 7.05 296 8.28 292 0.9 100 0.9 0 0 988.5 NA 0.0000 BR 3500 0 0 0 390
2019/03/26 04:33:03 BASE 6.80 295 8.28 292 1.0 100 1.0 0 0 988.5 NA 0.0000 BR 4000 0 0 0 390
2019/03/26 04:34:02 BASE 6.61 297 8.28 292 1.0 100 1.0 0 0 988.5 NA 0.0000 BR 4300 0 0 0 390
2019/03/26 04:35:02 BASE 5.96 300 8.28 292 1.0 100 1.0 0 0 988.5 NA 0.0000 BR 4000 0 0 0 360
2019/03/26 04:36:02 BASE 5.86 303 8.28 292 0.9 100 0.9 0 0 988.5 NA 0.0000 BR 3800 0 0 0 360
2019/03/26 04:37:03 BASE 6.37 305 8.28 292 0.9 100 0.9 0 0 988.5 NA 0.0000 BR 4500 0 0 0 390
2019/03/26 04:38:02 BASE 6.45 299 8.28 292 0.9 100 0.9 0 0 988.5 NA 0.0000 BR 5000 0 0 0 390
2019/03/26 04:39:02 BASE 6.34 297 8.28 292 0.9 100 0.9 0 0 988.6 NA 0.0000 BR 6000 0 0 0 460
2019/03/26 04:40:03 BASE 6.20 300 8.28 292 0.9 100 0.9 0 0 988.6 NA 0.0000 BR 6000 0 0 0 590
2019/03/26 04:41:02 BASE 5.88 300 7.56 292 0.9 100 0.9 0 0 988.7 NA 0.0000 BR 5000 0 0 0 560
2019/03/26 04:42:02 BASE 5.97 300 7.56 292 0.9 100 0.9 0 0 988.7 NA 0.0000 BR 6000 0 0 0 520
2019/03/26 04:43:02 BASE 5.99 300 7.51 293 0.9 100 0.9 0 0 988.7 NA 0.0000 BR 8000 0 0 0 690
2019/03/26 04:44:02 BASE 5.96 302 7.25 308 0.9 100 0.9 0 0 988.7 NA 0.0000 BR 9000 0 0 0 590
2019/03/26 04:45:03 BASE 5.91 305 7.25 308 0.9 100 0.9 0 0 988.7 NA 0.0000 BR 9999 0 0 0 790
2019/03/26 04:46:02 BASE 5.94 303 7.25 308 0.9 100 0.9 0 0 988.7 NA 0.0000 BR 9999 260 820 0 0
2019/03/26 04:47:02 BASE 6.39 302 7.41 305 0.9 100 0.9 0 0 988.7 NA 0.0000 BR 9999 260 0 0 0
2019/03/26 04:48:02 BASE 6.58 304 7.41 305 0.9 100 0.9 0 0 988.7 NA 0.0000 BR 9999 260 0 0 0
2019/03/26 04:49:02 BASE 6.58 306 7.41 305 0.9 100 0.9 0 0 988.7 NA 0.0000 BR 9999 260 0 0 0
2019/03/26 04:50:02 BASE 6.75 307 7.41 305 0.9 100 0.9 0 0 988.8 NA 0.0000 BR 9999 300 0 0 0
2019/03/26 04:51:02 BASE 6.82 307 7.41 301 0.9 100 0.9 0 0 988.9 NA 0.0000 9999 230 0 0 0
2019/03/26 04:52:02 BASE 7.19 304 8.75 301 0.9 100 0.9 0 0 988.9 NA 0.0000 9999 260 0 0 0
2019/03/26 04:53:02 BASE 7.48 305 8.75 301 0.9 100 0.9 0 0 988.9 NA 0.0000 9999 260 0 0 0
2019/03/26 04:54:02 BASE 7.00 307 8.75 301 0.9 100 0.9 0 0 988.9 NA 0.0000 9999 300 0 0 0
2019/03/26 04:55:02 BASE 6.88 306 8.75 301 0.9 100 0.9 0 0 988.9 NA 0.0000 9999 330 0 0 0
2019/03/26 04:56:02 BASE 7.52 306 8.75 301 0.9 100 0.9 0 0 988.8 NA 0.0000 9999 330 0 0 0
2019/03/26 04:57:02 BASE 7.50 301 8.75 301 0.9 100 0.9 0 0 988.9 NA 0.0000 9999 360 0 0 0
2019/03/26 04:58:02 BASE 7.03 298 8.75 301 0.9 100 0.9 0 0 988.9 NA 0.0000 9999 330 0 0 0
2019/03/26 04:59:02 BASE 6.49 299 8.75 301 0.9 100 0.9 0 0 988.9 NA 0.0000 9999 360 0 0 0
2019/03/26 05:00:02 BASE 6.29 299 8.75 301 0.9 100 0.9 0 0 988.9 NA 0.0000 9999 330 0 0 0
2019/03/26 05:01:02 BASE 6.47 298 8.75 301 0.9 100 0.9 0 0 988.9 NA 0.0000 9999 390 0 0 0
2019/03/26 05:02:02 BASE 6.28 298 8.54 305 0.9 100 0.9 0 0 988.9 NA 0.0000 9999 390 0 0 0
2019/03/26 05:03:01 BASE 6.16 301 8.54 305 0.9 100 0.9 0 0 989.0 NA 0.0000 9999 330 0 0 0
2019/03/26 05:04:02 BASE 6.51 300 8.54 305 0.9 100 0.9 0 0 989.0 NA 0.0000 9999 330 0 0 0
2019/03/26 05:05:02 BASE 6.49 299 8.54 305 1.0 100 1.0 0 0 989.0 NA 0.0000 9999 360 0 0 0
2019/03/26 05:06:02 BASE 5.92 301 8.18 297 1.0 100 1.0 0 0 989.0 NA 0.0000 9999 330 0 0 0
2019/03/26 05:07:02 BASE 5.89 302 7.46 296 0.9 100 0.9 0 0 989.0 NA 0.0000 9999 300 0 0 0
2019/03/26 05:08:02 BASE 6.00 302 7.46 296 0.9 100 0.9 0 0 989.0 NA 0.0000 9999 360 0 0 0
2019/03/26 05:09:01 BASE 5.92 301 7.46 296 0.9 100 0.9 0 0 988.9 NA 0.0000 9999 360 0 0 0
2019/03/26 05:10:02 BASE 6.02 304 7.46 296 0.9 100 0.9 0 0 988.9 NA 0.0000 9999 330 0 0 0
2019/03/26 05:11:02 BASE 5.63 306 7.46 296 0.9 100 0.9 0 0 989.0 NA 0.0000 9999 360 0 0 0
2019/03/26 05:12:02 BASE 5.36 304 7.46 296 0.9 100 0.9 0 0 989.0 NA 0.0000 9999 330 0 0 0
2019/03/26 05:13:02 BASE 5.62 301 7.46 296 0.9 100 0.9 0 0 989.0 NA 0.0000 9999 330 0 0 0
2019/03/26 05:14:02 BASE 5.65 298 7.10 303 0.9 100 0.9 0 0 989.0 NA 0.0000 9999 330 0 0 0
2019/03/26 05:15:01 BASE 5.87 297 7.25 291 0.9 100 0.9 0 0 989.0 NA 0.0000 9999 360 0 0 0
2019/03/26 05:16:03 BASE 5.91 300 7.25 291 0.9 100 0.9 0 0 989.0 NA 0.0000 9999 330 0 0 0
2019/03/26 05:17:02 BASE 5.82 302 7.25 291 0.9 100 0.9 0 0 989.0 NA 0.0000 9999 300 0 0 0
2019/03/26 05:18:03 BASE 6.11 297 7.25 291 0.9 100 0.9 0 0 989.0 NA 0.0000 9999 300 0 0 0
2019/03/26 05:19:02 BASE 5.82 296 7.25 291 0.9 100 0.9 0 0 989.0 NA 0.0000 9999 300 0 0 0
2019/03/26 05:20:02 BASE 5.98 293 7.97 271 0.9 100 0.9 0 0 989.0 NA 0.0000 9999 330 0 0 0
2019/03/26 05:21:02 BASE 6.33 283 7.97 271 1.0 100 1.0 0 0 989.0 NA 0.0000 9999 330 0 0 0
2019/03/26 05:22:02 BASE 5.33 278 7.97 271 1.0 100 1.0 0 0 989.0 NA 0.0000 9999 330 0 0 0
2019/03/26 05:23:02 BASE 4.98 275 7.97 271 1.0 100 1.0 0 0 989.0 NA 0.0000 9999 360 0 0 0
2019/03/26 05:24:02 BASE 5.84 273 7.97 271 1.0 100 1.0 0 0 989.0 NA 0.0000 9999 300 0 0 0
2019/03/26 05:25:03 BASE 6.61 273 8.28 276 1.0 100 1.0 0 0 989.0 NA 0.0000 9999 260 0 0 0
2019/03/26 05:26:02 BASE 6.86 268 8.28 276 1.0 100 1.0 0 0 989.0 NA 0.0000 9999 230 0 0 0
2019/03/26 05:27:02 BASE 6.56 268 8.28 276 1.0 100 1.0 0 0 989.0 NA 0.0000 9999 200 0 0 0
2019/03/26 05:28:01 BASE 6.31 270 8.28 276 1.0 100 1.0 0 0 989.0 NA 0.0000 9999 260 0 0 0
2019/03/26 05:29:02 BASE 6.21 264 8.28 276 1.0 100 1.0 0 0 989.0 NA 0.0000 9999 230 0 0 0
2019/03/26 05:30:02 BASE 5.81 261 8.28 276 1.0 100 1.0 0 0 989.0 NA 0.0000 9999 260 0 0 0
2019/03/26 05:31:02 BASE 5.65 262 8.28 276 1.0 100 1.0 0 0 989.1 NA 0.0000 9999 230 0 0 0
2019/03/26 05:32:01 BASE 5.29 263 8.28 276 1.0 100 1.0 0 0 989.1 NA 0.0000 9999 200 0 0 0
2019/03/26 05:33:02 BASE 4.65 263 8.28 276 1.0 100 1.0 0 0 989.1 NA 0.0000 9999 0 0 0 620
2019/03/26 05:34:02 BASE 4.50 263 8.28 276 1.0 100 1.0 0 0 989.1 NA 0.0000 9999 0 0 0 690
2019/03/26 05:35:02 BASE 4.02 265 7.72 264 1.0 100 1.0 0 0 989.1 NA 0.0000 9999 0 0 0 690
2019/03/26 05:36:02 BASE 4.09 266 7.72 264 1.0 100 1.0 0 0 989.1 NA 0.0000 9999 0 0 0 720
2019/03/26 05:37:01 BASE 4.21 268 7.72 264 1.0 100 1.0 0 0 989.1 NA 0.0000 9999 0 0 0 560
2019/03/26 05:38:02 BASE 3.96 267 7.72 264 1.0 100 1.0 0 0 989.1 NA 0.0000 9999 0 0 0 520
2019/03/26 05:39:02 BASE 3.87 267 7.72 264 1.0 100 1.0 0 0 989.1 NA 0.0000 9999 0 0 0 490
2019/03/26 05:40:02 BASE 3.44 269 7.72 264 1.0 100 1.0 0 0 989.1 NA 0.0000 9999 0 0 0 560
2019/03/26 05:41:02 BASE 3.70 270 6.38 255 1.0 100 1.0 0 0 989.1 NA 0.0000 9000 0 0 0 590
2019/03/26 05:42:02 BASE 4.12 273 6.12 258 1.0 100 1.0 0 0 989.1 NA 0.0000 9000 0 0 0 520
2019/03/26 05:43:02 BASE 4.59 275 6.12 258 1.0 100 1.0 0 0 989.1 NA 0.0000 8000 0 0 0 460
2019/03/26 05:44:02 BASE 4.64 275 6.22 276 1.0 100 1.0 0 0 989.1 NA 0.0000 9000 0 0 0 850
2019/03/26 05:45:02 BASE 4.36 273 6.22 276 1.0 100 1.0 0 0 989.1 NA 0.0000 8000 0 0 0 980
2019/03/26 05:46:01 BASE 4.34 276 6.22 276 1.0 100 1.0 0 0 989.1 NA 0.0000 BR 9000 0 0 0 820
2019/03/26 05:47:02 BASE 4.17 282 6.22 276 1.0 100 1.0 0 0 989.1 NA 0.0000 BR 9999 0 0 0 690
2019/03/26 05:48:02 BASE 3.86 282 6.22 276 1.0 100 1.0 0 0 989.1 NA 0.0000 BR 9999 0 0 0 1410
2019/03/26 05:49:02 BASE 3.41 279 6.22 276 1.0 100 1.0 0 0 989.1 NA 0.0000 BR 9999 0 0 0 1150
2019/03/26 05:50:01 BASE 3.49 278 6.22 276 1.0 100 1.0 0 0 989.1 NA 0.0000 BR 9999 0 0 0 790
2019/03/26 05:51:02 BASE 3.71 281 6.22 276 1.0 100 1.0 0 0 989.1 NA 0.0000 9999 0 0 0 750
2019/03/26 05:52:02 BASE 3.89 282 6.22 276 1.0 100 1.0 0 0 989.1 NA 0.0000 9999 0 0 0 690
2019/03/26 05:53:02 BASE 4.18 279 6.22 276 1.0 100 1.0 0 0 989.1 NA 0.0000 9999 0 0 0 690
2019/03/26 05:54:01 BASE 4.49 281 5.25 298 1.0 100 1.0 0 0 989.1 NA 0.0000 9999 0 0 0 660
2019/03/26 05:55:02 BASE 4.35 279 5.56 272 1.0 100 1.0 0 0 989.1 NA 0.0000 9999 0 0 0 620
2019/03/26 05:57:00 BASE 4.03 276 5.56 272 1.0 100 1.0 0 0 989.1 NA 0.0000 9999 0 0 0 520
2019/03/26 05:58:00 BASE 5.03 281 8.59 254 1.0 100 1.0 0 0 989.1 NA 0.0000 8000 0 0 0 520
2019/03/26 05:59:00 BASE 7.15 269 9.62 254 1.0 100 1.0 0 0 989.1 NA 0.0000 9999 0 0 0 560
2019/03/26 06:00:00 BASE 7.78 260 9.77 245 1.0 100 1.0 0 0 989.1 NA 0.0000 9999 0 0 0 520
2019/03/26 06:01:00 BASE 6.63 271 9.77 245 1.0 100 1.0 0 0 989.1 NA 0.0000 9999 0 0 0 590
2019/03/26 06:02:00 BASE 6.68 269 10.39 259 1.0 100 1.0 0 0 989.1 NA 0.0000 9999 0 0 0 560
2019/03/26 06:03:00 BASE 8.64 259 10.65 253 1.0 100 1.0 0 0 989.1 NA 0.0000 9999 0 0 0 560
2019/03/26 06:04:00 BASE 9.69 256 10.65 253 1.0 100 1.0 0 0 989.1 NA 0.0000 9999 0 0 0 490
2019/03/26 06:05:00 BASE 9.45 255 10.65 253 0.9 100 0.9 0 0 989.1 NA 0.0000 9000 0 0 0 490
2019/03/26 06:06:00 BASE 9.69 254 10.65 253 0.9 100 0.9 0 0 989.1 NA 0.0000 9999 0 0 0 620
2019/03/26 06:07:00 BASE 9.68 254 10.65 253 0.9 100 0.9 0 0 989.2 NA 0.0000 9999 0 0 0 750
2019/03/26 06:08:00 BASE 9.46 253 10.65 253 0.9 100 0.9 0 0 989.2 NA 0.0000 9999 0 0 0 690
2019/03/26 06:09:00 BASE 8.80 250 10.65 253 0.9 100 0.9 0 0 989.1 NA 0.0000 9999 0 0 0 590
2019/03/26 06:10:00 BASE 8.17 247 10.65 253 0.9 100 0.9 0 0 989.1 NA 0.0000 9999 0 0 0 560
2019/03/26 06:11:00 BASE 8.47 247 10.65 253 0.9 100 0.9 0 0 989.1 NA 0.0000 9999 0 0 0 590
2019/03/26 06:12:00 BASE 8.38 246 10.65 253 0.9 100 0.9 0 0 989.1 NA 0.0000 9999 0 0 0 590
2019/03/26 06:13:00 BASE 8.45 248 10.65 253 0.9 100 0.9 0 0 989.1 NA 0.0000 9999 0 0 0 560
2019/03/26 06:14:00 BASE 8.16 251 10.65 253 0.8 100 0.8 0 0 989.1 NA 0.0000 7000 0 0 0 490
2019/03/26 06:15:00 BASE 8.44 255 10.80 260 0.8 100 0.8 0 0 989.1 NA 0.0000 3600 0 0 0 430
2019/03/26 06:16:00 BASE 9.17 256 10.80 260 0.8 100 0.8 0 0 989.1 NA 0.0000 BR 2100 0 0 0 390
2019/03/26 06:17:00 BASE 9.13 255 10.80 260 0.8 100 0.8 0 0 989.1 NA 0.0000 BR 1700 0 0 0 360
2019/03/26 06:18:00 BASE 9.33 255 10.80 260 0.8 100 0.8 0 0 989.1 NA 0.0000 BR 1700 0 0 0 460
2019/03/26 06:19:00 BASE 9.49 253 10.96 253 0.8 100 0.8 0 0 989.1 NA 0.0000 BR 2200 0 0 0 520
2019/03/26 06:20:00 BASE 9.16 249 10.96 253 0.8 100 0.8 0 0 989.1 NA 0.0000 BR 3900 0 0 0 560
2019/03/26 06:21:03 BASE 8.26 247 10.96 253 0.8 100 0.8 0 0 989.1 NA 0.0000 BR 9000 430 0 0 0
2019/03/26 06:22:00 BASE 7.51 247 10.96 253 0.7 100 0.7 0 0 989.1 NA 0.0000 BR 9999 360 0 0 0
2019/03/26 06:23:00 BASE 7.26 247 10.96 253 0.7 100 0.7 0 0 989.1 NA 0.0000 BR 9999 460 0 0 0
2019/03/26 06:24:00 BASE 7.13 246 10.96 253 0.7 100 0.7 0 0 989.1 NA 0.0000 BR 9999 360 0 0 0
2019/03/26 06:25:00 BASE 7.61 243 10.96 253 0.7 100 0.7 0 0 989.1 NA 0.0000 BR 9999 360 0 0 0
2019/03/26 06:26:00 BASE 7.84 243 10.96 253 0.7 100 0.7 0 0 989.1 NA 0.0000 BR 9999 330 0 0 0
2019/03/26 06:27:00 BASE 7.53 244 10.96 253 0.7 100 0.7 0 0 989.1 NA 0.0000 BR 9999 260 0 0 0
2019/03/26 06:28:00 BASE 8.08 245 10.96 253 0.7 100 0.7 0 0 989.1 NA 0.0000 BR 9999 0 0 0 890
2019/03/26 06:29:00 BASE 8.27 247 9.62 246 0.7 100 0.7 0 0 989.1 NA 0.0000 9999 0 0 0 520
2019/03/26 06:30:00 BASE 7.85 247 9.26 243 0.7 100 0.7 0 0 989.1 NA 0.0000 7000 0 0 0 460
2019/03/26 06:31:00 BASE 7.24 248 9.26 243 0.7 100 0.7 0 0 989.1 NA 0.0000 4600 0 0 0 460
2019/03/26 06:32:00 BASE 7.07 249 9.26 243 0.7 100 0.7 0 0 989.1 NA 0.0000 BR 3300 0 0 0 490
2019/03/26 06:33:00 BASE 6.87 247 9.26 243 0.7 100 0.7 0 0 989.1 NA 0.0000 BR 3100 0 0 0 460
2019/03/26 06:34:00 BASE 7.61 247 10.24 250 0.7 100 0.7 0 0 989.2 NA 0.0000 BR 2900 0 0 0 390
2019/03/26 06:35:00 BASE 8.96 246 10.24 250 0.7 100 0.7 0 0 989.2 NA 0.0000 BR 4800 0 0 0 660
2019/03/26 06:36:00 BASE 8.39 248 10.24 250 0.7 100 0.7 0 0 989.2 NA 0.0000 BR 9999 300 0 0 0
2019/03/26 06:37:00 BASE 8.05 250 10.24 250 0.6 100 0.6 0 0 989.2 NA 0.0000 BR 9999 390 0 0 0
2019/03/26 06:38:00 BASE 7.61 249 10.24 250 0.6 100 0.6 0 0 989.2 NA 0.0000 BR 9999 590 0 0 0
2019/03/26 06:39:00 BASE 6.87 252 10.24 250 0.6 100 0.6 0 0 989.2 NA 0.0000 BR 9999 820 0 0 0
2019/03/26 06:40:00 BASE 7.05 252 10.24 250 0.6 100 0.6 0 0 989.2 NA 0.0000 BR 9999 520 890 0 0
2019/03/26 06:41:00 BASE 6.99 251 10.24 250 0.6 100 0.6 0 0 989.3 NA 0.0000 BR 9999 490 980 0 0
2019/03/26 06:42:00 BASE 7.22 253 10.24 250 0.6 100 0.6 0 0 989.3 NA 0.0000 BR 9999 430 0 0 0
2019/03/26 06:43:00 BASE 7.20 254 10.24 250 0.6 100 0.6 0 0 989.4 NA 0.0000 BR 9999 430 0 0 0
2019/03/26 06:44:00 BASE 7.06 253 9.67 243 0.6 100 0.6 0 0 989.4 NA 0.0000 9999 390 0 0 0
2019/03/26 06:45:00 BASE 6.82 252 9.41 239 0.6 100 0.6 0 0 989.4 NA 0.0000 9999 430 0 0 0
2019/03/26 06:46:00 BASE 6.16 253 9.41 239 0.6 100 0.6 0 0 989.4 NA 0.0000 9999 460 0 0 0
2019/03/26 06:47:00 BASE 5.82 252 8.23 264 0.6 100 0.6 0 0 989.4 NA 0.0000 9999 360 0 0 0
2019/03/26 06:48:00 BASE 5.94 250 8.23 264 0.6 100 0.6 0 0 989.4 NA 0.0000 9999 330 0 0 0
2019/03/26 06:49:00 BASE 6.04 251 8.23 264 0.6 100 0.6 0 0 989.4 NA 0.0000 9999 330 0 0 0
2019/03/26 06:50:00 BASE 5.62 250 8.23 264 0.6 100 0.6 0 0 989.4 NA 0.0000 9999 360 0 0 0
2019/03/26 06:51:00 BASE 5.38 250 8.23 264 0.6 100 0.6 0 0 989.4 NA 0.0000 9999 360 0 0 0
2019/03/26 06:52:00 BASE 5.37 257 8.18 255 0.6 100 0.6 0 0 989.4 NA 0.0000 9999 330 0 0 0
2019/03/26 06:53:00 BASE 5.42 266 7.97 260 0.6 100 0.6 0 0 989.4 NA 0.0000 9999 360 0 0 0
2019/03/26 06:54:00 BASE 5.86 271 8.18 266 0.6 100 0.6 0 0 989.4 NA 0.0000 9999 460 0 0 0
2019/03/26 06:55:00 BASE 6.41 270 8.18 266 0.6 100 0.6 0 0 989.4 NA 0.0000 9999 520 0 0 0
2019/03/26 06:56:00 BASE 6.47 271 8.18 266 0.6 100 0.6 0 0 989.4 NA 0.0000 9999 490 0 0 0
2019/03/26 06:57:00 BASE 6.78 274 8.18 266 0.6 100 0.6 0 0 989.4 NA 0.0000 9999 520 0 0 0
2019/03/26 06:58:00 BASE 7.11 273 8.18 266 0.6 100 0.6 0 0 989.5 NA 0.0000 9999 430 0 0 0
2019/03/26 06:59:00 BASE 6.84 264 8.18 266 0.6 100 0.6 0 0 989.5 NA 0.0000 9999 390 0 0 0
2019/03/26 07:00:00 BASE 7.26 255 8.54 260 0.6 100 0.6 0 0 989.5 NA 0.0000 9999 390 0 0 0
2019/03/26 07:01:00 BASE 7.97 253 8.75 254 0.5 100 0.5 0 0 989.5 NA 0.0000 9999 460 0 0 0
2019/03/26 07:02:00 BASE 8.04 256 9.41 255 0.5 100 0.5 0 0 989.5 NA 0.0000 9999 490 0 0 0
2019/03/26 07:03:00 BASE 8.08 258 9.93 255 0.5 100 0.5 0 0 989.5 NA 0.0000 9999 490 0 0 0
2019/03/26 07:04:00 BASE 8.69 256 10.13 255 0.5 100 0.5 0 0 989.5 NA 0.0000 9999 490 0 0 0
2019/03/26 07:05:00 BASE 9.36 254 10.39 251 0.5 100 0.5 0 0 989.5 NA 0.0000 9999 520 0 0 0
2019/03/26 07:06:00 BASE 9.21 255 10.39 251 0.5 100 0.5 0 0 989.5 NA 0.0000 9999 560 0 0 0
2019/03/26 07:07:00 BASE 8.67 260 11.21 264 0.4 100 0.4 0 0 989.5 NA 0.0000 9999 560 0 0 0
2019/03/26 07:08:00 BASE 9.07 260 11.21 264 0.4 100 0.4 0 0 989.6 NA 0.0000 9999 560 0 0 0
2019/03/26 07:09:00 BASE 9.44 260 11.21 264 0.4 100 0.4 0 0 989.6 NA 0.0000 9999 690 0 0 0
2019/03/26 07:10:00 BASE 8.86 262 11.21 264 0.4 100 0.4 0 0 989.6 NA 0.0000 9999 620 0 0 0
2019/03/26 07:11:00 BASE 8.52 263 11.21 264 0.3 100 0.3 0 0 989.6 NA 0.0000 9999 790 0 0 0
2019/03/26 07:12:00 BASE 8.19 263 11.21 264 0.3 100 0.3 0 0 989.6 NA 0.0000 9999 890 0 0 0
2019/03/26 07:13:00 BASE 8.15 261 11.21 264 0.3 100 0.3 0 0 989.7 NA 0.0000 9999 890 0 0 0
2019/03/26 07:14:00 BASE 8.57 263 11.21 264 0.3 100 0.3 0 0 989.7 NA 0.0000 9999 590 0 0 0
2019/03/26 07:15:00 BASE 7.74 265 11.21 264 0.3 100 0.3 0 0 989.7 NA 0.0000 9999 520 0 0 0
2019/03/26 07:16:00 BASE 7.21 260 11.21 264 0.3 100 0.3 0 0 989.7 NA 0.0000 9999 560 0 0 0
2019/03/26 07:17:00 BASE 7.76 259 11.11 264 0.3 100 0.3 0 0 989.7 NA 0.0000 9999 460 0 0 0
2019/03/26 07:18:00 BASE 8.98 262 11.57 252 0.3 100 0.3 0 0 989.7 NA 0.0000 9999 460 0 0 0
2019/03/26 07:19:00 BASE 9.49 261 11.57 252 0.3 100 0.3 0 0 989.7 NA 0.0000 9999 560 0 0 0
2019/03/26 07:20:00 BASE 8.63 261 11.57 252 0.3 100 0.3 0 0 989.8 NA 0.0000 9999 490 0 0 0
2019/03/26 07:21:00 BASE 9.28 257 11.57 252 0.2 100 0.2 0 0 989.8 NA 0.0000 9999 520 0 0 0
2019/03/26 07:22:00 BASE 10.23 255 11.78 255 0.2 100 0.2 0 0 989.8 NA 0.0000 9999 460 0 0 0
2019/03/26 07:23:00 BASE 9.58 259 11.78 255 0.2 100 0.2 0 0 989.8 NA 0.0000 9999 560 0 0 0
2019/03/26 07:24:00 BASE 8.98 263 11.78 255 0.2 100 0.2 0 0 989.8 NA 0.0000 9999 720 0 0 0
2019/03/26 07:25:00 BASE 9.01 263 11.78 255 0.2 100 0.2 0 0 989.8 NA 0.0000 9999 720 0 0 0
2019/03/26 07:26:00 BASE 8.01 264 11.78 255 0.2 100 0.2 0 0 989.9 NA 0.0000 9999 520 0 0 0
2019/03/26 07:27:00 BASE 7.81 265 11.78 255 0.2 100 0.2 0 0 989.9 NA 0.0000 9999 460 0 0 0
2019/03/26 07:28:00 BASE 8.23 266 11.78 255 0.2 100 0.2 0 0 989.9 NA 0.0000 9999 560 0 0 0
2019/03/26 07:29:00 BASE 8.23 267 11.78 255 0.2 100 0.2 0 0 989.9 NA 0.0000 9999 590 0 0 0
2019/03/26 07:30:00 BASE 8.31 270 11.78 255 0.2 100 0.2 0 0 989.9 NA 0.0000 9999 590 0 0 0
2019/03/26 07:31:00 BASE 8.36 274 11.78 255 0.2 100 0.2 0 0 989.9 NA 0.0000 9999 620 0 0 0
2019/03/26 07:32:00 BASE 8.54 275 11.37 263 0.1 100 0.1 0 0 989.9 NA 0.0000 9999 520 0 0 0
2019/03/26 07:33:00 BASE 8.69 271 11.37 263 0.1 100 0.1 0 0 989.9 NA 0.0000 9999 560 0 0 0
2019/03/26 07:34:00 BASE 7.40 267 11.37 263 0.1 100 0.1 0 0 989.9 NA 0.0000 9999 490 1180 0 0
2019/03/26 07:35:00 BASE 6.66 263 10.49 272 0.1 100 0.1 0 0 990.0 NA 0.0000 9999 590 0 0 0
2019/03/26 07:36:01 BASE 7.10 259 10.49 272 0.1 100 0.1 0 0 990.1 NA 0.0000 9999 460 0 0 0
2019/03/26 07:37:01 BASE 7.24 258 10.49 272 0.1 100 0.1 0 0 990.1 NA 0.0000 9999 390 0 0 0
2019/03/26 07:38:01 BASE 6.98 264 10.49 272 0.1 100 0.1 0 0 990.1 NA 0.0000 9999 360 0 0 0
2019/03/26 07:39:00 BASE 6.51 276 10.49 272 0.1 100 0.1 0 0 990.1 NA 0.0000 9999 390 0 0 0
2019/03/26 07:40:00 BASE 6.45 276 10.49 272 0.1 100 0.1 0 0 990.1 NA 0.0000 9999 360 0 0 0
2019/03/26 07:41:00 BASE 6.63 275 10.49 272 0.1 100 0.1 0 0 990.1 NA 0.0000 9999 390 0 0 0
2019/03/26 07:42:00 BASE 6.69 277 10.49 272 0.1 100 0.1 0 0 990.1 NA 0.0000 9999 390 0 0 0
2019/03/26 07:43:00 BASE 6.07 271 9.05 252 0.1 100 0.1 0 0 990.1 NA 0.0000 9999 460 0 0 0
2019/03/26 07:44:01 BASE 7.13 265 10.75 250 0.1 100 0.1 0 0 990.1 NA 0.0000 9999 390 0 0 0
2019/03/26 07:45:01 BASE 8.65 259 10.75 250 0.1 100 0.1 0 0 990.1 NA 0.0000 9999 390 0 0 0
2019/03/26 07:46:01 BASE 7.99 257 10.75 250 0.1 100 0.1 0 0 990.0 NA 0.0000 9999 430 0 0 0
2019/03/26 07:47:00 BASE 7.31 256 10.75 250 0.1 100 0.1 0 0 990.0 NA 0.0000 9999 520 0 0 0
2019/03/26 07:48:00 BASE 7.36 256 10.75 250 0.1 100 0.1 0 0 990.1 NA 0.0000 9999 520 0 0 0
2019/03/26 07:49:00 BASE 6.86 259 10.75 250 0.1 100 0.1 0 0 990.1 NA 0.0000 9999 720 0 0 0
2019/03/26 07:50:00 BASE 6.58 259 10.75 250 0.1 100 0.1 0 0 990.2 NA 0.0000 9999 1120 0 0 0
2019/03/26 07:51:00 BASE 6.84 257 10.75 250 0.1 100 0.1 0 0 990.2 NA 0.0000 9999 1180 0 0 0
2019/03/26 07:52:00 BASE 6.54 261 10.75 250 0.1 100 0.1 0 0 990.2 NA 0.0000 9999 1150 0 0 0
2019/03/26 07:53:00 BASE 6.88 260 10.75 250 0.0 100 0.0 0 0 990.2 NA 0.0000 9999 590 0 0 0
2019/03/26 07:54:00 BASE 6.74 263 9.62 265 0.0 100 0.0 0 0 990.2 NA 0.0000 9999 660 0 0 0
2019/03/26 07:55:00 BASE 5.71 272 9.62 265 0.0 100 0.0 0 0 990.2 NA 0.0000 9999 820 0 0 0
2019/03/26 07:56:00 BASE 6.03 272 9.62 265 0.0 100 0.0 0 0 990.2 NA 0.0000 9999 820 0 0 0
2019/03/26 07:57:00 BASE 6.81 276 9.62 265 0.0 100 0.0 0 0 990.2 NA 0.0000 9999 750 0 0 0
2019/03/26 07:58:00 BASE 7.81 279 9.62 265 0.0 100 0.0 0 0 990.2 NA 0.0000 9999 720 0 0 0
2019/03/26 07:59:01 BASE 8.25 276 9.62 265 0.0 100 0.0 0 0 990.2 NA 0.0000 9999 620 0 0 0
2019/03/26 08:00:01 BASE 7.15 277 9.62 265 0.0 100 0.0 0 0 990.2 NA 0.0000 9999 660 0 0 0
2019/03/26 08:01:00 BASE 7.04 276 9.62 265 0.0 100 0.0 0 0 990.2 NA 0.0000 9999 660 0 0 0
2019/03/26 08:02:01 BASE 7.88 274 9.62 265 0.0 100 0.0 0 0 990.2 NA 0.0000 9999 660 0 0 0
2019/03/26 08:03:00 BASE 7.96 276 9.47 282 0.0 100 0.0 0 0 990.2 NA 0.0000 9999 790 0 0 0
2019/03/26 08:04:00 BASE 7.45 277 9.47 282 0.0 100 0.0 0 0 990.2 NA 0.0000 9999 750 0 0 0
2019/03/26 08:05:00 BASE 7.18 279 9.47 282 0.0 100 0.0 0 0 990.2 NA 0.0000 9999 560 0 0 0
2019/03/26 08:06:00 BASE 6.72 280 9.47 282 0.0 100 0.0 0 0 990.1 NA 0.0000 9999 660 0 0 0
2019/03/26 08:07:00 BASE 5.50 277 9.47 282 0.0 100 0.0 0 0 990.1 NA 0.0000 9999 560 0 0 0
2019/03/26 08:08:00 BASE 5.29 272 9.05 268 0.0 100 0.0 0 0 990.1 NA 0.0000 9999 490 0 0 0
2019/03/26 08:09:00 BASE 5.82 262 9.05 268 0.0 100 0.0 0 0 990.1 NA 0.0000 9999 490 0 0 0
2019/03/26 08:10:00 BASE 5.82 258 9.05 268 0.0 100 0.0 0 0 990.2 NA 0.0000 9999 560 0 0 0
2019/03/26 08:11:00 BASE 4.92 265 9.05 268 0.0 100 0.0 0 0 990.2 NA 0.0000 9999 520 0 0 0
2019/03/26 08:12:00 BASE 4.63 268 8.64 268 0.0 100 0.0 0 0 990.3 NA 0.0000 9999 560 0 0 0
2019/03/26 08:13:00 BASE 5.06 266 8.28 277 -0.0 100 -0.0 0 0 990.3 NA 0.0000 9999 790 0 0 0
2019/03/26 08:14:01 BASE 4.87 262 8.28 277 -0.0 100 -0.0 0 0 990.4 NA 0.0000 9999 790 0 0 0
2019/03/26 08:15:00 BASE 5.04 261 6.94 278 -0.0 100 -0.0 0 0 990.4 NA 0.0000 9999 720 0 0 0
2019/03/26 08:16:00 BASE 4.82 262 6.94 278 -0.0 100 -0.0 0 0 990.3 NA 0.0000 9999 690 0 0 0
2019/03/26 08:17:00 BASE 4.76 261 6.94 278 -0.0 100 -0.0 0 0 990.3 NA 0.0000 9999 520 0 0 0
2019/03/26 08:18:00 BASE 4.55 264 6.84 252 -0.0 100 -0.0 0 0 990.3 NA 0.0000 9999 390 0 0 0
2019/03/26 08:19:00 BASE 3.47 266 6.84 252 -0.0 100 -0.0 0 0 990.3 NA 0.0000 9999 0 0 0 950
2019/03/26 08:20:00 BASE 3.83 269 6.84 252 -0.0 100 -0.0 0 0 990.3 NA 0.0000 9999 330 0 0 0
2019/03/26 08:21:00 BASE 4.85 272 6.84 252 -0.0 100 -0.0 0 0 990.4 NA 0.0000 9999 390 0 0 0
2019/03/26 08:22:00 BASE 5.05 265 6.84 252 -0.0 100 -0.0 0 0 990.4 NA 0.0000 9999 430 0 0 0
2019/03/26 08:23:00 BASE 5.06 258 6.84 252 -0.1 100 -0.1 0 0 990.4 NA 0.0000 9999 720 0 0 0
2019/03/26 08:24:01 BASE 5.40 259 7.31 254 -0.1 100 -0.1 0 0 990.4 NA 0.0000 9999 890 0 0 0
2019/03/26 08:25:01 BASE 5.57 259 7.31 254 -0.1 100 -0.1 0 0 990.4 NA 0.0000 9999 750 1210 0 0
2019/03/26 08:26:01 BASE 5.92 260 7.31 254 -0.1 100 -0.1 0 0 990.4 NA 0.0000 9999 690 0 0 0
2019/03/26 08:27:00 BASE 6.58 258 7.31 254 -0.1 100 -0.1 0 0 990.4 NA 0.0000 9999 620 0 0 0
2019/03/26 08:28:01 BASE 6.33 255 7.31 254 -0.1 100 -0.1 0 0 990.4 NA 0.0000 9999 360 0 0 0
2019/03/26 08:29:00 BASE 5.03 260 7.31 254 -0.1 100 -0.1 0 0 990.4 NA 0.0000 9999 0 0 0 1380
2019/03/26 08:30:00 BASE 4.28 260 7.31 254 -0.1 100 -0.1 0 0 990.4 NA 0.0000 9999 390 0 0 0
2019/03/26 08:31:00 BASE 4.37 258 7.31 254 -0.1 100 -0.1 0 0 990.4 NA 0.0000 9999 490 0 0 0
2019/03/26 08:32:00 BASE 4.59 255 7.31 254 -0.1 100 -0.1 0 0 990.4 NA 0.0000 9999 430 0 0 0
2019/03/26 08:33:00 BASE 5.58 254 7.31 254 -0.1 100 -0.1 0 0 990.4 NA 0.0000 9999 360 0 0 0
2019/03/26 08:34:00 BASE 6.21 258 7.20 255 -0.1 100 -0.1 0 0 990.5 NA 0.0000 9999 0 0 0 1410
2019/03/26 08:35:00 BASE 6.54 258 7.92 256 -0.1 100 -0.1 0 0 990.5 NA 0.0000 9999 490 0 0 0
2019/03/26 08:36:00 BASE 6.84 256 7.92 256 -0.1 100 -0.1 0 0 990.5 NA 0.0000 9999 430 0 0 0
2019/03/26 08:37:00 BASE 6.37 254 7.92 256 -0.2 100 -0.2 0 0 990.5 NA 0.0000 9999 620 0 0 0
2019/03/26 08:38:00 BASE 6.42 257 8.54 257 -0.2 100 -0.2 0 0 990.5 NA 0.0000 UP 9999 560 0 0 0
2019/03/26 08:39:00 BASE 6.36 264 8.54 257 -0.2 100 -0.2 0 0 990.5 NA 0.0000 UP 9999 390 0 0 0
2019/03/26 08:40:00 BASE 6.55 270 8.54 257 -0.2 100 -0.2 0 0 990.5 NA 0.0000 UP 8000 0 0 0 1280
2019/03/26 08:41:00 BASE 6.64 266 9.83 254 -0.2 100 -0.2 0 0 990.5 NA 0.0000 UP 9000 0 0 0 1410
2019/03/26 08:42:00 BASE 7.26 259 9.98 267 -0.2 100 -0.2 0 0 990.6 NA 0.0000 UP 9999 460 0 0 0
2019/03/26 08:43:00 BASE 8.20 260 9.98 267 -0.2 100 -0.2 0 0 990.5 NA 0.0000 UP 9999 430 0 0 0
2019/03/26 08:44:00 BASE 8.42 260 9.98 267 -0.3 100 -0.3 0 0 990.5 NA 0.0000 UP 9999 390 0 0 0
2019/03/26 08:45:00 BASE 8.59 257 9.98 267 -0.3 100 -0.3 0 0 990.5 NA 0.0000 UP 9999 0 0 0 1180
2019/03/26 08:46:00 BASE 8.18 257 9.98 267 -0.3 100 -0.3 0 0 990.5 NA 0.0000 UP 9999 300 0 0 0
2019/03/26 08:47:00 BASE 8.00 257 9.98 267 -0.3 100 -0.3 0 0 990.4 NA 0.0000 UP 9999 460 0 0 0
2019/03/26 08:48:00 BASE 7.81 259 9.98 267 -0.4 100 -0.4 0 0 990.4 NA 0.0000 UP 9999 590 0 0 0
2019/03/26 08:49:00 BASE 7.95 262 9.98 267 -0.4 100 -0.4 0 0 990.4 NA 0.0000 UP 9999 720 0 0 0
2019/03/26 08:50:00 BASE 7.98 258 9.98 267 -0.4 100 -0.4 0 0 990.4 NA 0.0000 UP 9999 690 0 0 0
2019/03/26 08:51:00 BASE 7.25 257 9.98 267 -0.4 100 -0.4 0 0 990.4 NA 0.0000 UP 9999 690 0 0 0
2019/03/26 08:52:00 BASE 7.31 256 9.77 254 -0.4 100 -0.4 0 0 990.5 NA 0.0000 UP 9999 660 0 0 0
2019/03/26 08:53:00 BASE 7.63 256 9.77 254 -0.4 100 -0.4 0 0 990.4 NA 0.0000 UP 9999 720 0 0 0
2019/03/26 08:54:00 BASE 7.36 253 9.41 254 -0.4 100 -0.4 0 0 990.4 NA 0.0000 UP 9999 660 0 0 0
2019/03/26 08:55:00 BASE 6.66 252 9.41 254 -0.4 100 -0.4 0 0 990.4 NA 0.0000 9999 660 0 0 0
2019/03/26 08:56:00 BASE 5.90 249 9.31 265 -0.4 100 -0.4 0 0 990.4 NA 0.0000 9999 820 0 0 0
2019/03/26 08:57:00 BASE 5.80 248 9.31 265 -0.4 100 -0.4 0 0 990.4 NA 0.0000 9999 950 0 0 0
2019/03/26 08:58:00 BASE 6.10 252 9.31 265 -0.4 100 -0.4 0 0 990.4 NA 0.0000 9999 890 0 0 0
2019/03/26 08:59:00 BASE 7.35 255 9.21 256 -0.4 100 -0.4 0 0 990.4 NA 0.0000 9999 790 0 0 0
2019/03/26 09:00:00 BASE 7.93 256 9.21 256 -0.4 100 -0.4 0 0 990.4 NA 0.0000 9999 820 0 0 0
2019/03/26 09:01:00 BASE 7.37 254 9.21 256 -0.4 100 -0.4 0 0 990.4 NA 0.0000 9999 720 0 0 0
2019/03/26 09:02:00 BASE 7.12 251 9.21 256 -0.4 100 -0.4 0 0 990.4 NA 0.0000 9999 660 0 0 0
2019/03/26 09:03:00 BASE 7.33 250 9.21 256 -0.4 100 -0.4 0 0 990.4 NA 0.0000 9999 620 0 0 0
2019/03/26 09:04:00 BASE 6.92 251 9.21 256 -0.5 100 -0.5 0 0 990.4 NA 0.0000 9999 620 0 0 0
2019/03/26 09:05:00 BASE 6.54 252 9.21 256 -0.5 100 -0.5 0 0 990.4 NA 0.0000 9999 620 0 0 0
2019/03/26 09:06:00 BASE 7.17 252 9.21 256 -0.5 100 -0.5 0 0 990.3 NA 0.0000 9999 590 0 0 0
2019/03/26 09:07:00 BASE 6.59 250 9.21 256 -0.5 100 -0.5 0 0 990.3 NA 0.0000 9999 590 0 0 0
2019/03/26 09:08:00 BASE 6.23 251 9.21 256 -0.5 100 -0.5 0 0 990.3 NA 0.0000 9999 620 0 0 0
2019/03/26 09:09:00 BASE 5.98 254 8.33 250 -0.5 100 -0.5 0 0 990.4 NA 0.0000 9999 660 0 0 0
2019/03/26 09:10:00 BASE 5.46 257 8.33 250 -0.5 100 -0.5 0 0 990.3 NA 0.0000 9999 660 0 0 0
2019/03/26 09:11:00 BASE 5.79 257 8.33 250 -0.5 100 -0.5 0 0 990.4 NA 0.0000 9999 590 0 0 0
2019/03/26 09:12:00 BASE 5.87 260 8.33 250 -0.5 100 -0.5 0 0 990.4 NA 0.0000 9999 560 0 0 0
2019/03/26 09:13:00 BASE 5.14 265 7.92 261 -0.5 100 -0.5 0 0 990.4 NA 0.0000 9999 390 0 0 0
2019/03/26 09:14:00 BASE 4.43 267 7.92 261 -0.5 100 -0.5 0 0 990.4 NA 0.0000 9999 360 0 0 0
2019/03/26 09:15:00 BASE 4.73 264 7.82 247 -0.5 100 -0.5 0 0 990.4 NA 0.0000 9999 390 0 0 0
2019/03/26 09:16:00 BASE 5.32 260 7.41 246 -0.5 100 -0.5 0 0 990.4 NA 0.0000 9999 0 0 0 1150
2019/03/26 09:17:00 BASE 5.29 261 7.36 253 -0.5 100 -0.5 0 0 990.4 NA 0.0000 9000 0 0 0 850
2019/03/26 09:18:00 BASE 5.59 263 7.36 256 -0.5 100 -0.5 0 0 990.4 NA 0.0000 UP 7000 0 0 0 1210
2019/03/26 09:19:00 BASE 5.76 264 7.36 256 -0.5 100 -0.5 0 0 990.4 NA 0.0000 UP 6000 0 0 0 1280
2019/03/26 09:20:00 BASE 5.46 266 7.36 256 -0.5 100 -0.5 0 0 990.4 NA 0.0000 UP BR 5000 0 0 0 1410
2019/03/26 09:21:00 BASE 5.01 267 7.36 256 -0.6 100 -0.6 0 0 990.4 NA 0.0000 UP BR 5000 0 0 0 1380
2019/03/26 09:22:00 BASE 4.17 264 7.36 256 -0.6 100 -0.6 0 0 990.4 NA 0.0000 UP BR 5000 0 0 0 1280
2019/03/26 09:23:00 BASE 4.04 265 7.36 256 -0.6 100 -0.6 0 0 990.4 NA 0.0000 UP BR 5000 0 0 0 1380
2019/03/26 09:24:00 BASE 3.68 269 7.36 256 -0.6 100 -0.6 0 0 990.4 NA 0.0000 UP BR 5000 0 0 0 1250
2019/03/26 09:25:00 BASE 2.90 267 7.36 256 -0.6 100 -0.6 0 0 990.4 NA 0.0000 UP BR 7000 0 0 0 1080
2019/03/26 09:26:00 BASE 2.77 267 7.36 256 -0.6 100 -0.6 0 0 990.4 NA 0.0000 UP BR 6000 0 0 0 1180
2019/03/26 09:27:00 BASE 3.35 266 7.36 256 -0.6 100 -0.6 0 0 990.4 NA 0.0000 UP BR 7000 0 0 0 1210
2019/03/26 09:28:00 BASE 3.57 265 6.84 259 -0.6 100 -0.6 0 0 990.4 NA 0.0000 UP BR 7000 0 0 0 1250
2019/03/26 09:29:00 BASE 3.16 265 6.84 259 -0.6 100 -0.6 0 0 990.4 NA 0.0000 UP BR 7000 0 0 0 1380
2019/03/26 09:30:00 BASE 3.50 261 5.50 267 -0.6 100 -0.6 0 0 990.4 NA 0.0000 UP BR 6000 0 0 0 1350
2019/03/26 09:31:00 BASE 3.95 268 5.14 265 -0.6 100 -0.6 0 0 990.4 NA 0.0000 UP BR 4200 0 0 0 1380
2019/03/26 09:32:00 BASE 3.88 273 5.14 265 -0.6 100 -0.6 0 0 990.4 NA 0.0000 UP BR 4400 0 0 0 1510
2019/03/26 09:33:08 BASE 3.94 274 5.25 284 -0.6 100 -0.6 0 0 990.3 NA 0.0000 UP BR 3900 0 0 0 1050
2019/03/26 09:34:00 BASE 3.80 271 5.25 284 -0.6 100 -0.6 0 0 990.3 NA 0.0000 UP BR 3400 0 0 0 1020
2019/03/26 09:35:00 BASE 4.18 272 6.48 278 -0.6 100 -0.6 0 0 990.3 NA 0.0000 UP BR 5000 0 0 0 920
2019/03/26 09:36:00 BASE 4.99 281 6.48 278 -0.6 100 -0.6 0 0 990.3 NA 0.0000 UP BR 9000 460 0 0 0
2019/03/26 09:37:00 BASE 5.08 282 6.48 278 -0.6 100 -0.6 0 0 990.3 NA 0.0000 UP BR 9000 430 0 0 0
2019/03/26 09:38:00 BASE 4.71 277 6.48 278 -0.6 100 -0.6 0 0 990.3 NA 0.0000 UP BR 9000 360 0 0 0
2019/03/26 09:39:00 BASE 4.29 273 6.48 278 -0.6 100 -0.6 0 0 990.3 NA 0.0000 UP BR 9000 0 0 0 1180
2019/03/26 09:40:00 BASE 4.17 269 6.48 278 -0.6 100 -0.6 0 0 990.3 NA 0.0000 UP BR 8000 0 0 0 1180
2019/03/26 09:41:00 BASE 4.30 265 6.48 278 -0.6 100 -0.6 0 0 990.3 NA 0.0000 UP BR 7000 0 0 0 980
2019/03/26 09:42:00 BASE 4.23 265 6.48 278 -0.6 100 -0.6 0 0 990.3 NA 0.0000 UP BR 7000 460 0 0 0
2019/03/26 09:43:00 BASE 4.00 264 6.48 278 -0.6 100 -0.6 0 0 990.3 NA 0.0000 UP BR 7000 390 0 0 0
2019/03/26 09:44:00 BASE 4.16 260 6.48 278 -0.6 100 -0.6 0 0 990.3 NA 0.0000 UP BR 7000 430 0 0 0
2019/03/26 09:45:00 BASE 4.02 264 6.17 278 -0.7 100 -0.7 0 0 990.3 NA 0.0000 UP BR 7000 430 0 0 0
2019/03/26 09:46:00 BASE 4.15 269 5.81 264 -0.7 100 -0.7 0 0 990.3 NA 0.0000 UP BR 7000 490 0 0 0
2019/03/26 09:47:00 BASE 4.68 273 5.81 264 -0.7 100 -0.7 0 0 990.3 NA 0.0000 UP BR 7000 300 0 0 0
2019/03/26 09:48:00 BASE 4.61 276 5.81 264 -0.7 100 -0.7 0 0 990.3 NA 0.0000 UP BR 7000 460 0 0 0
2019/03/26 09:49:00 BASE 4.59 277 5.81 264 -0.7 100 -0.7 0 0 990.3 NA 0.0000 BR 9000 390 0 0 0
2019/03/26 09:50:00 BASE 4.35 277 5.81 264 -0.7 100 -0.7 0 0 990.3 NA 0.0000 BR 9999 330 0 0 0
2019/03/26 09:51:00 BASE 4.15 281 5.81 264 -0.7 100 -0.7 0 0 990.3 NA 0.0000 BR 9999 330 0 0 0
2019/03/26 09:52:00 BASE 4.16 282 5.25 257 -0.7 100 -0.7 0 0 990.3 NA 0.0000 BR 9999 0 0 0 1410
2019/03/26 09:53:00 BASE 4.02 283 5.25 257 -0.7 100 -0.7 0 0 990.4 NA 0.0000 -SN BR 4500 0 0 0 1670
2019/03/26 09:54:00 BASE 3.96 283 5.25 257 -0.7 100 -0.7 0 0 990.4 NA 0.0000 -SN BR 3800 0 0 0 1940
2019/03/26 09:55:00 BASE 3.75 277 5.25 257 -0.7 100 -0.7 0 0 990.4 NA 0.0000 -SN BR 4900 0 0 0 2000
2019/03/26 09:56:00 BASE 3.41 276 5.14 279 -0.7 100 -0.7 0 0 990.4 NA 0.0000 -SN BR 7000 0 0 0 2000
2019/03/26 09:57:00 BASE 3.03 277 5.14 279 -0.7 100 -0.7 0 0 990.4 NA 0.0000 -SN BR 9999 1410 0 0 0
2019/03/26 09:58:00 BASE 2.94 276 5.14 279 -0.8 100 -0.8 0 0 990.4 NA 0.0000 -SN BR 9999 460 1380 0 0
2019/03/26 09:59:00 BASE 2.94 273 4.89 286 -0.8 100 -0.8 0 0 990.4 NA 0.0000 -SN BR 9999 1380 0 0 0
2019/03/26 10:00:00 BASE 2.87 277 4.89 286 -0.8 100 -0.8 0 0 990.4 NA 0.0000 -SN BR 9999 1380 0 0 0
2019/03/26 10:01:00 BASE 2.78 282 4.68 282 -0.8 100 -0.8 0 0 990.4 NA 0.0000 -SN BR 9999 1440 0 0 0
2019/03/26 10:02:00 BASE 2.68 283 4.58 282 -0.8 100 -0.8 0 0 990.4 NA 0.0000 -SN BR 9999 1840 0 0 0
2019/03/26 10:03:00 BASE 2.52 284 4.42 281 -0.8 100 -0.8 0 0 990.4 NA 0.0000 -SN BR 9999 1900 0 0 0
2019/03/26 10:04:00 BASE 2.66 286 4.01 277 -0.8 100 -0.8 0 0 990.4 NA 0.0000 -SN 9999 1740 0 0 0
2019/03/26 10:05:00 BASE 2.99 285 4.01 277 -0.8 100 -0.8 0 0 990.4 NA 0.0000 -SN 9999 1770 0 0 0
2019/03/26 10:06:00 BASE 3.29 280 4.22 274 -0.7 100 -0.7 0 0 990.4 NA 0.0000 -SN 9999 1570 0 0 0
2019/03/26 10:07:00 BASE 3.50 276 4.22 274 -0.7 100 -0.7 0 0 990.4 NA 0.0000 9999 1610 0 0 0
2019/03/26 10:08:00 BASE 3.07 272 4.22 274 -0.7 100 -0.7 0 0 990.4 NA 0.0000 9999 920 1570 0 0
2019/03/26 10:09:00 BASE 2.77 273 4.22 274 -0.7 100 -0.7 0 0 990.4 NA 0.0000 9999 590 0 0 0
2019/03/26 10:10:00 BASE 2.77 274 4.22 274 -0.7 100 -0.7 0 0 990.4 NA 0.0000 9999 520 0 0 0
2019/03/26 10:11:00 BASE 2.61 276 4.22 274 -0.7 100 -0.7 1 0 990.3 NA 0.0000 9999 720 0 0 0
2019/03/26 10:12:00 BASE 2.52 282 4.22 274 -0.6 100 -0.6 1 0 990.3 NA 0.0000 9999 660 0 0 0
2019/03/26 10:13:00 BASE 2.96 286 4.32 287 -0.6 100 -0.6 1 0 990.3 NA 0.0000 9999 560 0 0 0
2019/03/26 10:14:00 BASE 3.37 300 4.32 287 -0.6 100 -0.6 1 0 990.3 NA 0.0000 9999 560 0 0 0
2019/03/26 10:15:00 BASE 2.71 310 4.32 287 -0.6 100 -0.6 1 0 990.3 NA 0.0000 9999 560 1610 0 0
2019/03/26 10:16:00 BASE 2.33 300 4.32 287 -0.6 100 -0.6 1 0 990.3 NA 0.0000 9999 520 1570 0 0
2019/03/26 10:17:00 BASE 2.71 293 4.32 287 -0.6 100 -0.6 1 0 990.3 NA 0.0000 9999 490 1510 0 0
2019/03/26 10:18:00 BASE 2.89 284 4.32 287 -0.6 100 -0.6 1 0 990.2 NA 0.0000 9999 560 1480 0 0
2019/03/26 10:19:00 BASE 2.84 276 4.32 287 -0.7 100 -0.7 1 0 990.2 NA 0.0000 9999 520 0 0 0
2019/03/26 10:20:00 BASE 2.70 277 4.32 287 -0.7 100 -0.7 1 0 990.2 NA 0.0000 9999 520 0 0 0
2019/03/26 10:21:00 BASE 2.31 281 4.32 287 -0.7 100 -0.7 2 0 990.2 NA 0.0000 9999 560 0 0 0
2019/03/26 10:22:00 BASE 2.26 282 4.32 287 -0.7 100 -0.7 2 0 990.1 NA 0.0000 9999 590 0 0 0
2019/03/26 10:23:00 BASE 2.68 279 4.12 305 -0.7 100 -0.7 2 0 990.2 NA 0.0000 9999 660 0 0 0
2019/03/26 10:24:00 BASE 2.84 278 3.70 283 -0.7 100 -0.7 2 0 990.2 NA 0.0000 9999 660 0 0 0
2019/03/26 10:25:00 BASE 2.97 277 3.70 283 -0.7 100 -0.7 2 0 990.2 NA 0.0000 9999 560 0 0 0
2019/03/26 10:26:00 BASE 2.96 277 3.70 283 -0.7 100 -0.7 2 0 990.2 NA 0.0000 9999 560 0 0 0
2019/03/26 10:27:00 BASE 2.87 286 3.50 269 -0.7 100 -0.7 2 0 990.2 NA 0.0000 9999 590 0 0 0
2019/03/26 10:28:00 BASE 2.80 294 3.50 269 -0.7 100 -0.7 2 0 990.2 NA 0.0000 9999 560 0 0 0
2019/03/26 10:29:00 BASE 2.73 292 3.50 269 -0.7 100 -0.7 2 0 990.3 NA 0.0000 9999 590 0 0 0
2019/03/26 10:30:00 BASE 2.62 293 3.50 269 -0.7 100 -0.7 3 0 990.3 NA 0.0000 9999 590 0 0 0
2019/03/26 10:31:00 BASE 2.65 301 3.50 269 -0.7 100 -0.7 3 0 990.3 NA 0.0000 9999 560 0 0 0
2019/03/26 10:32:00 BASE 2.96 309 3.55 315 -0.6 100 -0.6 3 0 990.3 NA 0.0000 9999 560 0 0 0
2019/03/26 10:33:00 BASE 3.33 312 4.01 318 -0.6 100 -0.6 3 0 990.3 NA 0.0000 9999 560 0 0 0
2019/03/26 10:34:00 BASE 3.73 313 4.37 311 -0.6 100 -0.6 3 0 990.3 NA 0.0000 9999 560 0 0 0
2019/03/26 10:35:00 BASE 3.94 310 4.37 311 -0.6 100 -0.6 3 0 990.3 NA 0.0000 9999 520 0 0 0
2019/03/26 10:36:00 BASE 3.81 304 4.37 311 -0.6 100 -0.6 3 0 990.3 NA 0.0000 9999 560 0 0 0
2019/03/26 10:37:00 BASE 3.66 303 4.37 311 -0.6 100 -0.6 4 0 990.2 NA 0.0000 9999 590 0 0 0
2019/03/26 10:38:00 BASE 3.79 310 4.37 311 -0.6 100 -0.6 4 0 990.2 NA 0.0000 9999 620 1540 0 0
2019/03/26 10:39:00 BASE 3.87 319 4.37 311 -0.6 100 -0.6 4 0 990.2 NA 0.0000 9999 520 0 0 0
2019/03/26 10:40:00 BASE 3.95 324 4.48 321 -0.6 100 -0.6 4 0 990.2 NA 0.0000 9999 1570 0 0 0
2019/03/26 10:41:00 BASE 4.17 326 4.48 321 -0.6 100 -0.6 4 0 990.2 NA 0.0000 9999 590 1480 0 0
2019/03/26 10:42:00 BASE 4.34 330 4.89 339 -0.6 100 -0.6 5 0 990.2 NA 0.0000 9999 720 0 0 0
2019/03/26 10:43:00 BASE 4.54 338 4.89 341 -0.6 100 -0.6 5 0 990.2 NA 0.0000 9999 620 0 0 0
2019/03/26 10:44:00 BASE 4.56 340 4.94 335 -0.6 100 -0.6 5 0 990.2 NA 0.0000 9999 520 0 0 0
2019/03/26 10:45:00 BASE 4.40 341 4.94 335 -0.6 100 -0.6 5 0 990.3 NA 0.0000 9999 490 0 0 0
2019/03/26 10:46:00 BASE 4.40 343 5.04 342 -0.6 100 -0.6 6 0 990.3 NA 0.0000 9999 520 0 0 0
2019/03/26 10:47:00 BASE 4.64 343 5.25 348 -0.6 100 -0.6 7 0 990.3 NA 0.0000 9999 560 0 0 0
2019/03/26 10:48:00 BASE 4.86 345 5.25 348 -0.6 100 -0.6 8 0 990.3 NA 0.0000 9999 490 0 0 0
2019/03/26 10:49:00 BASE 4.95 347 5.50 348 -0.6 100 -0.6 10 0 990.3 NA 0.0000 9999 460 0 0 0
2019/03/26 10:50:00 BASE 4.97 347 5.50 348 -0.6 100 -0.6 11 0 990.3 NA 0.0000 9999 390 0 0 0
2019/03/26 10:51:00 BASE 4.72 348 5.50 348 -0.7 100 -0.7 11 0 990.2 NA 0.0000 9999 620 1280 0 0
2019/03/26 10:52:00 BASE 4.32 349 5.50 348 -0.7 100 -0.7 12 0 990.2 NA 0.0000 9999 1210 0 0 0
2019/03/26 10:53:00 BASE 4.03 349 5.50 348 -0.8 100 -0.8 12 0 990.2 NA 0.0000 9999 1380 0 0 0
2019/03/26 10:54:00 BASE 3.80 347 5.50 348 -0.8 100 -0.8 13 0 990.2 NA 0.0000 9999 1250 0 0 0
2019/03/26 10:55:00 BASE 3.64 346 5.50 348 -0.8 100 -0.8 13 0 990.2 NA 0.0000 9999 1150 1610 0 0
2019/03/26 10:56:00 BASE 3.63 345 5.50 348 -0.8 100 -0.8 14 0 990.2 NA 0.0000 9999 1440 0 0 0
2019/03/26 10:57:00 BASE 3.74 343 5.50 348 -0.8 100 -0.8 15 0 990.2 NA 0.0000 9999 1150 0 0 0
2019/03/26 10:58:00 BASE 3.82 341 5.50 348 -0.8 100 -0.8 17 0 990.2 NA 0.0000 9999 1210 0 0 0
2019/03/26 10:59:00 BASE 3.91 340 5.25 343 -0.8 100 -0.8 18 0 990.2 NA 0.0000 9999 1150 0 0 0
2019/03/26 11:00:00 BASE 3.87 339 4.68 346 -0.8 100 -0.8 20 0 990.2 NA 0.0000 9999 1120 0 0 0
2019/03/26 11:01:00 BASE 3.94 335 4.42 332 -0.8 100 -0.8 21 0 990.2 NA 0.0000 9999 1120 0 0 0
2019/03/26 11:02:00 BASE 4.22 332 4.73 329 -0.8 100 -0.8 22 0 990.2 NA 0.0000 9999 1080 0 0 0
2019/03/26 11:03:00 BASE 4.30 332 4.73 329 -0.8 100 -0.8 22 0 990.2 NA 0.0000 9999 1120 0 0 0
2019/03/26 11:04:00 BASE 4.19 334 4.73 329 -0.8 100 -0.8 21 0 990.3 NA 0.0000 9999 1350 0 0 0
2019/03/26 11:05:00 BASE 4.15 337 4.73 329 -0.8 100 -0.8 21 0 990.2 NA 0.0000 9999 1210 0 0 0
2019/03/26 11:06:00 BASE 4.02 337 4.73 329 -0.8 100 -0.8 21 0 990.2 NA 0.0000 9999 1250 0 0 0
2019/03/26 11:07:00 BASE 4.06 335 4.73 329 -0.8 100 -0.8 21 0 990.2 NA 0.0000 9999 1350 0 0 0
2019/03/26 11:08:00 BASE 4.20 335 4.73 329 -0.8 100 -0.8 22 0 990.2 NA 0.0000 9999 1210 0 0 0
2019/03/26 11:09:00 BASE 4.17 336 4.73 329 -0.8 100 -0.8 22 0 990.2 NA 0.0000 9999 1280 0 0 0
2019/03/26 11:10:00 BASE 4.15 336 4.73 329 -0.8 100 -0.8 22 0 990.2 NA 0.0000 9999 1380 0 0 0
2019/03/26 11:11:00 BASE 4.15 338 4.73 329 -0.7 100 -0.7 22 0 990.2 NA 0.0000 9999 750 1380 0 0
2019/03/26 11:12:00 BASE 4.05 337 4.68 330 -0.7 100 -0.7 23 0 990.2 NA 0.0000 9999 750 1380 0 0
2019/03/26 11:13:00 BASE 4.19 336 4.78 336 -0.7 100 -0.7 24 0 990.2 NA 0.0000 9999 850 1480 0 0
2019/03/26 11:14:00 BASE 4.62 335 5.04 338 -0.7 100 -0.7 24 0 990.2 NA 0.0000 9999 620 1050 0 0
2019/03/26 11:15:00 BASE 4.52 337 5.04 338 -0.7 100 -0.7 24 0 990.2 NA 0.0000 9999 980 0 0 0
2019/03/26 11:16:00 BASE 4.36 336 5.04 338 -0.7 100 -0.7 24 0 990.2 NA 0.0000 9999 520 1150 0 0
2019/03/26 11:17:00 BASE 4.46 333 5.04 338 -0.7 100 -0.7 23 0 990.2 NA 0.0000 9999 490 1310 0 0
2019/03/26 11:18:00 BASE 4.45 330 5.04 338 -0.7 100 -0.7 24 0 990.2 NA 0.0000 9999 520 1180 0 0
2019/03/26 11:19:00 BASE 4.15 329 5.04 338 -0.7 100 -0.7 24 0 990.2 NA 0.0000 9999 620 1250 0 0
2019/03/26 11:20:00 BASE 3.98 329 5.04 338 -0.7 100 -0.7 26 0 990.2 NA 0.0000 9999 560 0 0 0
2019/03/26 11:21:00 BASE 4.18 328 5.04 338 -0.7 100 -0.7 27 0 990.2 NA 0.0000 9999 590 0 0 0
2019/03/26 11:22:00 BASE 4.20 325 5.04 338 -0.7 100 -0.7 28 0 990.2 NA 0.0000 9999 590 0 0 0
2019/03/26 11:23:00 BASE 3.90 327 5.04 338 -0.7 100 -0.7 27 0 990.2 NA 0.0000 9999 590 1050 0 0
2019/03/26 11:24:00 BASE 3.47 334 4.99 329 -0.7 100 -0.7 28 0 990.2 NA 0.0000 9999 560 0 0 0
2019/03/26 11:25:00 BASE 3.15 341 4.99 329 -0.7 100 -0.7 30 0 990.2 NA 0.0000 9999 660 1120 0 0
2019/03/26 11:26:00 BASE 3.20 344 4.89 331 -0.6 100 -0.6 32 0 990.2 NA 0.0000 9999 590 1080 0 0
2019/03/26 11:27:00 BASE 3.30 347 4.78 325 -0.6 100 -0.6 34 0 990.2 NA 0.0000 9999 560 0 0 0
2019/03/26 11:28:00 BASE 3.22 348 4.58 327 -0.7 100 -0.7 35 0 990.2 NA 0.0000 9999 560 950 0 0
2019/03/26 11:29:00 BASE 3.32 347 4.58 327 -0.7 100 -0.7 36 0 990.2 NA 0.0000 9999 590 0 0 0
2019/03/26 11:30:00 BASE 3.59 352 4.58 327 -0.7 100 -0.7 37 0 990.1 NA 0.0000 9999 720 0 0 0
2019/03/26 11:31:00 BASE 3.72 354 4.32 322 -0.7 100 -0.7 38 0 990.1 NA 0.0000 9999 620 0 0 0
2019/03/26 11:32:00 BASE 3.51 355 4.12 352 -0.7 100 -0.7 39 0 990.1 NA 0.0000 9999 520 1250 0 0
2019/03/26 11:33:00 BASE 3.40 351 4.12 352 -0.7 100 -0.7 40 0 990.1 NA 0.0000 9999 590 0 0 0
2019/03/26 11:34:00 BASE 3.44 345 4.12 352 -0.7 100 -0.7 40 0 990.1 NA 0.0000 9999 520 0 0 0
2019/03/26 11:35:00 BASE 3.50 346 4.12 352 -0.7 100 -0.7 39 0 990.1 NA 0.0000 9999 490 0 0 0
2019/03/26 11:36:00 BASE 3.63 349 4.12 352 -0.7 100 -0.7 38 0 990.1 NA 0.0000 9999 520 0 0 0
2019/03/26 11:37:00 BASE 3.61 350 4.12 352 -0.7 100 -0.7 37 0 990.1 NA 0.0000 9999 490 0 0 0
2019/03/26 11:38:00 BASE 3.60 350 4.06 345 -0.7 100 -0.7 37 0 990.1 NA 0.0000 9999 520 0 0 0
2019/03/26 11:39:00 BASE 3.55 351 4.01 352 -0.7 100 -0.7 39 0 990.1 NA 0.0000 9999 520 0 0 0
2019/03/26 11:40:00 BASE 3.57 351 4.22 351 -0.7 100 -0.7 43 0 990.1 NA 0.0000 9999 660 0 0 0
2019/03/26 11:41:00 BASE 3.72 349 4.22 351 -0.7 100 -0.7 47 0 990.1 NA 0.0000 9999 720 0 0 0
2019/03/26 11:42:00 BASE 3.94 348 4.42 344 -0.7 100 -0.7 49 0 990.0 NA 0.0000 9999 920 0 0 0
2019/03/26 11:43:00 BASE 4.11 348 4.48 350 -0.7 100 -0.7 49 0 989.9 NA 0.0000 9999 790 0 0 0
2019/03/26 11:44:00 BASE 3.85 350 4.48 350 -0.7 100 -0.7 48 0 989.9 NA 0.0000 9999 620 0 0 0
2019/03/26 11:45:00 BASE 3.38 352 4.48 350 -0.7 100 -0.7 48 0 989.9 NA 0.0000 9999 620 0 0 0
2019/03/26 11:46:00 BASE 2.97 342 4.48 350 -0.7 100 -0.7 49 0 989.9 NA 0.0000 9999 820 0 0 0
2019/03/26 11:47:00 BASE 3.29 318 4.48 350 -0.7 100 -0.7 48 0 989.9 NA 0.0000 9999 790 0 0 0
2019/03/26 11:48:00 BASE 3.63 312 4.48 350 -0.7 100 -0.7 48 0 989.9 NA 0.0000 9999 890 0 0 0
2019/03/26 11:49:00 BASE 3.15 328 4.48 350 -0.7 100 -0.7 48 0 989.9 NA 0.0000 9999 820 0 0 0
2019/03/26 11:50:00 BASE 2.90 330 4.48 350 -0.7 100 -0.7 49 0 989.9 NA 0.0000 9999 890 0 0 0
2019/03/26 11:51:00 BASE 3.00 330 4.48 350 -0.7 100 -0.7 51 0 989.9 NA 0.0000 9999 890 0 0 0
2019/03/26 11:52:00 BASE 3.11 336 4.48 350 -0.7 100 -0.7 52 0 989.9 NA 0.0000 9999 750 0 0 0
2019/03/26 11:53:00 BASE 3.60 341 4.42 288 -0.7 100 -0.7 52 0 989.8 NA 0.0000 9999 690 1120 0 0
2019/03/26 11:54:00 BASE 5.03 341 6.69 338 -0.7 100 -0.7 50 0 989.8 NA 0.0000 9999 790 0 0 0
2019/03/26 11:55:00 BASE 5.53 340 6.69 338 -0.7 100 -0.7 49 0 989.8 NA 0.0000 9999 850 0 0 0
2019/03/26 11:56:00 BASE 4.78 338 6.69 338 -0.7 100 -0.7 49 0 989.8 NA 0.0000 9999 820 0 0 0
2019/03/26 11:57:00 BASE 4.44 338 6.69 338 -0.7 100 -0.7 51 0 989.8 NA 0.0000 9999 920 0 0 0
2019/03/26 11:58:00 BASE 3.59 344 6.69 338 -0.8 100 -0.8 53 0 989.8 NA 0.0000 9999 890 0 0 0
2019/03/26 11:59:00 BASE 2.84 349 6.69 338 -0.8 100 -0.8 52 0 989.8 NA 0.0000 9999 820 0 0 0
2019/03/26 12:00:00 BASE 3.04 339 6.69 338 -0.8 100 -0.8 50 0 989.8 NA 0.0000 9999 750 0 0 0
2019/03/26 12:01:00 BASE 4.29 323 6.69 338 -0.8 100 -0.8 50 0 989.8 NA 0.0000 9999 850 0 0 0
2019/03/26 12:02:00 BASE 4.08 309 6.69 338 -0.8 100 -0.8 52 0 989.8 NA 0.0000 9999 850 0 0 0
2019/03/26 12:03:00 BASE 2.56 300 6.69 338 -0.8 100 -0.8 57 0 989.8 NA 0.0000 9999 850 0 0 0
2019/03/26 12:04:00 BASE 2.04 297 6.07 320 -0.9 100 -0.9 65 0 989.8 NA 0.0000 9999 980 0 0 0
2019/03/26 12:05:00 BASE 2.05 294 6.07 320 -0.9 100 -0.9 68 0 989.8 NA 0.0000 9999 980 0 0 0
2019/03/26 12:06:00 BASE 2.31 305 6.07 320 -0.9 100 -0.9 72 0 989.8 NA 0.0000 9999 920 0 0 0
2019/03/26 12:07:00 BASE 2.18 315 6.07 320 -0.9 100 -0.9 71 0 989.8 NA 0.0000 9999 850 0 0 0
2019/03/26 12:08:00 BASE 2.44 319 6.07 320 -0.8 100 -0.8 73 0 989.8 NA 0.0000 9999 820 0 0 0
2019/03/26 12:09:00 BASE 2.95 330 6.07 320 -0.8 100 -0.8 78 0 989.8 NA 0.0000 9999 890 0 0 0
2019/03/26 12:10:00 BASE 3.43 337 6.07 320 -0.8 100 -0.8 82 0 989.8 NA 0.0000 9999 850 0 0 0
2019/03/26 12:11:00 BASE 4.20 343 5.25 345 -0.7 100 -0.7 83 0 989.7 NA 0.0000 9999 850 0 0 0
2019/03/26 12:12:00 BASE 4.71 335 6.12 331 -0.7 100 -0.7 84 0 989.7 NA 0.0000 9999 890 0 0 0
2019/03/26 12:13:00 BASE 5.14 321 6.28 312 -0.7 100 -0.7 87 0 989.7 NA 0.0000 9999 790 0 0 0
2019/03/26 12:14:00 BASE 5.06 317 6.28 312 -0.8 100 -0.8 92 0 989.7 NA 0.0000 9999 850 0 0 0
2019/03/26 12:15:00 BASE 3.78 315 6.28 312 -0.9 100 -0.9 98 0 989.8 NA 0.0000 9999 890 0 0 0
2019/03/26 12:16:00 BASE 2.69 313 6.28 312 -0.9 100 -0.9 103 0 989.8 NA 0.0000 9999 890 0 0 0
2019/03/26 12:17:00 BASE 3.18 322 6.28 312 -0.9 100 -0.9 101 0 989.8 NA 0.0000 9999 920 0 0 0
2019/03/26 12:18:00 BASE 3.11 329 6.28 312 -0.9 100 -0.9 99 0 989.7 NA 0.0000 9999 950 0 0 0
2019/03/26 12:19:00 BASE 2.21 328 6.28 312 -0.9 100 -0.9 97 0 989.7 NA 0.0000 9999 980 0 0 0
2019/03/26 12:20:00 BASE 1.95 318 6.28 312 -0.9 100 -0.9 97 0 989.7 NA 0.0000 9999 950 0 0 0
2019/03/26 12:21:00 BASE 2.49 306 6.28 312 -0.9 100 -0.9 99 0 989.7 NA 0.0000 9999 1020 0 0 0
2019/03/26 12:22:00 BASE 2.91 313 6.28 312 -0.9 100 -0.9 101 0 989.7 NA 0.0000 9999 1050 0 0 0
2019/03/26 12:23:00 BASE 2.95 326 5.71 316 -0.9 100 -0.9 101 0 989.7 NA 0.0000 9999 1050 0 0 0
2019/03/26 12:24:00 BASE 3.58 332 4.63 335 -0.8 100 -0.8 101 0 989.7 NA 0.0000 9999 1020 0 0 0
2019/03/26 12:25:00 BASE 4.45 341 5.30 355 -0.8 100 -0.8 102 0 989.7 NA 0.0000 9999 1020 0 0 0
2019/03/26 12:26:00 BASE 5.02 359 5.45 8 -0.8 100 -0.8 103 0 989.7 NA 0.0000 9999 980 0 0 0
2019/03/26 12:27:00 BASE 4.60 13 5.45 8 -0.9 100 -0.9 105 0 989.7 NA 0.0000 9999 950 0 0 0
2019/03/26 12:28:00 BASE 4.27 14 5.45 8 -0.9 100 -0.9 109 0 989.7 NA 0.0000 9999 950 0 0 0
2019/03/26 12:29:00 BASE 4.41 11 5.45 8 -0.9 100 -0.9 114 0 989.7 NA 0.0000 9999 920 0 0 0
2019/03/26 12:30:00 BASE 4.36 7 5.45 8 -1.0 100 -1.0 120 0 989.6 NA 0.0000 9999 920 0 0 0
2019/03/26 12:31:00 BASE 4.48 10 5.45 8 -1.0 100 -1.0 128 0 989.6 NA 0.0000 9999 980 0 0 0
2019/03/26 12:32:00 BASE 4.65 13 5.45 8 -1.0 100 -1.0 135 0 989.6 NA 0.0000 9999 950 0 0 0
2019/03/26 12:33:00 BASE 4.53 9 5.45 8 -1.0 100 -1.0 140 0 989.6 NA 0.0000 9999 1050 0 0 0
2019/03/26 12:34:00 BASE 4.38 8 5.45 8 -1.1 100 -1.1 150 0 989.5 NA 0.0000 9999 1020 0 0 0
2019/03/26 12:35:00 BASE 4.55 7 5.45 8 -1.1 100 -1.1 149 0 989.6 NA 0.0000 9999 1020 0 0 0
2019/03/26 12:36:00 BASE 4.64 2 4.99 4 -1.1 100 -1.1 148 0 989.6 NA 0.0000 9999 1150 0 0 0
2019/03/26 12:37:00 BASE 4.46 3 4.99 4 -1.1 100 -1.1 147 0 989.5 NA 0.0000 9999 1180 0 0 0
2019/03/26 12:38:00 BASE 4.45 7 4.99 4 -1.1 100 -1.1 137 0 989.5 NA 0.0000 9999 1180 0 0 0
2019/03/26 12:39:00 BASE 4.47 8 4.99 4 -1.1 100 -1.1 126 0 989.4 NA 0.0000 9999 1150 0 0 0
2019/03/26 12:40:00 BASE 4.34 14 4.99 4 -1.1 100 -1.1 124 0 989.4 NA 0.0000 9999 1080 0 0 0
2019/03/26 12:41:00 BASE 4.23 24 4.99 4 -1.1 100 -1.1 123 0 989.4 NA 0.0000 9999 1210 0 0 0
2019/03/26 12:42:00 BASE 4.18 33 4.99 4 -1.1 100 -1.1 125 0 989.4 NA 0.0000 9999 0 0 0 0
2019/03/26 12:43:00 BASE 4.13 37 4.99 4 -1.1 100 -1.1 130 0 989.4 NA 0.0000 9999 0 0 0 0
2019/03/26 12:44:00 BASE 4.10 38 4.99 4 -1.1 100 -1.1 132 0 989.3 NA 0.0000 9999 1250 0 0 0
2019/03/26 12:45:00 BASE 4.06 39 4.78 3 -1.1 100 -1.1 138 0 989.2 NA 0.0000 9999 0 0 0 0
2019/03/26 12:46:00 BASE 3.95 40 4.78 3 -1.1 100 -1.1 160 0 989.2 NA 0.0000 9999 0 0 0 0
2019/03/26 12:47:00 BASE 3.91 40 4.78 3 -1.1 100 -1.1 170 0 989.2 NA 0.0000 9999 0 0 0 0
2019/03/26 12:48:00 BASE 3.80 39 4.78 3 -1.0 100 -1.0 153 0 989.2 NA 0.0000 9999 0 0 0 0
2019/03/26 12:49:00 BASE 3.70 36 4.58 26 -1.0 100 -1.0 165 0 989.2 NA 0.0000 9999 1210 0 0 0
2019/03/26 12:50:00 BASE 3.70 35 4.58 26 -1.0 100 -1.0 156 0 989.2 NA 0.0000 9999 1150 0 0 0
2019/03/26 12:51:00 BASE 3.40 34 4.48 39 -1.0 100 -1.0 156 0 989.3 NA 0.0000 9999 0 0 0 0
2019/03/26 12:52:00 BASE 3.10 31 4.37 48 -1.0 100 -1.0 180 0 989.4 NA 0.0000 9999 22180 0 0 0
2019/03/26 12:53:00 BASE 3.31 26 4.37 48 -1.0 100 -1.0 188 0 989.4 NA 0.0000 9999 1280 0 0 0
2019/03/26 12:54:00 BASE 3.58 26 4.37 48 -1.0 100 -1.0 188 0 989.4 NA 0.0000 9999 1250 0 0 0
2019/03/26 12:55:00 BASE 3.64 20 4.37 48 -1.0 100 -1.0 183 0 989.4 NA 0.0000 9999 1210 0 0 0
2019/03/26 12:56:00 BASE 4.00 1 4.99 335 -1.0 100 -1.0 191 0 989.4 NA 0.0000 9999 1250 0 0 0
2019/03/26 12:57:00 BASE 3.53 3 4.99 335 -1.0 100 -1.0 198 0 989.4 NA 0.0000 9999 1250 0 0 0
2019/03/26 12:58:00 BASE 2.92 20 4.99 335 -1.1 100 -1.1 199 0 989.3 NA 0.0000 9999 1210 0 0 0
2019/03/26 12:59:00 BASE 3.09 11 4.99 335 -1.1 100 -1.1 197 0 989.3 NA 0.0000 9999 1380 0 0 0
2019/03/26 13:00:00 BASE 2.51 350 4.99 335 -1.1 100 -1.1 200 0 989.2 NA 0.0000 9999 1350 0 0 0
2019/03/26 13:01:00 BASE 2.25 5 4.99 335 -1.1 100 -1.1 194 0 989.2 NA 0.0000 9999 1350 0 0 0
2019/03/26 13:02:00 BASE 3.06 20 6.22 32 -1.0 100 -1.0 196 0 989.2 NA 0.0000 9999 1310 0 0 0
2019/03/26 13:03:00 BASE 4.69 4 8.64 360 -1.0 100 -1.0 195 0 989.2 NA 0.0000 9999 0 0 0 0
2019/03/26 13:04:00 BASE 6.86 352 9.47 355 -1.0 100 -1.0 190 0 989.1 NA 0.0000 9999 0 0 0 0
2019/03/26 13:05:00 BASE 6.78 345 9.47 355 -1.0 100 -1.0 188 0 989.1 NA 0.0000 9999 0 0 0 0
2019/03/26 13:06:00 BASE 5.79 344 9.47 355 -1.1 100 -1.1 185 0 989.1 NA 0.0000 9999 0 0 0 0
2019/03/26 13:07:00 BASE 6.29 344 9.47 355 -1.1 100 -1.1 181 0 989.1 NA 0.0000 9999 0 0 0 0
2019/03/26 13:08:00 BASE 6.06 333 9.47 355 -1.1 100 -1.1 178 0 989.1 NA 0.0000 9999 0 0 0 0
2019/03/26 13:09:00 BASE 6.13 320 9.47 355 -1.1 100 -1.1 175 0 989.1 NA 0.0000 9999 0 0 0 0
2019/03/26 13:10:00 BASE 7.08 311 9.47 355 -1.0 100 -1.0 174 0 989.1 NA 0.0000 9999 0 0 0 0
2019/03/26 13:11:00 BASE 7.06 303 9.47 355 -1.0 100 -1.0 175 0 989.1 NA 0.0000 9999 0 0 0 0
2019/03/26 13:12:00 BASE 6.72 306 9.47 355 -1.1 100 -1.1 174 0 989.1 NA 0.0000 9999 0 0 0 0
2019/03/26 13:13:00 BASE 6.02 312 9.47 355 -1.1 100 -1.1 172 0 989.1 NA 0.0000 9999 0 0 0 0
2019/03/26 13:14:00 BASE 4.79 316 7.97 315 -1.2 100 -1.2 171 0 989.1 NA 0.0000 9999 0 0 0 0
2019/03/26 13:15:00 BASE 4.48 322 7.97 315 -1.3 100 -1.3 171 0 989.1 NA 0.0000 9999 0 0 0 0
2019/03/26 13:16:00 BASE 4.67 324 7.97 315 -1.3 100 -1.3 170 0 989.1 NA 0.0000 9999 0 0 0 0
2019/03/26 13:17:00 BASE 4.28 326 7.97 315 -1.3 100 -1.3 169 0 989.1 NA 0.0000 9999 0 0 0 0
2019/03/26 13:18:00 BASE 3.85 335 7.97 315 -1.2 100 -1.2 169 0 989.1 NA 0.0000 9999 0 0 0 0
2019/03/26 13:19:00 BASE 2.79 336 7.72 301 -1.2 100 -1.2 169 0 989.1 NA 0.0000 9999 0 0 0 0
2019/03/26 13:20:00 BASE 1.95 339 7.72 301 -1.2 100 -1.2 169 0 989.1 NA 0.0000 9999 0 0 0 0
2019/03/26 13:21:00 BASE 1.81 358 7.31 312 -1.1 100 -1.1 170 0 989.1 NA 0.0000 9999 0 0 0 0
2019/03/26 13:22:00 BASE 1.77 9 6.02 312 -1.1 100 -1.1 169 0 989.1 NA 0.0000 9999 18730 21390 0 0
2019/03/26 13:23:00 BASE 1.97 13 5.25 314 -1.1 100 -1.1 169 0 989.1 NA 0.0000 9999 0 0 0 0
2019/03/26 13:24:00 BASE 2.44 21 5.25 314 -1.1 100 -1.1 170 0 989.1 NA 0.0000 9999 0 0 0 0
2019/03/26 13:25:00 BASE 2.96 30 5.20 335 -1.1 100 -1.1 170 0 989.1 NA 0.0000 9999 0 0 0 0
2019/03/26 13:26:00 BASE 2.89 56 5.14 331 -1.0 100 -1.0 171 0 989.1 NA 0.0000 9999 0 0 0 0
2019/03/26 13:27:00 BASE 3.00 85 4.89 339 -1.0 100 -1.0 171 0 989.1 NA 0.0000 9999 0 0 0 0
2019/03/26 13:28:00 BASE 4.22 106 6.58 115 -1.0 100 -1.0 172 0 989.1 NA 0.0000 9999 0 0 0 0
2019/03/26 13:29:00 BASE 5.36 117 6.58 115 -1.0 100 -1.0 173 0 989.1 NA 0.0000 9999 0 0 0 0
2019/03/26 13:30:00 BASE 5.59 108 6.64 103 -1.0 100 -1.0 173 0 989.1 NA 0.0000 9999 0 0 0 0
2019/03/26 13:31:00 BASE 5.90 101 6.79 104 -1.0 100 -1.0 173 0 989.1 NA 0.0000 9999 0 0 0 0
2019/03/26 13:32:00 BASE 5.65 99 6.79 104 -1.1 100 -1.1 173 0 989.2 NA 0.0000 9999 0 0 0 0
2019/03/26 13:33:00 BASE 5.36 97 6.79 104 -1.1 100 -1.1 174 0 989.2 NA 0.0000 9999 0 0 0 0
2019/03/26 13:34:00 BASE 5.82 96 6.94 92 -1.1 100 -1.1 175 0 989.2 NA 0.0000 9999 0 0 0 0
2019/03/26 13:35:00 BASE 5.67 94 6.94 92 -1.1 100 -1.1 174 0 989.2 NA 0.0000 9999 0 0 0 0
2019/03/26 13:36:00 BASE 5.09 92 6.94 92 -1.0 100 -1.0 175 0 989.2 NA 0.0000 9999 20930 0 0 0
2019/03/26 13:37:00 BASE 5.00 90 6.94 92 -1.0 100 -1.0 176 0 989.2 NA 0.0000 9999 0 0 0 0
2019/03/26 13:38:00 BASE 4.77 92 6.94 92 -1.0 100 -1.0 177 0 989.2 NA 0.0000 9999 0 0 0 0
2019/03/26 13:39:00 BASE 4.12 90 6.94 92 -1.0 100 -1.0 179 0 989.2 NA 0.0000 9999 0 0 0 0
2019/03/26 13:40:00 BASE 3.17 76 6.94 92 -1.0 100 -1.0 180 0 989.2 NA 0.0000 9999 0 0 0 0
2019/03/26 13:41:00 BASE 2.81 57 6.94 92 -0.9 100 -0.9 181 0 989.1 NA 0.0000 9999 20470 0 0 0
2019/03/26 13:42:00 BASE 2.77 57 6.94 92 -0.9 100 -0.9 182 0 989.1 NA 0.0000 9999 0 0 0 0
2019/03/26 13:43:00 BASE 2.73 75 6.94 92 -0.8 100 -0.8 180 0 989.1 NA 0.0000 9999 0 0 0 0
2019/03/26 13:44:00 BASE 2.99 85 5.76 92 -0.8 100 -0.8 178 0 989.1 NA 0.0000 9999 0 0 0 0
2019/03/26 13:45:00 BASE 3.65 87 5.76 92 -0.8 100 -0.8 177 0 989.1 NA 0.0000 9999 0 0 0 0
2019/03/26 13:46:00 BASE 4.28 86 5.76 92 -0.8 100 -0.8 176 0 989.0 NA 0.0000 9999 0 0 0 0
2019/03/26 13:47:00 BASE 4.04 79 5.25 90 -0.8 100 -0.8 176 0 989.0 NA 0.0000 9999 0 0 0 0
2019/03/26 13:48:00 BASE 4.18 79 5.71 83 -0.9 100 -0.9 177 0 989.0 NA 0.0000 9999 0 0 0 0
2019/03/26 13:49:00 BASE 5.02 83 5.81 85 -0.9 100 -0.9 177 0 988.9 NA 0.0000 9999 0 0 0 0
2019/03/26 13:50:00 BASE 5.43 86 6.28 82 -0.9 100 -0.9 177 0 988.9 NA 0.0000 9999 0 0 0 0
2019/03/26 13:51:00 BASE 5.49 89 6.28 82 -1.0 100 -1.0 178 0 988.9 NA 0.0000 9999 18540 0 0 0
2019/03/26 13:52:00 BASE 5.36 92 6.28 82 -1.1 100 -1.1 178 0 988.9 NA 0.0000 9999 0 0 0 0
2019/03/26 13:53:00 BASE 5.44 93 6.28 82 -1.1 100 -1.1 178 0 988.9 NA 0.0000 9999 0 0 0 0
2019/03/26 13:54:00 BASE 5.91 93 6.33 97 -1.1 100 -1.1 178 0 988.8 NA 0.0000 9999 16930 0 0 0
2019/03/26 13:55:00 BASE 6.04 93 6.53 94 -1.1 100 -1.1 178 0 988.7 NA 0.0000 9999 0 0 0 0
2019/03/26 13:56:00 BASE 5.94 95 6.53 94 -1.1 100 -1.1 177 0 988.7 NA 0.0000 9999 0 0 0 0
2019/03/26 13:57:00 BASE 5.92 96 6.53 94 -1.1 100 -1.1 176 0 988.7 NA 0.0000 9999 0 0 0 0
2019/03/26 13:58:00 BASE 5.66 96 6.53 94 -1.1 100 -1.1 175 0 988.7 NA 0.0000 9999 0 0 0 0
2019/03/26 13:59:00 BASE 5.45 98 6.53 94 -1.1 100 -1.1 173 0 988.7 NA 0.0000 9999 0 0 0 0
2019/03/26 14:00:00 BASE 5.83 99 6.53 94 -1.2 100 -1.2 172 0 988.6 NA 0.0000 9999 0 0 0 0
2019/03/26 14:01:00 BASE 6.04 101 6.53 94 -1.2 100 -1.2 171 0 988.5 NA 0.0000 9999 0 0 0 0
2019/03/26 14:02:00 BASE 6.04 101 6.53 100 -1.2 100 -1.2 170 0 988.5 NA 0.0000 9999 0 0 0 0
2019/03/26 14:03:00 BASE 5.95 98 6.58 102 -1.1 100 -1.1 169 0 988.5 NA 0.0000 9999 0 0 0 0
2019/03/26 14:04:00 BASE 5.80 98 6.64 100 -1.1 100 -1.1 169 0 988.5 NA 0.0000 9999 0 0 0 0
2019/03/26 14:05:00 BASE 5.63 99 6.64 100 -1.1 100 -1.1 169 0 988.5 NA 0.0000 9999 0 0 0 0
2019/03/26 14:06:00 BASE 5.56 99 6.64 100 -1.1 100 -1.1 169 0 988.6 NA 0.0000 9999 0 0 0 0
2019/03/26 14:07:00 BASE 5.14 100 6.64 100 -1.1 100 -1.1 170 0 988.7 NA 0.0000 9999 0 0 0 0
2019/03/26 14:08:00 BASE 4.63 100 6.64 100 -1.1 100 -1.1 170 0 988.6 NA 0.0000 9999 0 0 0 0
2019/03/26 14:09:00 BASE 4.54 97 6.64 100 -1.1 100 -1.1 170 0 988.5 NA 0.0000 9999 17450 0 0 0
2019/03/26 14:10:00 BASE 4.77 91 6.64 100 -1.1 100 -1.1 170 0 988.5 NA 0.0000 9999 0 0 0 0
2019/03/26 14:11:00 BASE 5.10 89 6.64 100 -1.0 100 -1.0 170 0 988.5 NA 0.0000 9999 0 0 0 0
2019/03/26 14:12:00 BASE 4.74 94 6.64 100 -1.0 100 -1.0 170 0 988.5 NA 0.0000 9999 18340 0 0 0
2019/03/26 14:13:00 BASE 4.79 94 6.94 94 -1.0 100 -1.0 169 0 988.5 NA 0.0000 9999 0 0 0 0
2019/03/26 14:14:00 BASE 5.63 95 6.94 94 -1.0 100 -1.0 169 0 988.5 NA 0.0000 9999 0 0 0 0
2019/03/26 14:15:00 BASE 6.21 98 6.94 94 -0.9 100 -0.9 168 0 988.5 NA 0.0000 9999 0 0 0 0
2019/03/26 14:16:00 BASE 6.47 102 7.10 102 -0.9 100 -0.9 168 0 988.5 NA 0.0000 9999 0 0 0 0
2019/03/26 14:17:00 BASE 6.38 105 7.10 102 -0.9 100 -0.9 167 0 988.4 NA 0.0000 9999 0 0 0 0
2019/03/26 14:18:00 BASE 5.95 105 7.10 102 -0.9 100 -0.9 167 0 988.4 NA 0.0000 9999 18340 0 0 0
2019/03/26 14:19:00 BASE 5.16 105 7.10 102 -1.0 100 -1.0 167 0 988.4 NA 0.0000 9999 18800 0 0 0
2019/03/26 14:20:00 BASE 4.38 105 7.10 102 -1.0 100 -1.0 167 0 988.3 NA 0.0000 9999 17950 0 0 0
2019/03/26 14:21:00 BASE 4.23 105 7.10 102 -1.0 100 -1.0 167 0 988.3 NA 0.0000 9999 18830 0 0 0
2019/03/26 14:22:00 BASE 4.80 108 7.10 102 -1.0 100 -1.0 167 0 988.3 NA 0.0000 9999 0 0 0 0
2019/03/26 14:23:00 BASE 4.97 116 7.10 102 -1.0 100 -1.0 167 0 988.3 NA 0.0000 9999 0 0 0 0
2019/03/26 14:24:00 BASE 5.49 118 7.10 102 -1.0 100 -1.0 167 0 988.2 NA 0.0000 9999 17620 0 0 0
2019/03/26 14:25:00 BASE 6.35 118 7.10 102 -1.0 100 -1.0 168 0 988.2 NA 0.0000 9999 0 0 0 0
2019/03/26 14:26:00 BASE 6.48 120 6.89 121 -0.9 100 -0.9 169 0 988.2 NA 0.0000 9999 0 0 0 0
2019/03/26 14:27:00 BASE 6.13 124 6.89 121 -1.0 100 -1.0 170 0 988.2 NA 0.0000 9999 0 0 0 0
2019/03/26 14:28:00 BASE 6.09 125 7.41 130 -1.0 100 -1.0 171 0 988.1 NA 0.0000 9999 0 0 0 0
2019/03/26 14:29:00 BASE 6.47 126 7.97 129 -1.0 100 -1.0 173 0 988.0 NA 0.0000 9999 0 0 0 0
2019/03/26 14:30:00 BASE 7.51 126 9.36 127 -1.0 100 -1.0 174 0 988.0 NA 0.0000 9999 0 0 0 0
2019/03/26 14:31:00 BASE 8.26 125 9.36 127 -1.0 100 -1.0 175 0 987.9 NA 0.0000 9999 0 0 0 0
2019/03/26 14:32:00 BASE 7.85 125 9.36 127 -1.0 100 -1.0 177 0 987.9 NA 0.0000 9999 20770 0 0 0
2019/03/26 14:33:00 BASE 8.18 124 9.36 123 -1.0 100 -1.0 178 0 987.9 NA 0.0000 9999 0 0 0 0
2019/03/26 14:34:00 BASE 7.85 119 9.36 123 -0.9 100 -0.9 178 0 987.9 NA 0.0000 9999 0 0 0 0
2019/03/26 14:35:00 BASE 7.78 117 9.36 123 -1.0 100 -1.0 179 0 987.9 NA 0.0000 9999 0 0 0 0
2019/03/26 14:36:00 BASE 8.24 120 9.36 123 -0.9 100 -0.9 178 0 987.9 NA 0.0000 9999 0 0 0 0
2019/03/26 14:37:00 BASE 7.35 123 9.36 123 -1.0 100 -1.0 178 0 987.9 NA 0.0000 9999 22870 0 0 0
2019/03/26 14:38:00 BASE 6.31 123 9.36 123 -1.0 100 -1.0 177 0 987.9 NA 0.0000 9999 22700 0 0 0
2019/03/26 14:39:00 BASE 6.14 123 9.36 123 -1.0 100 -1.0 176 0 987.9 NA 0.0000 9999 0 0 0 0
2019/03/26 14:40:00 BASE 6.10 126 9.36 123 -1.0 100 -1.0 176 0 987.9 NA 0.0000 9999 16180 0 0 0
2019/03/26 14:41:00 BASE 6.45 130 9.36 123 -1.0 100 -1.0 177 0 987.9 NA 0.0000 9999 0 0 0 0
2019/03/26 14:42:00 BASE 7.17 133 9.36 123 -1.0 100 -1.0 178 0 987.9 NA 0.0000 9999 0 0 0 0
2019/03/26 14:43:00 BASE 7.15 134 8.95 121 -1.0 100 -1.0 179 0 987.9 NA 0.0000 9999 0 0 0 0
2019/03/26 14:44:00 BASE 6.57 138 8.95 121 -1.0 100 -1.0 180 0 987.9 NA 0.0000 9999 0 0 0 0
2019/03/26 14:45:00 BASE 5.73 140 8.49 120 -1.0 100 -1.0 181 0 987.9 NA 0.0000 9999 0 0 0 0
2019/03/26 14:46:00 BASE 5.07 141 7.56 132 -1.0 100 -1.0 182 0 987.9 NA 0.0000 9999 20600 0 0 0
2019/03/26 14:47:00 BASE 5.29 139 7.56 132 -1.0 100 -1.0 182 0 987.9 NA 0.0000 9999 0 0 0 0
2019/03/26 14:48:00 BASE 6.02 135 7.56 132 -1.0 100 -1.0 181 0 987.8 NA 0.0000 9999 0 0 0 0
2019/03/26 14:49:00 BASE 5.96 133 7.56 132 -1.0 100 -1.0 181 0 987.9 NA 0.0000 9999 17490 0 0 0
2019/03/26 14:50:00 BASE 5.38 132 7.56 132 -1.0 100 -1.0 180 0 987.8 NA 0.0000 9999 0 0 0 0
2019/03/26 14:51:00 BASE 4.82 130 7.46 135 -1.0 100 -1.0 180 0 987.8 NA 0.0000 9999 16670 0 0 0
2019/03/26 14:52:00 BASE 4.21 128 7.31 134 -1.0 100 -1.0 179 0 987.8 NA 0.0000 9999 0 0 0 0
2019/03/26 14:53:00 BASE 3.98 133 7.05 135 -1.0 100 -1.0 179 0 987.8 NA 0.0000 9999 0 0 0 0
2019/03/26 14:54:00 BASE 4.57 138 6.58 134 -1.0 100 -1.0 179 0 987.7 NA 0.0000 9999 16770 0 0 0
2019/03/26 14:55:00 BASE 5.19 140 6.58 134 -0.9 100 -0.9 178 0 987.7 NA 0.0000 9999 15780 0 0 0
2019/03/26 14:56:00 BASE 5.04 140 6.58 134 -0.9 100 -0.9 178 0 987.6 NA 0.0000 9999 0 0 0 0
2019/03/26 14:57:00 BASE 4.51 142 6.58 134 -0.9 100 -0.9 178 0 987.7 NA 0.0000 9999 0 0 0 0
2019/03/26 14:58:00 BASE 4.31 145 6.12 132 -0.9 100 -0.9 179 0 987.7 NA 0.0000 9999 15160 0 0 0
2019/03/26 14:59:00 BASE 4.78 146 5.81 143 -0.8 100 -0.8 179 0 987.6 NA 0.0000 9999 0 0 0 0
2019/03/26 15:00:00 BASE 5.24 148 5.81 143 -0.8 100 -0.8 179 0 987.6 NA 0.0000 9999 0 0 0 0
2019/03/26 15:01:00 BASE 5.31 149 5.92 153 -0.8 100 -0.8 179 0 987.6 NA 0.0000 9999 0 0 0 0
2019/03/26 15:02:00 BASE 5.07 144 5.92 153 -0.7 100 -0.7 179 0 987.6 NA 0.0000 9999 0 0 0 0
2019/03/26 15:03:00 BASE 4.49 134 5.92 153 -0.7 100 -0.7 180 0 987.6 NA 0.0000 9999 0 0 0 0
2019/03/26 15:04:00 BASE 4.11 132 5.92 153 -0.7 100 -0.7 181 0 987.6 NA 0.0000 9999 0 0 0 0
2019/03/26 15:05:00 BASE 3.79 142 5.92 153 -0.7 100 -0.7 182 0 987.6 NA 0.0000 9999 0 0 0 0
2019/03/26 15:06:00 BASE 3.88 146 5.92 153 -0.7 100 -0.7 183 0 987.6 NA 0.0000 9999 0 0 0 0
2019/03/26 15:07:00 BASE 3.97 133 5.92 153 -0.7 100 -0.7 186 0 987.5 NA 0.0000 9999 0 0 0 0
2019/03/26 15:08:00 BASE 3.54 126 5.92 153 -0.6 100 -0.6 188 0 987.4 NA 0.0000 9999 0 0 0 0
2019/03/26 15:09:00 BASE 3.77 128 5.92 153 -0.6 100 -0.6 190 0 987.4 NA 0.0000 9999 0 0 0 0
2019/03/26 15:10:00 BASE 4.69 125 6.28 121 -0.6 100 -0.6 192 0 987.4 NA 0.0000 9999 0 0 0 0
2019/03/26 15:11:00 BASE 4.41 115 6.28 121 -0.6 100 -0.6 192 0 987.4 NA 0.0000 9999 18700 0 0 0
2019/03/26 15:12:00 BASE 3.20 114 6.28 121 -0.6 100 -0.6 192 0 987.4 NA 0.0000 9999 0 0 0 0
2019/03/26 15:13:00 BASE 2.94 113 6.28 121 -0.7 100 -0.7 192 0 987.4 NA 0.0000 9999 0 0 0 0
2019/03/26 15:14:00 BASE 2.51 91 6.28 121 -0.6 100 -0.6 191 0 987.4 NA 0.0000 9999 0 0 0 0
2019/03/26 15:15:00 BASE 1.91 78 6.28 121 -0.6 100 -0.6 190 0 987.5 NA 0.0000 9999 0 0 0 0
2019/03/26 15:16:00 BASE 1.94 35 6.28 121 -0.6 100 -0.6 190 0 987.5 NA 0.0000 9999 14270 0 0 0
2019/03/26 15:17:00 BASE 1.97 352 6.28 121 -0.6 100 -0.6 189 0 987.5 NA 0.0000 9999 0 0 0 0
2019/03/26 15:18:00 BASE 1.68 335 6.28 121 -0.6 100 -0.6 188 0 987.4 NA 0.0000 9999 0 0 0 0
2019/03/26 15:19:00 BASE 1.04 331 6.28 121 -0.5 100 -0.5 187 0 987.4 NA 0.0000 9999 0 0 0 0
2019/03/26 15:20:00 BASE 0.31 318 4.94 108 -0.5 100 -0.5 186 0 987.4 NA 0.0000 9999 0 0 0 0
2019/03/26 15:21:00 BASE 0.00 285 3.65 140 -0.5 100 -0.5 187 0 987.4 NA 0.0000 9999 0 0 0 0
2019/03/26 15:22:00 BASE 0.00 286 3.65 140 -0.5 100 -0.5 188 0 987.5 NA 0.0000 9999 0 0 0 0
2019/03/26 15:23:00 BASE 0.21 25 2.62 60 -0.5 100 -0.5 189 0 987.6 NA 0.0000 9999 0 0 0 0
2019/03/26 15:24:00 BASE 0.77 133 2.78 145 -0.5 100 -0.5 190 0 987.6 NA 0.0000 9999 0 0 0 0
2019/03/26 15:25:00 BASE 2.07 150 3.29 138 -0.5 100 -0.5 191 0 987.6 NA 0.0000 9999 0 0 0 0
2019/03/26 15:26:00 BASE 2.89 139 3.29 138 -0.5 100 -0.5 192 0 987.5 NA 0.0000 9999 0 0 0 0
2019/03/26 15:27:00 BASE 3.24 144 5.20 131 -0.5 100 -0.5 193 0 987.5 NA 0.0000 9999 0 0 0 0
2019/03/26 15:28:00 BASE 3.77 142 5.20 131 -0.5 100 -0.5 194 0 987.4 NA 0.0000 9999 0 0 0 0
2019/03/26 15:29:00 BASE 3.28 141 5.20 131 -0.5 100 -0.5 195 0 987.4 NA 0.0000 9999 0 0 0 0
2019/03/26 15:30:00 BASE 2.83 152 5.20 131 -0.5 100 -0.5 195 0 987.4 NA 0.0000 9999 0 0 0 0
2019/03/26 15:31:00 BASE 3.04 160 5.20 131 -0.5 100 -0.5 196 0 987.4 NA 0.0000 9999 16600 0 0 0
2019/03/26 15:32:00 BASE 2.90 145 5.20 131 -0.5 100 -0.5 197 0 987.4 NA 0.0000 9999 0 0 0 0
2019/03/26 15:33:00 BASE 2.49 120 5.20 131 -0.6 100 -0.6 196 0 987.3 NA 0.0000 9999 17520 0 0 0
2019/03/26 15:34:00 BASE 2.46 119 5.20 131 -0.5 100 -0.5 196 0 987.3 NA 0.0000 9999 0 0 0 0
2019/03/26 15:35:00 BASE 2.37 129 5.20 131 -0.5 100 -0.5 195 0 987.3 NA 0.0000 9999 0 0 0 0
2019/03/26 15:36:00 BASE 1.54 147 5.20 131 -0.5 100 -0.5 194 0 987.3 NA 0.0000 9999 15720 0 0 0
2019/03/26 15:37:00 BASE 1.78 168 4.32 162 -0.5 100 -0.5 193 0 987.3 NA 0.0000 9999 0 0 0 0
2019/03/26 15:38:00 BASE 3.72 167 5.71 152 -0.4 100 -0.4 191 0 987.3 NA 0.0000 9999 0 0 0 0
2019/03/26 15:39:00 BASE 4.98 151 5.71 150 -0.4 100 -0.4 188 0 987.3 NA 0.0000 9999 0 0 0 0
2019/03/26 15:40:00 BASE 5.07 134 6.02 119 -0.3 100 -0.3 186 0 987.3 NA 0.0000 9999 0 0 0 0
2019/03/26 15:41:00 BASE 4.45 115 6.02 119 -0.4 100 -0.4 183 0 987.4 NA 0.0000 9999 0 0 0 0
2019/03/26 15:42:00 BASE 3.44 123 6.02 119 -0.4 100 -0.4 181 0 987.4 NA 0.0000 9999 0 0 0 0
2019/03/26 15:43:00 BASE 3.82 141 6.02 119 -0.4 100 -0.4 178 0 987.4 NA 0.0000 9999 15810 0 0 0
2019/03/26 15:44:00 BASE 4.30 145 6.02 119 -0.4 100 -0.4 175 0 987.3 NA 0.0000 9999 0 0 0 0
2019/03/26 15:45:00 BASE 3.87 159 6.02 119 -0.4 100 -0.4 173 0 987.4 NA 0.0000 9999 0 0 0 0
2019/03/26 15:46:00 BASE 3.93 171 6.02 119 -0.4 100 -0.4 170 0 987.4 NA 0.0000 9999 0 0 0 0
2019/03/26 15:47:00 BASE 3.87 177 6.02 119 -0.4 100 -0.4 169 0 987.4 NA 0.0000 9999 0 0 0 0
2019/03/26 15:48:00 BASE 3.29 169 6.02 119 -0.4 100 -0.4 167 0 987.4 NA 0.0000 9999 0 0 0 0
2019/03/26 15:49:00 BASE 2.69 144 6.02 119 -0.4 100 -0.4 165 0 987.4 NA 0.0000 9999 0 0 0 0
2019/03/26 15:50:00 BASE 2.93 128 5.04 145 -0.4 100 -0.4 164 0 987.3 NA 0.0000 9999 23920 0 0 0
2019/03/26 15:51:00 BASE 3.60 133 5.04 145 -0.4 100 -0.4 163 0 987.3 NA 0.0000 9999 13880 0 0 0
2019/03/26 15:52:00 BASE 3.90 146 5.04 145 -0.4 100 -0.4 162 0 987.2 NA 0.0000 9999 14440 0 0 0
2019/03/26 15:53:00 BASE 4.13 152 5.04 145 -0.4 100 -0.4 161 0 987.2 NA 0.0000 9999 0 0 0 0
2019/03/26 15:54:00 BASE 4.32 157 4.89 170 -0.4 100 -0.4 160 0 987.2 NA 0.0000 9999 0 0 0 0
2019/03/26 15:55:00 BASE 4.24 155 4.89 170 -0.4 100 -0.4 159 0 987.2 NA 0.0000 9999 14730 0 0 0
2019/03/26 15:56:00 BASE 4.09 152 4.89 170 -0.4 100 -0.4 157 0 987.1 NA 0.0000 9999 14240 0 0 0
2019/03/26 15:57:00 BASE 3.56 160 4.89 170 -0.4 100 -0.4 156 0 987.1 NA 0.0000 9999 12300 0 0 0
2019/03/26 15:58:00 BASE 2.98 160 4.89 170 -0.4 100 -0.4 154 0 987.1 NA 0.0000 9999 0 0 0 0
2019/03/26 15:59:00 BASE 3.02 158 4.89 170 -0.3 100 -0.3 153 0 987.1 NA 0.0000 9999 13220 0 0 0
2019/03/26 16:00:00 BASE 3.42 168 4.89 170 -0.3 100 -0.3 153 0 987.1 NA 0.0000 9999 3280 0 0 0
2019/03/26 16:01:00 BASE 3.86 188 4.89 170 -0.3 100 -0.3 153 0 987.0 NA 0.0000 9999 0 0 0 0
2019/03/26 16:02:00 BASE 4.41 196 5.04 185 -0.3 100 -0.3 154 0 987.0 NA 0.0000 9999 0 0 0 0
2019/03/26 16:03:00 BASE 4.92 187 6.58 163 -0.4 100 -0.4 156 0 986.9 NA 0.0000 9999 0 0 0 0
2019/03/26 16:04:00 BASE 3.79 178 6.58 163 -0.4 100 -0.4 159 0 986.8 NA 0.0000 9999 2850 0 0 0
2019/03/26 16:05:00 BASE 3.39 179 6.58 163 -0.4 100 -0.4 162 0 986.8 NA 0.0000 9999 0 0 0 0
2019/03/26 16:06:00 BASE 3.44 180 6.58 163 -0.4 100 -0.4 164 0 986.8 NA 0.0000 9999 20930 0 0 0
2019/03/26 16:07:00 BASE 2.36 162 6.58 163 -0.3 100 -0.3 165 0 986.7 NA 0.0000 9999 0 0 0 0
2019/03/26 16:08:00 BASE 2.56 146 6.58 163 -0.3 100 -0.3 167 0 986.7 NA 0.0000 9999 0 0 0 0
2019/03/26 16:09:00 BASE 3.39 152 6.58 163 -0.2 100 -0.2 168 0 986.7 NA 0.0000 9999 3220 0 0 0
2019/03/26 16:10:00 BASE 3.62 165 6.58 163 -0.2 100 -0.2 168 0 986.6 NA 0.0000 9999 0 0 0 0
2019/03/26 16:11:00 BASE 3.71 168 6.58 163 -0.2 100 -0.2 169 0 986.6 NA 0.0000 9999 0 0 0 0
2019/03/26 16:12:00 BASE 4.23 147 6.58 163 -0.2 100 -0.2 168 0 986.6 NA 0.0000 9999 0 0 0 0
2019/03/26 16:13:00 BASE 5.77 133 7.92 142 -0.2 100 -0.2 167 0 986.6 NA 0.0000 9999 3180 0 0 0
2019/03/26 16:14:00 BASE 6.56 140 7.92 142 -0.3 100 -0.3 168 0 986.5 NA 0.0000 9999 3050 0 0 0
2019/03/26 16:15:00 BASE 5.72 157 7.92 142 -0.3 100 -0.3 168 0 986.5 NA 0.0000 9999 3150 0 0 0
2019/03/26 16:16:00 BASE 5.47 158 7.92 142 -0.3 100 -0.3 167 0 986.5 NA 0.0000 9999 0 0 0 0
2019/03/26 16:17:00 BASE 4.94 156 7.92 142 -0.3 100 -0.3 167 0 986.4 NA 0.0000 9999 0 0 0 0
2019/03/26 16:18:00 BASE 4.28 155 7.92 142 -0.3 100 -0.3 166 0 986.4 NA 0.0000 9999 3410 0 0 0
2019/03/26 16:19:00 BASE 3.98 144 7.92 142 -0.3 100 -0.3 164 0 986.4 NA 0.0000 9999 0 0 0 0
2019/03/26 16:20:00 BASE 5.76 124 11.16 97 -0.3 100 -0.3 162 0 986.3 NA 0.0000 9999 0 0 0 0
2019/03/26 16:21:00 BASE 7.51 84 12.45 58 -0.2 100 -0.2 160 0 986.3 NA 0.0000 9999 0 0 0 0
2019/03/26 16:22:00 BASE 5.52 48 12.45 58 0.1 100 0.1 159 0 986.2 NA 0.0000 9999 0 0 0 0
2019/03/26 16:23:00 BASE 5.63 96 12.45 58 0.3 100 0.3 158 0 986.2 NA 0.0000 9999 0 0 0 0
2019/03/26 16:24:00 BASE 6.03 139 12.45 58 0.5 100 0.5 156 0 986.3 NA 0.0000 9999 0 0 0 0
2019/03/26 16:25:00 BASE 4.06 152 12.45 58 0.6 100 0.6 155 0 986.2 NA 0.0000 9999 0 0 0 0
2019/03/26 16:26:00 BASE 5.07 132 12.45 58 0.6 100 0.6 154 0 986.0 NA 0.0000 9999 0 0 0 0
2019/03/26 16:27:00 BASE 6.78 94 12.45 58 0.6 100 0.6 153 0 986.0 NA 0.0000 9999 0 0 0 0
2019/03/26 16:28:00 BASE 5.59 90 12.45 58 0.6 99 0.5 152 0 986.1 NA 0.0000 9999 14040 0 0 0
2019/03/26 16:29:00 BASE 4.95 89 12.45 58 0.7 98 0.5 151 0 986.1 NA 0.0000 9999 0 0 0 0
2019/03/26 16:30:00 BASE 5.66 88 12.45 58 0.9 97 0.5 149 0 985.9 NA 0.0000 9999 0 0 0 0
2019/03/26 16:31:00 BASE 5.23 95 10.24 94 1.2 94 0.3 147 0 985.9 NA 0.0000 9999 0 0 0 0
2019/03/26 16:32:00 BASE 4.09 107 10.24 94 1.4 90 -0.1 146 0 985.9 NA 0.0000 9999 0 0 0 0
2019/03/26 16:33:00 BASE 5.16 109 11.11 131 1.6 87 -0.4 145 0 985.9 NA 0.0000 9999 0 0 0 0
2019/03/26 16:34:00 BASE 8.03 105 12.86 109 1.8 84 -0.7 144 0 985.8 NA 0.0000 9999 0 0 0 0
2019/03/26 16:35:00 BASE 6.79 121 12.86 109 1.8 81 -1.1 142 0 985.9 NA 0.0000 9999 0 0 0 0
2019/03/26 16:36:00 BASE 4.39 114 12.86 109 1.7 80 -1.3 141 0 986.0 NA 0.0000 9999 11610 0 0 0
2019/03/26 16:37:00 BASE 4.92 92 12.86 109 1.6 81 -1.3 139 0 985.9 NA 0.0000 9999 11610 0 0 0
2019/03/26 16:38:00 BASE 5.89 112 12.86 109 1.6 81 -1.3 137 0 985.8 NA 0.0000 9999 0 0 0 0
2019/03/26 16:39:00 BASE 4.30 159 12.86 109 1.7 80 -1.4 135 0 985.8 NA 0.0000 9999 0 0 0 0
2019/03/26 16:40:00 BASE 3.22 140 12.86 109 1.8 79 -1.6 134 0 985.9 NA 0.0000 9999 11060 0 0 0
2019/03/26 16:41:00 BASE 5.59 91 12.86 109 1.8 77 -1.7 132 0 985.9 NA 0.0000 9999 0 0 0 0
2019/03/26 16:42:00 BASE 7.08 87 12.86 109 1.8 76 -1.9 131 0 985.9 NA 0.0000 9999 0 0 0 0
2019/03/26 16:43:00 BASE 6.86 95 12.86 109 1.7 77 -2.0 130 0 985.9 NA 0.0000 9999 0 0 0 0
2019/03/26 16:44:00 BASE 6.68 95 8.03 132 1.5 79 -1.8 129 0 985.8 NA 0.0000 9999 0 0 0 0
2019/03/26 16:45:00 BASE 5.91 95 8.03 132 1.2 82 -1.6 127 0 985.7 NA 0.0000 9999 0 0 0 0
2019/03/26 16:46:00 BASE 4.35 87 8.03 132 1.0 84 -1.3 126 0 985.7 NA 0.0000 9999 0 0 0 0
2019/03/26 16:47:00 BASE 3.65 85 8.03 132 1.0 86 -1.1 125 0 985.7 NA 0.0000 9999 10470 0 0 0
2019/03/26 16:48:00 BASE 3.91 96 7.92 84 0.9 88 -0.9 124 0 985.6 NA 0.0000 9999 11390 0 0 0
2019/03/26 16:49:00 BASE 4.35 96 7.92 84 0.9 89 -0.8 123 0 985.6 NA 0.0000 9999 11020 0 0 0
2019/03/26 16:50:00 BASE 4.76 93 7.92 84 0.9 89 -0.6 123 0 985.6 NA 0.0000 9999 0 0 0 0
2019/03/26 16:51:00 BASE 5.05 93 7.92 84 0.9 90 -0.6 122 0 985.6 NA 0.0000 9999 0 0 0 0
2019/03/26 16:52:00 BASE 5.80 91 7.56 96 0.9 90 -0.6 122 0 985.6 NA 0.0000 9999 0 0 0 0
2019/03/26 16:53:00 BASE 6.11 94 7.41 92 0.8 90 -0.6 122 0 985.6 NA 0.0000 9999 0 0 0 0
2019/03/26 16:54:00 BASE 4.67 113 7.31 90 0.8 90 -0.6 121 0 985.6 NA 0.0000 9999 0 0 0 0
2019/03/26 16:55:00 BASE 3.01 132 7.31 90 0.7 91 -0.7 121 0 985.5 NA 0.0000 9999 0 0 0 0
2019/03/26 16:56:00 BASE 1.45 107 7.31 90 0.7 91 -0.6 120 0 985.5 NA 0.0000 9999 0 0 0 0
2019/03/26 16:57:00 BASE 1.27 50 7.31 90 0.8 91 -0.5 120 0 985.4 NA 0.0000 9999 0 0 0 0
2019/03/26 16:58:00 BASE 1.56 22 7.31 90 0.8 91 -0.5 120 0 985.4 NA 0.0000 9999 0 0 0 0
2019/03/26 16:59:00 BASE 1.08 34 7.31 90 0.9 91 -0.4 120 0 985.4 NA 0.0000 9999 10660 0 0 0
2019/03/26 17:00:00 BASE 1.37 78 7.31 90 0.9 91 -0.3 120 0 985.4 NA 0.0000 9999 10140 0 0 0
2019/03/26 17:01:00 BASE 2.75 111 7.31 90 0.9 91 -0.4 121 0 985.4 NA 0.0000 9999 10300 0 0 0
2019/03/26 17:02:00 BASE 3.53 115 6.17 92 0.9 91 -0.4 122 0 985.4 NA 0.0000 9999 10300 0 0 0
2019/03/26 17:03:00 BASE 3.83 121 4.99 123 0.9 91 -0.4 122 0 985.4 NA 0.0000 9999 9740 0 0 0
2019/03/26 17:04:00 BASE 4.02 132 4.99 123 0.9 91 -0.5 122 0 985.4 NA 0.0000 9999 9840 0 0 0
2019/03/26 17:05:00 BASE 3.18 144 4.99 123 0.8 91 -0.5 122 0 985.4 NA 0.0000 9999 9840 0 0 0
2019/03/26 17:06:00 BASE 3.08 159 4.99 123 0.8 91 -0.6 122 0 985.4 NA 0.0000 9999 9970 0 0 0
2019/03/26 17:07:00 BASE 3.30 172 4.99 123 0.8 91 -0.6 122 0 985.4 NA 0.0000 9999 0 0 0 0
2019/03/26 17:08:00 BASE 2.16 193 4.99 123 0.7 91 -0.5 121 0 985.4 NA 0.0000 9999 9650 0 0 0
2019/03/26 17:09:00 BASE 4.30 332 9.88 2 0.7 92 -0.5 122 0 985.3 NA 0.0000 9999 0 0 0 0
2019/03/26 17:10:00 BASE 7.47 355 10.80 343 0.8 92 -0.4 122 0 985.2 NA 0.0000 9999 3450 0 0 0
2019/03/26 17:11:00 BASE 6.72 355 10.80 343 1.0 91 -0.4 122 0 985.3 NA 0.0000 9999 0 0 0 0
2019/03/26 17:12:00 BASE 5.73 12 10.80 343 1.1 89 -0.5 123 0 985.3 NA 0.0000 9999 9190 0 0 0
2019/03/26 17:13:00 BASE 4.22 81 10.80 343 1.2 87 -0.7 124 0 985.4 NA 0.0000 9999 0 0 0 0
2019/03/26 17:14:00 BASE 3.50 176 10.80 343 1.3 86 -0.8 123 0 985.4 NA 0.0000 9999 0 0 0 0
2019/03/26 17:15:00 BASE 4.08 185 10.80 343 1.2 86 -0.9 122 0 985.3 NA 0.0000 9999 0 0 0 0
2019/03/26 17:16:00 BASE 2.77 225 10.80 343 1.0 87 -0.9 120 0 985.3 NA 0.0000 9999 8330 0 0 0
2019/03/26 17:17:00 BASE 0.83 238 10.80 343 0.9 89 -0.7 117 0 985.4 NA 0.0000 9999 8330 0 0 0
2019/03/26 17:18:00 BASE 0.46 202 10.80 343 0.8 91 -0.5 114 0 985.4 NA 0.0000 9999 3310 8400 0 0
2019/03/26 17:19:00 BASE 1.52 150 10.80 343 0.8 92 -0.4 111 0 985.4 NA 0.0000 9999 3410 8370 0 0
2019/03/26 17:20:00 BASE 2.08 122 9.26 323 0.7 92 -0.4 109 0 985.4 NA 0.0000 9999 8300 0 0 0
2019/03/26 17:21:00 BASE 1.82 158 7.31 35 0.7 92 -0.4 106 0 985.3 NA 0.0000 9999 8170 0 0 0
2019/03/26 17:22:00 BASE 2.75 206 5.61 167 0.6 93 -0.5 105 0 985.2 NA 0.0000 9999 8140 19820 23130 0
2019/03/26 17:23:00 BASE 3.90 208 5.61 167 0.5 93 -0.4 103 0 985.2 NA 0.0000 9999 8140 0 0 0
2019/03/26 17:24:00 BASE 3.69 184 5.14 173 0.5 94 -0.4 102 0 985.2 NA 0.0000 9999 8140 0 0 0
2019/03/26 17:25:00 BASE 3.15 155 4.32 201 0.5 95 -0.3 100 0 985.3 NA 0.0000 9999 3020 0 0 0
2019/03/26 17:26:00 BASE 2.75 124 4.32 201 0.5 95 -0.1 98 0 985.3 NA 0.0000 9999 3450 8070 0 0
2019/03/26 17:27:00 BASE 1.97 103 4.32 201 0.5 96 -0.0 96 0 985.3 NA 0.0000 9999 7870 0 0 0
2019/03/26 17:28:00 BASE 0.88 104 4.32 201 0.5 97 0.1 93 0 985.3 NA 0.0000 9999 3350 7910 0 0
2019/03/26 17:29:00 BASE 0.46 157 4.32 201 0.5 98 0.2 93 0 985.2 NA 0.0000 9999 7740 0 0 0
2019/03/26 17:30:00 BASE 1.31 196 4.32 201 0.5 99 0.3 92 0 985.2 NA 0.0000 9999 7710 0 0 0
2019/03/26 17:31:00 BASE 1.36 182 4.32 201 0.5 99 0.4 92 0 985.2 NA 0.0000 9999 7710 0 0 0
2019/03/26 17:32:00 BASE 1.14 137 4.32 201 0.5 99 0.4 92 0 985.2 NA 0.0000 9999 7710 0 0 0
2019/03/26 17:33:15 BASE 2.23 125 3.60 182 0.5 99 0.4 92 0 985.1 NA 0.0000 9999 7710 0 0 0
2019/03/26 17:34:00 BASE 2.88 140 3.55 143 0.6 99 0.4 91 0 985.1 NA 0.0000 9999 7640 0 0 0
2019/03/26 17:35:00 BASE 3.12 148 3.60 147 0.6 99 0.4 91 0 985.1 NA 0.0000 9999 7640 0 0 0
2019/03/26 17:36:00 BASE 2.99 150 3.60 147 0.5 98 0.3 91 0 985.0 NA 0.0000 9999 7640 0 0 0
2019/03/26 17:37:00 BASE 2.66 142 3.60 147 0.5 98 0.3 91 0 984.9 NA 0.0000 9999 7580 22210 0 0
2019/03/26 17:38:00 BASE 2.02 123 3.60 147 0.5 98 0.2 90 0 984.9 NA 0.0000 9999 7510 0 0 0
2019/03/26 17:39:00 BASE 0.98 114 3.60 147 0.5 98 0.2 88 0 984.9 NA 0.0000 9999 7510 0 0 0
2019/03/26 17:40:00 BASE 0.44 87 3.60 147 0.6 98 0.3 88 0 984.8 NA 0.0000 9999 7480 8600 0 0
2019/03/26 17:41:00 BASE 1.59 84 3.81 108 0.7 97 0.2 89 0 984.8 NA 0.0000 9999 7450 0 0 0
2019/03/26 17:42:00 BASE 2.86 82 4.01 52 0.8 96 0.2 92 0 984.8 NA 0.0000 9999 7580 0 0 0
2019/03/26 17:43:00 BASE 3.01 44 4.01 52 0.9 95 0.1 95 0 984.8 NA 0.0000 9999 8960 0 0 0
2019/03/26 17:44:00 BASE 3.60 64 8.59 90 0.9 93 -0.0 97 0 984.8 NA 0.0000 9999 7740 0 0 0
2019/03/26 17:45:00 BASE 7.33 73 14.71 47 1.0 92 -0.2 98 0 984.7 NA 0.0000 9999 9320 0 0 0
2019/03/26 17:46:00 BASE 10.88 49 14.71 47 1.1 90 -0.3 98 0 984.6 NA 0.0000 9999 8990 0 0 0
2019/03/26 17:47:00 BASE 14.30 47 19.96 51 1.3 88 -0.5 98 0 984.5 NA 0.0000 9999 9190 0 0 0
2019/03/26 17:48:00 BASE 17.86 49 19.96 51 1.4 86 -0.8 96 0 984.4 NA 0.0000 9999 9350 0 0 0
2019/03/26 17:49:00 BASE 17.08 64 19.96 51 1.6 83 -1.0 96 0 984.5 NA 0.0000 9999 9250 0 0 0
2019/03/26 17:50:00 BASE 15.71 98 19.96 51 1.8 80 -1.3 97 0 984.2 NA 0.0000 9999 8990 0 0 0
2019/03/26 17:51:00 BASE 16.21 124 20.37 124 1.9 77 -1.7 99 0 983.9 NA 0.0000 9999 9060 0 0 0
2019/03/26 17:52:00 BASE 16.13 126 20.37 124 2.0 75 -2.0 100 0 983.9 NA 0.0000 9999 8560 0 0 0
2019/03/26 17:53:00 BASE 13.73 123 20.37 124 2.0 73 -2.3 100 0 983.9 NA 0.0000 9999 8600 0 0 0
2019/03/26 17:54:00 BASE 13.91 108 20.37 124 2.0 72 -2.6 99 0 983.9 NA 0.0000 9999 7020 0 0 0
2019/03/26 17:55:00 BASE 14.35 85 20.37 124 1.9 71 -2.8 98 0 984.0 NA 0.0000 9999 9120 0 0 0
2019/03/26 17:56:00 BASE 11.07 76 20.37 124 1.8 72 -2.8 96 0 984.1 NA 0.0000 9999 8860 0 0 0
2019/03/26 17:57:00 BASE 8.59 66 20.37 124 1.7 73 -2.7 94 0 984.1 NA 0.0000 9999 9090 0 0 0
2019/03/26 17:58:00 BASE 7.93 61 20.37 124 1.5 74 -2.6 91 0 984.1 NA 0.0000 9999 8330 0 0 0
2019/03/26 17:59:00 BASE 8.77 72 20.37 124 1.5 75 -2.4 88 0 984.0 NA 0.0000 9999 7780 0 0 0
2019/03/26 18:00:00 BASE 11.29 76 20.37 124 1.4 76 -2.3 82 0 983.9 NA 0.0000 9999 6960 0 0 0
2019/03/26 18:01:00 BASE 13.39 69 19.55 92 1.4 77 -2.2 72 0 984.0 NA 0.0000 9999 7870 0 0 0
2019/03/26 18:02:00 BASE 12.87 71 19.55 92 1.4 77 -2.2 61 0 983.9 NA 0.0000 9999 6630 0 0 0
2019/03/26 18:03:00 BASE 10.18 76 19.55 92 1.3 77 -2.2 52 0 983.9 NA 0.0000 9999 6690 0 0 0
2019/03/26 18:04:00 BASE 9.81 78 16.82 74 1.3 78 -2.2 48 0 983.8 NA 0.0000 9999 6790 0 0 0
2019/03/26 18:05:00 BASE 11.29 76 16.31 70 1.3 78 -2.2 47 0 983.7 NA 0.0000 9999 6860 0 0 0
2019/03/26 18:06:00 BASE 11.92 79 16.31 70 1.3 77 -2.2 49 0 983.6 NA 0.0000 9999 6790 0 0 0
2019/03/26 18:07:00 BASE 11.83 94 16.31 70 1.3 77 -2.3 53 0 983.5 NA 0.0000 9999 6990 0 0 0
2019/03/26 18:08:00 BASE 11.22 113 16.31 70 1.3 76 -2.4 58 0 983.5 NA 0.0000 9999 6400 0 0 0
2019/03/26 18:09:00 BASE 9.98 124 16.31 70 1.4 76 -2.5 67 0 983.4 NA 0.0000 9999 7150 0 0 0
2019/03/26 18:10:00 BASE 8.43 124 16.31 70 1.3 75 -2.5 76 0 983.3 NA 0.0000 9999 6400 0 0 0
2019/03/26 18:11:00 BASE 8.12 109 15.12 85 1.3 76 -2.5 83 0 983.3 NA 0.0000 9999 7090 0 0 0
2019/03/26 18:12:00 BASE 8.81 98 15.12 85 1.2 77 -2.4 85 0 983.3 NA 0.0000 9999 6560 0 0 0
2019/03/26 18:13:00 BASE 10.01 95 15.12 85 1.2 78 -2.3 82 0 983.2 NA 0.0000 9999 6330 0 0 0
2019/03/26 18:14:00 BASE 10.08 96 15.12 85 1.1 79 -2.1 78 0 983.2 NA 0.0000 9999 6990 0 0 0
2019/03/26 18:15:00 BASE 10.47 96 15.12 85 1.0 81 -1.9 75 0 983.1 NA 0.0000 9999 6990 0 0 0
2019/03/26 18:16:00 BASE 11.12 87 14.61 104 0.9 82 -1.7 72 0 983.1 NA 0.0000 9999 7050 0 0 0
2019/03/26 18:17:00 BASE 11.60 82 14.40 85 0.9 84 -1.5 69 0 983.0 NA 0.0000 9999 7120 0 0 0
2019/03/26 18:18:00 BASE 12.59 91 15.07 99 0.9 85 -1.4 68 0 982.8 NA 0.0000 9999 7150 0 0 0
2019/03/26 18:19:00 BASE 12.84 97 15.07 99 1.0 85 -1.3 67 0 982.7 NA 0.0000 9999 7640 0 0 0
2019/03/26 18:20:00 BASE 13.19 100 18.21 93 1.0 85 -1.3 68 0 982.5 NA 0.0000 9999 7450 0 0 0
2019/03/26 18:21:00 BASE 14.52 112 18.73 120 1.1 84 -1.4 71 0 982.4 NA 0.0000 9999 7480 0 0 0
2019/03/26 18:22:00 BASE 15.57 121 19.34 128 1.1 83 -1.5 74 0 982.3 NA 0.0000 9999 7350 0 0 0
2019/03/26 18:23:00 BASE 14.06 123 19.34 128 1.1 83 -1.6 74 0 982.5 NA 0.0000 9999 7280 0 0 0
2019/03/26 18:24:00 BASE 10.80 118 19.34 128 1.0 83 -1.6 69 0 982.6 NA 0.0000 9999 8270 0 0 0
2019/03/26 18:25:00 BASE 9.65 103 19.34 128 0.9 84 -1.5 62 0 982.6 NA 0.0000 9999 8040 0 0 0
2019/03/26 18:26:00 BASE 8.17 105 19.34 128 0.9 85 -1.3 55 0 982.6 NA 0.0000 9999 7870 0 0 0
2019/03/26 18:27:00 BASE 5.43 119 19.34 128 0.8 86 -1.2 50 0 982.6 NA 0.0000 9999 6690 0 0 0
2019/03/26 18:28:00 BASE 4.15 104 19.34 128 0.8 87 -1.1 48 0 982.5 NA 0.0000 9999 8040 0 0 0
2019/03/26 18:29:00 BASE 4.95 90 19.34 128 0.8 88 -1.0 47 0 982.5 NA 0.0000 9999 8040 0 0 0
2019/03/26 18:30:00 BASE 7.04 90 19.34 128 0.8 88 -1.0 46 0 982.3 NA 0.0000 9999 7910 0 0 0
2019/03/26 18:31:00 BASE 9.71 70 19.34 128 0.9 88 -0.9 47 0 982.1 NA 0.0000 9999 7940 0 0 0
2019/03/26 18:32:00 BASE 9.73 43 16.26 125 1.0 87 -1.0 46 0 982.1 NA 0.0000 9999 7810 0 0 0
2019/03/26 18:33:00 BASE 7.54 37 14.04 52 1.1 85 -1.1 44 0 982.1 NA 0.0000 9999 7810 0 0 0
2019/03/26 18:34:00 BASE 8.51 41 14.35 47 1.2 84 -1.3 43 0 982.1 NA 0.0000 9999 7680 0 0 0
2019/03/26 18:35:00 BASE 10.40 41 14.35 47 1.2 82 -1.5 41 0 982.2 NA 0.0000 9999 7550 0 0 0
2019/03/26 18:36:00 BASE 10.69 44 16.36 62 1.3 80 -1.8 40 0 982.1 NA 0.0000 9999 7220 0 0 0
2019/03/26 18:37:00 BASE 12.31 44 16.98 45 1.4 78 -2.0 39 0 982.0 NA 0.0000 9999 8170 0 0 0
2019/03/26 18:38:00 BASE 12.97 50 16.98 45 1.4 77 -2.2 40 0 981.9 NA 0.0000 9999 6630 0 0 0
2019/03/26 18:39:00 BASE 10.28 61 16.98 45 1.5 75 -2.5 43 0 981.8 NA 0.0000 9999 7550 0 0 0
2019/03/26 18:40:00 BASE 8.43 67 16.98 45 1.6 73 -2.8 46 0 981.7 NA 0.0000 9999 7550 0 0 0
2019/03/26 18:41:00 BASE 9.57 60 16.98 45 1.6 71 -3.0 46 0 981.6 NA 0.0000 9999 7450 0 0 0
2019/03/26 18:42:00 BASE 9.52 61 16.98 45 1.6 70 -3.2 46 0 981.6 NA 0.0000 9999 7380 0 0 0
2019/03/26 18:43:00 BASE 7.43 73 16.98 45 1.6 70 -3.3 45 0 981.6 NA 0.0000 9999 7280 0 0 0
2019/03/26 18:44:00 BASE 6.00 86 16.98 45 1.6 69 -3.4 44 0 981.6 NA 0.0000 9999 7250 0 0 0
2019/03/26 18:45:00 BASE 3.26 100 16.98 45 1.6 69 -3.5 45 0 981.6 NA 0.0000 9999 7190 0 0 0
2019/03/26 18:46:00 BASE 1.57 102 16.98 45 1.7 68 -3.7 46 0 981.5 NA 0.0000 9999 6990 0 0 0
2019/03/26 18:47:00 BASE 3.15 120 16.10 49 1.7 67 -3.8 47 0 981.5 NA 0.0000 9999 6960 0 0 0
2019/03/26 18:48:00 BASE 5.53 113 14.51 45 1.7 67 -3.8 47 0 981.5 NA 0.0000 9999 6960 0 0 0
2019/03/26 18:49:00 BASE 8.03 74 14.51 45 1.6 68 -3.7 47 0 981.6 NA 0.0000 9999 6790 0 0 0
2019/03/26 18:50:00 BASE 9.23 77 14.51 45 1.6 68 -3.6 47 0 981.6 NA 0.0000 9999 6960 0 0 0
2019/03/26 18:51:00 BASE 9.39 91 15.38 71 1.6 69 -3.5 48 0 981.6 NA 0.0000 9999 7050 0 0 0
2019/03/26 18:52:00 BASE 12.50 86 17.85 94 1.5 71 -3.3 49 0 981.6 NA 0.0000 9999 7120 0 0 0
2019/03/26 18:53:00 BASE 13.06 80 17.85 94 1.5 71 -3.2 48 0 981.7 NA 0.0000 9999 7090 0 0 0
2019/03/26 18:54:00 BASE 9.60 87 17.85 94 1.6 71 -3.1 45 0 981.8 NA 0.0000 9999 7050 0 0 0
2019/03/26 18:55:00 BASE 7.11 66 17.85 94 1.6 71 -3.1 43 0 981.7 NA 0.0000 9999 7050 0 0 0
2019/03/26 18:56:00 BASE 7.61 41 17.85 94 1.6 71 -3.0 42 0 981.6 NA 0.0000 9999 7050 0 0 0
2019/03/26 18:57:00 BASE 13.31 38 22.22 32 1.7 71 -3.0 43 0 981.5 NA 0.0000 9999 6920 0 0 0
2019/03/26 18:58:00 BASE 17.59 31 22.48 32 1.7 71 -3.0 45 0 981.3 NA 0.0000 SQ 9999 6960 0 0 0
2019/03/26 18:59:00 BASE 18.20 29 24.85 31 1.7 71 -2.9 49 0 981.2 NA 0.0000 SQ 9999 6890 0 0 0
2019/03/26 19:00:00 BASE 20.23 29 26.85 28 1.8 71 -2.9 51 0 980.9 NA 0.0000 9999 6890 0 0 0
2019/03/26 19:01:00 BASE 23.04 30 27.21 28 1.8 71 -2.9 49 0 980.8 NA 0.0000 9999 6920 0 0 0
2019/03/26 19:02:00 BASE 23.36 30 27.21 28 1.9 71 -2.8 47 0 980.7 NA 0.0000 9999 6860 0 0 0
2019/03/26 19:03:00 BASE 22.52 30 27.21 28 1.9 71 -2.8 44 0 980.7 NA 0.0000 9999 6820 0 0 0
2019/03/26 19:04:00 BASE 23.06 34 31.33 30 1.9 71 -2.8 42 0 980.7 NA 0.0000 9999 6730 0 0 0
2019/03/26 19:05:00 BASE 23.11 35 31.64 43 1.9 71 -2.8 42 0 980.6 NA 0.0000 9999 6630 0 0 0
2019/03/26 19:06:00 BASE 21.74 35 31.64 43 1.9 71 -2.7 44 0 980.7 NA 0.0000 9999 6230 0 0 0
2019/03/26 19:07:00 BASE 22.59 35 31.64 43 1.9 72 -2.7 47 0 980.6 NA 0.0000 9999 6430 0 0 0
2019/03/26 19:08:00 BASE 23.40 32 31.64 43 1.9 72 -2.7 50 0 980.6 NA 0.0000 9999 5940 0 0 0
2019/03/26 19:09:00 BASE 22.72 32 31.64 43 1.9 72 -2.6 55 0 980.6 NA 0.0000 9999 5840 0 0 0
2019/03/26 19:10:00 BASE 22.05 36 31.64 43 1.9 72 -2.6 58 0 980.7 NA 0.0000 9999 5840 0 0 0
2019/03/26 19:11:00 BASE 19.55 39 31.64 43 1.9 72 -2.6 58 0 980.8 NA 0.0000 9999 6660 0 0 0
2019/03/26 19:12:00 BASE 18.82 40 31.64 43 1.9 72 -2.5 56 0 980.7 NA 0.0000 9999 6200 0 0 0
2019/03/26 19:13:00 BASE 19.07 41 31.64 43 1.9 73 -2.5 54 0 980.7 NA 0.0000 9999 6400 0 0 0
2019/03/26 19:14:00 BASE 18.89 39 31.64 43 1.9 73 -2.4 50 0 980.7 NA 0.0000 9999 6300 0 0 0
2019/03/26 19:15:00 BASE 18.95 36 30.04 38 1.9 73 -2.4 47 0 980.7 NA 0.0000 9999 6200 0 0 0
2019/03/26 19:16:00 BASE 19.24 36 30.04 38 1.9 73 -2.4 43 0 980.7 NA 0.0000 9999 6230 0 0 0
2019/03/26 19:17:00 BASE 18.82 36 27.37 24 1.9 73 -2.4 40 0 980.7 NA 0.0000 UP 9999 0 0 0 3050
2019/03/26 19:18:00 BASE 17.10 37 25.46 36 1.9 73 -2.3 37 0 980.7 NA 0.0000 UP 9999 0 0 0 2690
2019/03/26 19:19:00 BASE 16.57 34 24.80 36 1.9 73 -2.3 39 0 980.6 NA 0.0000 UP 9999 0 0 0 2100
2019/03/26 19:20:00 BASE 15.95 36 24.80 36 1.9 73 -2.3 40 0 980.7 NA 0.0000 UP 8000 0 0 0 1840
2019/03/26 19:21:00 BASE 15.59 42 24.80 36 1.9 74 -2.3 41 0 980.7 NA 0.0000 UP 6000 0 0 0 1280
2019/03/26 19:22:00 BASE 17.54 43 24.80 36 1.9 74 -2.2 40 0 980.6 NA 0.0000 UP 5000 0 0 0 1440
2019/03/26 19:23:00 BASE 18.62 41 24.80 36 1.9 74 -2.2 38 0 980.7 NA 0.0000 UP 4300 6230 0 0 0
2019/03/26 19:24:00 BASE 18.21 38 24.38 43 1.9 75 -2.1 37 0 980.6 NA 0.0000 UP 5000 6200 0 0 0
2019/03/26 19:25:00 BASE 20.28 39 25.77 43 1.9 75 -2.0 36 0 980.4 NA 0.0000 UP 6000 6170 0 0 0
2019/03/26 19:26:00 BASE 22.23 43 32.15 47 1.8 76 -2.0 36 0 980.4 NA 0.0000 UP 4300 0 0 0 820
2019/03/26 19:27:00 BASE 22.48 46 32.15 47 1.8 77 -1.9 36 0 980.2 NA 0.0000 UP 4200 0 0 0 520
2019/03/26 19:28:00 BASE 22.01 45 32.15 47 1.8 77 -1.8 36 0 980.2 NA 0.0000 UP 6000 0 0 0 790
2019/03/26 19:29:00 BASE 21.47 47 32.15 47 1.8 77 -1.8 35 0 980.2 NA 0.0000 UP 8000 0 0 0 0
2019/03/26 19:30:00 BASE 22.21 49 32.15 47 1.8 77 -1.8 35 0 980.1 NA 0.0000 UP 8000 0 0 0 3080
2019/03/26 19:31:00 BASE 22.47 49 32.15 47 1.8 77 -1.8 34 0 980.1 NA 0.0000 UP 8000 0 0 0 2720
2019/03/26 19:32:00 BASE 21.78 49 32.15 47 1.8 77 -1.8 33 0 980.1 NA 0.0000 UP 5000 0 0 0 2400
2019/03/26 19:33:00 BASE 22.58 50 32.15 47 1.8 76 -1.9 31 0 980.1 NA 0.0000 -SN 3400 5940 0 0 0
2019/03/26 19:34:00 BASE 24.00 49 32.15 47 1.8 76 -1.9 27 0 980.0 NA 0.0000 -SN 3900 5870 0 0 0
2019/03/26 19:35:00 BASE 24.50 48 32.15 47 1.8 76 -2.0 23 0 980.0 NA 0.0000 -SN 4600 5870 0 0 0
2019/03/26 19:36:00 BASE 23.53 51 29.58 41 1.8 76 -2.0 21 0 980.1 NA 0.0000 -SN 5000 5740 0 0 0
2019/03/26 19:37:00 BASE 22.27 50 29.58 41 1.7 76 -2.0 20 0 980.1 NA 0.0000 -SN 5000 0 0 0 5480
2019/03/26 19:38:00 BASE 22.26 45 29.58 41 1.7 77 -2.0 21 0 980.1 NA 0.0000 -SN 4700 0 0 0 4720
2019/03/26 19:39:00 BASE 22.69 48 29.58 41 1.6 77 -1.9 21 0 980.0 NA 0.0000 -SN 6000 0 0 0 4690
2019/03/26 19:40:00 BASE 23.50 49 29.58 41 1.6 78 -1.8 18 0 980.0 NA 0.0000 -SN 9000 0 0 0 4760
2019/03/26 19:41:00 BASE 23.57 51 29.58 41 1.6 78 -1.8 16 0 980.0 NA 0.0000 -SN 9000 0 0 0 3350
2019/03/26 19:42:00 BASE 22.73 54 29.58 41 1.6 79 -1.7 15 0 980.0 NA 0.0000 -SN 9999 0 0 0 2590
2019/03/26 19:43:00 BASE 22.25 55 29.58 41 1.5 79 -1.7 15 0 979.9 NA 0.0000 -SN 6000 0 0 0 2100
2019/03/26 19:44:00 BASE 22.36 55 29.58 41 1.5 80 -1.7 17 0 979.9 NA 0.0000 -SN 2900 0 0 0 2100
2019/03/26 19:45:00 BASE 22.77 55 28.24 49 1.4 80 -1.7 20 0 979.8 NA 0.0000 -SN 1900 0 0 0 3080
2019/03/26 19:46:00 BASE 24.12 56 28.24 49 1.3 81 -1.6 19 0 979.8 NA 0.0000 -SN 2000 0 0 0 3120
2019/03/26 19:47:00 BASE 26.41 56 30.66 56 1.2 82 -1.6 17 0 979.7 NA 0.0000 -SN 2500 0 0 0 2850
2019/03/26 19:48:00 BASE 26.11 57 30.66 56 1.2 82 -1.5 15 0 979.8 NA 0.0000 -SN 3700 0 0 0 3120
2019/03/26 19:49:00 BASE 25.58 58 30.66 56 1.1 83 -1.4 14 0 979.7 NA 0.0000 -SN 5000 0 0 0 2850
2019/03/26 19:50:00 BASE 25.93 58 30.66 56 1.1 84 -1.3 13 0 979.7 NA 0.0000 -SN 4600 0 0 0 2490
2019/03/26 19:51:00 BASE 25.93 59 30.66 56 1.1 84 -1.3 13 0 979.7 NA 0.0000 -SN 3200 0 0 0 2560
2019/03/26 19:52:00 BASE 26.71 60 30.66 56 1.1 85 -1.2 14 0 979.7 NA 0.0000 -SN 1500 0 0 0 2260
2019/03/26 19:53:00 BASE 27.35 61 30.76 58 1.1 85 -1.1 14 0 979.5 NA 0.0000 -SN 1100 0 0 0 2000
2019/03/26 19:54:00 BASE 28.60 61 33.23 62 1.1 85 -1.1 15 0 979.4 NA 0.0000 -SN BR 1600 0 0 0 2200
2019/03/26 19:55:00 BASE 28.83 61 33.23 62 1.1 85 -1.1 15 0 979.4 NA 0.0000 -SN BR 2200 0 0 0 2460
2019/03/26 19:56:00 BASE 28.40 62 33.23 62 1.1 86 -1.0 16 0 979.3 NA 0.0000 -SN BR 1400 0 0 0 2330
2019/03/26 19:57:00 BASE 28.28 63 33.23 62 1.1 86 -1.0 16 0 979.4 NA 0.0000 -SN BR 1600 0 0 0 2260
2019/03/26 19:58:00 BASE 28.05 63 33.23 62 1.1 86 -1.0 15 0 979.4 NA 0.0000 -SN BR 1200 0 0 0 2690
2019/03/26 19:59:00 BASE 27.37 65 33.23 62 1.1 86 -1.0 14 0 979.4 NA 0.0000 -SN BR 1400 0 0 0 2720
2019/03/26 20:00:00 BASE 25.87 64 33.23 62 1.0 86 -1.0 13 0 979.4 NA 0.0000 -SN BR 1300 0 0 0 2430
2019/03/26 20:01:00 BASE 26.08 64 33.23 62 1.0 87 -1.0 14 0 979.3 NA 0.0000 -SN BR 0900 0 0 0 2360
2019/03/26 20:02:00 BASE 28.50 65 33.23 62 1.0 87 -0.9 15 0 979.2 NA 0.0000 -SN BR 1300 0 0 0 2660
2019/03/26 20:03:00 BASE 28.81 65 33.23 62 1.0 87 -0.9 15 0 979.2 NA 0.0000 -SN BR 1900 0 0 0 2660
2019/03/26 20:04:00 BASE 27.68 65 33.13 65 1.0 87 -0.9 16 0 979.2 NA 0.0000 -SN BR 2000 0 0 0 2230
2019/03/26 20:05:00 BASE 27.69 65 33.13 65 1.0 88 -0.8 15 0 979.2 NA 0.0000 -SN BR 2300 0 0 0 2070
2019/03/26 20:06:00 BASE 28.24 65 33.13 65 1.0 88 -0.8 13 0 979.2 NA 0.0000 -SN BR 2100 0 0 0 1970
2019/03/26 20:07:00 BASE 28.51 66 33.13 65 0.9 88 -0.8 12 0 979.1 NA 0.0000 -SN BR 1800 0 0 0 1740
2019/03/26 20:08:00 BASE 28.45 68 33.13 65 0.9 88 -0.8 11 0 979.0 NA 0.0000 -SN BR 1500 0 0 0 1940
2019/03/26 20:09:00 BASE 29.36 67 33.13 65 0.9 88 -0.8 12 0 978.9 NA 0.0000 -SN BR 1300 0 0 0 2400
2019/03/26 20:10:00 BASE 30.48 67 33.34 65 0.9 88 -0.9 13 0 978.8 NA 0.0000 -SN BR 1300 0 0 0 2100
2019/03/26 20:11:00 BASE 29.45 68 33.34 65 0.9 88 -0.8 14 0 978.9 NA 0.0000 -SN BR 1800 0 0 0 1840
2019/03/26 20:12:00 BASE 27.76 68 33.34 65 0.9 88 -0.8 14 0 979.0 NA 0.0000 -SN BR 1900 0 0 0 1710
2019/03/26 20:13:00 BASE 27.50 69 33.34 65 0.9 89 -0.8 14 0 979.0 NA 0.0000 -SN BR 1700 0 0 0 1540
2019/03/26 20:14:00 BASE 27.74 69 35.70 65 0.9 89 -0.7 14 0 978.9 NA 0.0000 -SN BR 1500 0 0 0 1540
2019/03/26 20:15:00 BASE 26.45 70 35.70 65 0.9 89 -0.7 14 0 979.0 NA 0.0000 -SN BR 1100 0 0 0 1540
2019/03/26 20:16:00 BASE 23.87 74 35.70 65 0.9 89 -0.7 14 0 979.1 NA 0.0000 -SN BR 1000 0 0 0 1740
2019/03/26 20:17:00 BASE 23.25 75 35.70 65 0.9 89 -0.7 15 0 979.0 NA 0.0000 -SN BR 1100 0 0 0 1740
2019/03/26 20:18:00 BASE 25.03 72 35.70 65 0.8 90 -0.7 16 0 978.9 NA 0.0000 -SN BR 1300 0 0 0 1710
2019/03/26 20:19:00 BASE 27.48 70 35.70 65 0.8 90 -0.6 16 0 978.8 NA 0.0000 -SN BR 1600 0 0 0 1740
2019/03/26 20:20:00 BASE 27.39 69 35.70 65 0.7 91 -0.6 13 0 978.8 NA 0.0000 -SN BR 1600 0 0 0 1610
2019/03/26 20:21:00 BASE 25.44 68 35.70 65 0.7 91 -0.6 12 0 978.9 NA 0.0000 -SN BR 1400 0 0 0 1410
2019/03/26 20:22:00 BASE 26.07 67 35.70 65 0.7 91 -0.6 11 0 978.7 NA 0.0000 -SN BR 1200 0 0 0 1380
2019/03/26 20:23:00 BASE 28.56 67 35.70 65 0.6 92 -0.5 11 0 978.6 NA 0.0000 -SN BR 1000 0 0 0 1440
2019/03/26 20:24:00 BASE 30.67 67 34.47 66 0.6 92 -0.5 11 0 978.4 NA 0.0000 -SN BR 1100 0 0 0 1480
2019/03/26 20:25:00 BASE 31.09 64 34.47 66 0.6 93 -0.4 11 0 978.2 NA 0.0000 -SN BR 1200 0 0 0 1410
2019/03/26 20:26:00 BASE 31.28 63 35.81 63 0.6 93 -0.4 11 0 978.1 NA 0.0000 -SN BR 1200 0 0 0 1250
2019/03/26 20:27:00 BASE 32.53 60 36.42 61 0.6 94 -0.3 11 0 978.0 NA 0.0000 -SN BR 0900 0 0 0 1150
2019/03/26 20:28:00 BASE 33.35 59 38.99 60 0.6 94 -0.3 11 0 977.9 NA 0.0000 -SN BR 0750 0 0 0 1050
2019/03/26 20:29:00 BASE 33.43 59 38.99 60 0.6 95 -0.2 12 0 977.7 NA 0.0000 SN BR 0600 0 0 0 1080
2019/03/26 20:30:00 BASE 32.50 57 38.99 60 0.5 95 -0.2 13 0 977.6 NA 0.0000 +SN BR 0500 0 0 0 1080
2019/03/26 20:31:00 BASE 34.59 53 40.80 53 0.5 96 -0.1 13 0 977.3 NA 0.0000 SN FG 0500 0 0 0 1050
2019/03/26 20:32:00 BASE 36.85 52 40.80 53 0.5 96 0.0 14 0 977.3 NA 0.0000 SN FG 0600 0 0 0 1080
2019/03/26 20:33:00 BASE 36.38 52 43.01 50 0.6 97 0.2 14 0 977.1 NA 0.0000 SN FG 0400 0 0 0 1310
2019/03/26 20:34:00 BASE 34.03 54 43.01 50 0.6 97 0.2 14 0 977.2 NA 0.0000 +SN FG 0450 0 0 0 1350
2019/03/26 20:35:00 BASE 32.71 57 43.01 50 0.6 98 0.3 16 0 977.2 NA 0.0000 +SN FG 0750 0 0 0 1540
2019/03/26 20:36:00 BASE 35.05 52 43.01 50 0.6 98 0.4 19 0 977.0 NA 0.0000 +SN FG 0750 0 0 0 1510
2019/03/26 20:37:00 BASE 36.23 47 43.01 50 0.6 99 0.4 20 0 976.8 NA 0.0000 +SN FG 0750 0 0 0 1540
2019/03/26 20:38:00 BASE 36.05 48 43.01 50 0.6 99 0.4 22 0 976.8 NA 0.0000 +SN FG 0800 0 0 0 1570
2019/03/26 20:39:00 BASE 37.06 49 43.01 50 0.6 99 0.5 24 0 976.6 NA 0.0000 +SN FG 0750 0 0 0 1380
2019/03/26 20:40:00 BASE 37.81 49 44.60 53 0.6 100 0.5 27 0 976.5 NA 0.0000 +SN FG 0700 0 0 0 1050
2019/03/26 20:41:00 BASE 38.07 49 44.60 53 0.6 100 0.6 29 0 976.5 NA 0.0000 +SN FG 0600 0 0 0 950
2019/03/26 20:42:00 BASE 36.29 48 44.60 53 0.6 100 0.6 27 0 976.7 NA 0.0000 +SN FG 0550 0 0 0 920
2019/03/26 20:43:00 BASE 34.78 46 44.60 53 0.6 100 0.6 23 0 976.6 NA 0.0000 +SN FG 0600 0 0 0 980
2019/03/26 20:44:00 BASE 36.48 43 44.60 53 0.6 100 0.6 20 0 976.7 NA 0.0000 SN FG 0650 0 0 0 3510
2019/03/26 20:45:00 BASE 35.11 40 44.60 53 0.6 100 0.6 19 0 976.8 NA 0.0000 +SN FG 0650 0 0 0 3900
2019/03/26 20:46:00 BASE 34.48 42 44.60 53 0.6 100 0.6 18 0 976.8 NA 0.0000 +SN FG 0650 0 0 0 3710
2019/03/26 20:47:00 BASE 36.87 44 45.07 47 0.7 100 0.7 18 0 976.6 NA 0.0000 +SN FG 0600 0 0 0 1310
2019/03/26 20:48:00 BASE 37.81 47 46.25 51 0.7 100 0.7 19 0 976.5 NA 0.0000 +SN FG 0550 0 0 0 1250
2019/03/26 20:49:00 BASE 40.49 46 47.79 44 0.8 100 0.8 20 0 976.0 NA 0.0000 +SN FG 0600 0 0 0 3310
2019/03/26 20:50:00 BASE 41.70 45 47.79 44 0.8 100 0.8 20 0 976.0 NA 0.0000 +SN FG 0800 0 0 0 3480
2019/03/26 20:51:00 BASE 41.49 51 47.79 44 0.8 100 0.8 22 0 975.3 NA 0.0000 +SN FG 0450 0 0 0 3410
2019/03/26 20:52:00 BASE 42.93 54 47.95 52 0.8 100 0.8 23 0 975.6 NA 0.0000 +SN FG 0300 0 0 0 3250
2019/03/26 20:53:00 BASE 41.49 53 47.95 52 0.8 100 0.8 26 0 976.0 NA 0.0000 +SN FG 0400 0 0 0 3350
2019/03/26 20:54:00 BASE 39.42 52 47.95 52 0.8 100 0.8 31 0 975.8 NA 0.0000 -SN FG 0550 0 0 0 3480
2019/03/26 20:55:00 BASE 39.90 49 47.95 52 0.8 100 0.8 38 0 975.7 NA 0.0000 -SN FG 0750 0 0 0 3900
2019/03/26 20:56:00 BASE 42.10 48 47.95 52 0.8 100 0.8 46 0 975.6 NA 0.0000 -SN FG 0800 0 0 0 3940
2019/03/26 20:57:00 BASE 43.71 48 47.95 52 0.8 100 0.8 64 0 975.5 NA 0.0000 -SN FG 0800 0 0 0 3540
2019/03/26 20:58:00 BASE 43.02 48 47.95 52 0.8 100 0.8 87 0 975.4 NA 0.0000 -SN FG 1500 330 0 0 0
2019/03/26 20:59:00 BASE 44.09 49 52.94 45 0.8 100 0.8 117 0 975.2 NA 0.0000 -SN FG 2300 300 0 0 0
2019/03/26 21:00:00 BASE 44.48 47 52.94 45 0.8 100 0.8 150 0 975.2 NA 0.0000 -SN FG 1600 0 0 0 2850
2019/03/26 21:01:00 BASE 41.67 44 52.94 45 0.8 100 0.8 174 0 975.3 NA 0.0000 -SN FG 1200 0 0 0 2820
2019/03/26 21:02:00 BASE 41.08 44 52.94 45 0.8 100 0.8 177 0 975.1 NA 0.0000 SN BR 1100 0 0 0 2030
2019/03/26 21:03:00 BASE 41.17 45 54.53 37 0.8 100 0.8 181 0 975.0 NA 0.0000 SN BR 1200 0 0 0 1080
2019/03/26 21:04:00 BASE 38.31 43 54.53 37 0.8 100 0.8 184 0 975.3 NA 0.0000 -SN BR 1300 0 0 0 1210
2019/03/26 21:05:00 BASE 39.31 37 54.53 37 0.8 100 0.8 172 0 975.1 NA 0.0000 -SN BR 1400 0 0 0 980
2019/03/26 21:06:01 BASE 39.21 37 54.53 37 0.8 100 0.8 156 0 975.7 NA 0.0000 -SN BR 1300 0 0 0 1250
2019/03/26 21:07:00 BASE 30.86 37 54.53 37 0.7 100 0.7 142 0 976.1 NA 0.0000 -SN BR 1300 0 0 0 1120
2019/03/26 21:08:00 BASE 32.49 35 54.53 37 0.7 100 0.7 128 0 975.9 NA 0.0000 -SN BR 1200 0 0 0 980
2019/03/26 21:09:00 BASE 35.03 31 54.53 37 0.7 100 0.7 113 0 976.2 NA 0.0000 -SN BR 1200 0 0 0 1020
2019/03/26 21:10:00 BASE 32.96 29 54.53 37 0.7 100 0.7 96 0 976.1 NA 0.0000 -SN BR 1400 5910 0 0 0
2019/03/26 21:11:00 BASE 36.24 31 54.53 37 0.7 100 0.7 76 0 975.8 NA 0.0000 -SN BR 1500 6000 0 0 0
2019/03/26 21:12:00 BASE 35.70 32 54.53 37 0.7 100 0.7 62 0 976.1 NA 0.0000 -SN BR 1500 5480 0 0 0
2019/03/26 21:13:00 BASE 33.49 34 49.59 35 0.7 100 0.7 53 0 976.4 NA 0.0000 -SN BR 1400 5380 0 0 0
2019/03/26 21:14:00 BASE 33.30 36 49.59 35 0.7 100 0.7 44 0 976.5 NA 0.0000 -SN BR 1400 5280 0 0 0
2019/03/26 21:15:00 BASE 30.86 32 47.43 38 0.7 100 0.7 37 0 976.9 NA 0.0000 -SN BR 1500 5150 0 0 0
2019/03/26 21:16:00 BASE 31.09 30 47.43 38 0.7 100 0.7 36 0 976.4 NA 0.0000 -SN BR 1500 5020 0 0 0
2019/03/26 21:17:00 BASE 33.09 33 47.43 38 0.7 100 0.7 37 0 976.4 NA 0.0000 -SN BR 1400 5020 0 0 0
2019/03/26 21:18:00 BASE 32.21 39 46.20 24 0.7 100 0.7 32 0 976.3 NA 0.0000 -SN BR 1000 5050 0 0 0
2019/03/26 21:19:00 BASE 32.14 41 46.20 24 0.7 100 0.7 30 0 976.2 NA 0.2540 -SN BR 1400 5180 0 0 0
2019/03/26 21:20:00 BASE 33.70 35 46.20 24 0.7 100 0.7 27 0 976.1 NA 0.0000 -SN BR 1300 4950 0 0 0
2019/03/26 21:21:00 BASE 37.20 33 42.65 26 0.8 100 0.8 25 0 976.0 NA 0.0000 -SN BR 1900 4820 0 0 0
2019/03/26 21:22:00 BASE 40.57 27 47.28 22 0.8 100 0.8 24 0 975.6 NA 0.0000 -SN BR 6000 4990 0 0 0
2019/03/26 21:23:00 BASE 38.78 24 47.28 22 0.9 100 0.9 24 0 975.9 NA 0.0000 -SN BR 9000 5180 0 0 0
2019/03/26 21:24:00 BASE 36.80 30 47.28 22 1.0 100 1.0 24 0 975.8 NA 0.0000 -SN BR 9999 5120 0 0 0
2019/03/26 21:25:00 BASE 40.16 33 47.28 22 1.1 100 1.1 23 0 975.6 NA 0.0000 -SN BR 9999 5250 0 0 0
2019/03/26 21:26:00 BASE 41.83 33 47.28 22 1.1 100 1.1 23 0 976.0 NA 0.0000 -SN BR 9999 5380 5910 0 0
2019/03/26 21:27:00 BASE 38.09 34 47.28 22 1.1 100 1.1 24 0 976.3 NA 0.0000 -SN BR 9999 5380 0 0 0
2019/03/26 21:28:00 BASE 35.91 31 47.28 22 1.1 100 1.1 25 0 975.9 NA 0.0000 -SN BR 9999 4690 0 0 0
2019/03/26 21:29:00 BASE 39.25 25 47.28 22 1.1 100 1.1 29 0 975.6 NA 0.0000 -SN BR 9999 4690 0 0 0
2019/03/26 21:30:00 BASE 43.21 23 47.28 22 1.1 100 1.1 33 0 975.3 NA 0.0000 -SN BR 9999 4630 0 0 0
2019/03/26 21:31:00 BASE 43.93 24 47.28 22 1.1 100 1.1 33 0 975.7 NA 0.0000 -SN 9999 5090 0 0 0
2019/03/26 21:32:00 BASE 40.92 24 46.51 34 1.1 100 1.1 31 0 975.9 NA 0.0000 -SN 9999 5770 6400 0 0
2019/03/26 21:33:00 BASE 39.14 24 46.51 34 1.2 100 1.2 27 0 975.9 NA 0.0000 -SN 9999 6330 0 0 0
2019/03/26 21:34:00 BASE 40.26 25 46.51 34 1.2 100 1.2 23 0 975.9 NA 0.0000 -SN 9999 6370 0 0 0
2019/03/26 21:35:00 BASE 40.64 25 46.30 26 1.3 100 1.3 21 0 976.0 NA 0.0000 -SN 9999 6530 6920 0 0
2019/03/26 21:36:00 BASE 39.83 25 46.30 26 1.4 100 1.4 20 0 976.3 NA 0.0000 -SN 9000 6370 7320 0 0
2019/03/26 21:37:00 BASE 38.58 25 46.30 26 1.5 100 1.5 21 0 976.2 NA 0.0000 -SN 9999 5870 7550 0 0
2019/03/26 21:38:00 BASE 37.26 29 46.30 26 1.5 100 1.5 19 0 976.4 NA 0.0000 -SN 9999 5910 0 0 0
2019/03/26 21:39:00 BASE 37.43 33 46.30 26 1.6 99 1.5 18 0 976.3 NA 0.0000 -SN 9999 5910 0 0 0
2019/03/26 21:40:00 BASE 39.24 32 46.25 25 1.6 99 1.5 20 0 976.2 NA 0.0000 -SN 9999 5740 0 0 0
2019/03/26 21:41:00 BASE 38.50 32 46.25 25 1.7 98 1.4 19 0 976.6 NA 0.0000 -SN 9999 6000 6590 0 0
2019/03/26 21:42:00 BASE 34.33 34 46.25 25 1.7 97 1.3 19 0 976.9 NA 0.0000 -SN 9999 5510 6270 0 0
2019/03/26 21:43:00 BASE 30.94 35 46.25 25 1.7 96 1.1 17 0 977.0 NA 0.0000 -SN 9999 6270 0 0 0
2019/03/26 21:44:00 BASE 27.40 36 44.60 33 1.7 95 1.0 16 0 977.2 NA 0.0000 -SN 9999 5680 6140 0 0
2019/03/26 21:45:00 BASE 27.92 34 44.60 33 1.7 95 0.9 15 0 977.1 NA 0.0000 -SN 9999 5680 0 0 0
2019/03/26 21:46:00 BASE 31.53 30 44.60 33 1.6 95 0.9 14 0 977.0 NA 0.0000 -SN 9999 5610 6460 0 0
2019/03/26 21:47:00 BASE 31.15 27 44.60 33 1.6 95 0.9 14 0 977.0 NA 0.0000 -SN 9999 6070 0 0 0
2019/03/26 21:48:00 BASE 29.34 28 44.60 33 1.7 95 0.9 13 0 977.1 NA 0.0000 -SN 9999 6070 0 0 0
2019/03/26 21:49:00 BASE 29.58 33 42.70 28 1.7 95 1.0 12 0 977.1 NA 0.0000 -SN 9999 5840 0 0 0
2019/03/26 21:50:00 BASE 31.07 34 39.92 40 1.7 95 1.0 11 0 977.0 NA 0.0000 -SN 9999 5580 0 0 0
2019/03/26 21:51:00 BASE 32.93 32 38.79 33 1.6 96 1.0 10 0 976.8 NA 0.0000 -SN 9999 5380 0 0 0
2019/03/26 21:52:00 BASE 32.13 30 38.79 33 1.6 96 1.0 10 0 976.9 NA 0.0000 -SN 9999 5380 0 0 0
2019/03/26 21:53:00 BASE 29.05 33 38.79 33 1.5 97 1.1 9 0 977.0 NA 0.0000 -SN 9999 5220 0 0 0
2019/03/26 21:54:00 BASE 30.52 33 38.79 33 1.5 97 1.1 9 0 976.7 NA 0.0000 -SN 9999 5150 0 0 0
2019/03/26 21:55:00 BASE 32.82 31 39.41 26 1.5 97 1.1 9 0 976.7 NA 0.0000 -SN 9999 5380 0 0 0
2019/03/26 21:56:00 BASE 31.84 34 39.41 26 1.5 97 1.1 9 0 976.7 NA 0.0000 -SN 9999 5450 0 0 0
2019/03/26 21:57:00 BASE 31.09 38 39.41 26 1.5 97 1.1 9 0 976.6 NA 0.0000 -SN 9999 5480 0 0 0
2019/03/26 21:58:00 BASE 34.12 37 43.21 30 1.5 97 1.1 9 0 976.3 NA 0.0000 -SN 9999 5610 0 0 0
2019/03/26 21:59:00 BASE 36.35 37 43.21 30 1.5 97 1.2 8 0 976.3 NA 0.0000 -SN 9999 5220 0 0 0
2019/03/26 22:00:00 BASE 33.27 42 43.21 30 1.5 97 1.2 7 0 976.6 NA 0.0000 -SN 9999 5150 0 0 0
2019/03/26 22:01:01 BASE 31.03 43 43.21 30 1.5 97 1.2 7 0 976.5 NA 0.0000 -SN 9999 5220 0 0 0
2019/03/26 22:02:00 BASE 31.78 40 43.21 30 1.5 97 1.2 6 0 976.5 NA 0.0000 -SN 9999 5180 0 0 0
2019/03/26 22:03:00 BASE 31.09 36 43.21 30 1.5 97 1.1 6 0 976.6 NA 0.0000 -SN 9999 5250 0 0 0
2019/03/26 22:04:00 BASE 28.66 35 43.21 30 1.6 97 1.1 6 0 976.7 NA 0.0000 -SN 9999 5050 0 0 0
2019/03/26 22:05:00 BASE 28.66 39 43.21 30 1.6 96 1.0 5 0 976.6 NA 0.0000 9999 4890 5910 0 0
2019/03/26 22:06:00 BASE 30.71 40 43.21 30 1.6 96 1.0 4 0 976.5 NA 0.0000 9999 5050 5770 0 0
2019/03/26 22:07:00 BASE 30.84 43 43.21 30 1.6 96 1.0 4 0 976.5 NA 0.0000 9999 4760 0 0 0
2019/03/26 22:08:00 BASE 31.12 43 39.66 46 1.6 96 0.9 3 0 976.4 NA 0.0000 9999 5120 0 0 0
2019/03/26 22:09:00 BASE 31.06 39 37.86 33 1.6 95 0.9 3 0 976.5 NA 0.0000 9999 5380 0 0 0
2019/03/26 22:10:00 BASE 31.41 36 38.27 35 1.6 95 0.9 3 0 976.4 NA 0.0000 9999 5350 0 0 0
2019/03/26 22:11:00 BASE 29.26 37 38.27 35 1.6 95 0.8 3 0 976.6 NA 0.0000 9999 5450 0 0 0
2019/03/26 22:12:00 BASE 28.26 39 38.27 35 1.6 95 0.8 3 0 976.3 NA 0.0000 9999 5910 0 0 0
2019/03/26 22:13:00 BASE 33.37 37 40.64 32 1.6 94 0.8 3 0 975.9 NA 0.0000 9999 5870 0 0 0
2019/03/26 22:14:00 BASE 35.38 33 41.46 31 1.5 94 0.7 2 0 976.0 NA 0.0000 9999 5940 0 0 0
2019/03/26 22:15:00 BASE 33.17 32 41.46 31 1.5 94 0.7 2 0 976.2 NA 0.0000 -SN 9999 5870 0 0 0
2019/03/26 22:16:00 BASE 32.58 33 41.46 31 1.5 94 0.7 2 0 976.0 NA 0.0000 -SN 9999 5770 0 0 0
2019/03/26 22:17:00 BASE 35.09 33 41.46 31 1.5 94 0.7 2 0 975.7 NA 0.0000 -SN 9999 6000 0 0 0
2019/03/26 22:18:00 BASE 36.63 32 43.57 42 1.6 94 0.7 2 0 975.6 NA 0.0000 -SN 9999 5940 0 0 0
2019/03/26 22:19:00 BASE 36.97 32 44.76 35 1.6 94 0.7 2 0 975.6 NA 0.0000 -SN 9999 5810 0 0 0
2019/03/26 22:20:00 BASE 37.39 31 44.76 35 1.6 94 0.7 1 0 975.6 NA 0.0000 -SN 9999 5580 6430 0 0
2019/03/26 22:21:02 BASE 37.98 33 44.76 35 1.6 94 0.7 1 0 975.6 NA 0.0000 -SN 9999 4820 0 0 0
2019/03/26 22:22:00 BASE 38.98 37 44.76 35 1.6 94 0.7 1 0 975.5 NA 0.0000 -SN 9999 5050 0 0 0
2019/03/26 22:23:00 BASE 39.01 34 44.76 35 1.6 94 0.7 1 0 975.5 NA 0.0000 -SN 9999 4820 5350 0 0
2019/03/26 22:24:00 BASE 36.92 28 44.76 35 1.6 94 0.7 1 0 975.7 NA 0.0000 -SN 9999 4920 0 0 0
2019/03/26 22:25:00 BASE 35.75 28 44.76 35 1.6 94 0.7 1 0 975.5 NA 0.0000 -SN 9999 4590 0 0 0
2019/03/26 22:26:00 BASE 36.96 29 44.76 35 1.6 94 0.7 1 0 975.4 NA 0.0000 -SN 9999 6040 0 0 0
2019/03/26 22:27:00 BASE 39.22 31 46.30 26 1.6 94 0.8 1 0 975.2 NA 0.0000 -SN 9999 6040 0 0 0
2019/03/26 22:28:00 BASE 38.77 31 46.30 26 1.6 94 0.8 1 0 975.4 NA 0.0000 -SN 9999 5380 0 0 0
2019/03/26 22:29:00 BASE 36.69 31 46.30 26 1.6 95 0.8 1 0 975.5 NA 0.0000 -SN 9999 5090 0 0 0
2019/03/26 22:30:00 BASE 37.42 31 46.30 26 1.6 95 0.8 1 0 975.4 NA 0.0000 -SN 9999 5150 0 0 0
2019/03/26 22:31:00 BASE 38.40 30 46.30 26 1.6 95 0.9 1 0 975.5 NA 0.0000 -SN 9999 5280 0 0 0
2019/03/26 22:32:00 BASE 36.37 32 46.30 26 1.6 95 0.9 1 0 975.7 NA 0.0000 -SN 9999 4890 5450 0 0
2019/03/26 22:33:00 BASE 35.39 35 46.30 26 1.6 95 0.8 1 0 975.6 NA 0.0000 -SN 9999 4860 0 0 0
2019/03/26 22:34:00 BASE 36.36 34 46.30 26 1.6 95 0.8 1 0 975.6 NA 0.0000 -SN 9999 4890 0 0 0
2019/03/26 22:35:00 BASE 34.25 35 46.30 26 1.6 94 0.8 0 0 975.7 NA 0.0000 -SN 9999 4950 0 0 0
2019/03/26 22:36:00 BASE 34.14 37 46.30 26 1.6 94 0.8 0 0 975.5 NA 0.0000 -SN 9999 5510 0 0 0
2019/03/26 22:37:00 BASE 36.55 35 43.26 27 1.7 94 0.8 0 0 975.6 NA 0.0000 -SN 9999 4890 0 0 0
2019/03/26 22:38:00 BASE 34.18 33 43.26 27 1.7 94 0.8 0 0 975.8 NA 0.0000 -SN 9999 4790 5480 0 0
2019/03/26 22:39:00 BASE 33.60 34 43.26 27 1.8 93 0.8 0 0 975.7 NA 0.0000 -SN 9999 4950 5740 0 0
2019/03/26 22:40:00 BASE 33.61 34 42.49 29 1.8 93 0.8 0 0 975.8 NA 0.0000 -SN 9999 4590 0 0 0
2019/03/26 22:41:00 BASE 31.66 32 42.49 29 1.8 93 0.8 0 0 975.9 NA 0.0000 9999 5250 0 0 0
2019/03/26 22:42:00 BASE 31.06 29 42.49 29 1.8 93 0.8 0 0 976.0 NA 0.0000 9999 0 0 0 1020
2019/03/26 22:43:00 BASE 29.79 27 42.49 29 1.7 93 0.7 0 0 976.0 NA 0.0000 9999 0 0 0 0
2019/03/26 22:44:00 BASE 30.28 25 42.49 29 1.7 93 0.7 0 0 975.9 NA 0.0000 9999 0 0 0 0
2019/03/26 22:45:00 BASE 28.51 21 42.49 29 1.7 94 0.8 0 0 976.0 NA 0.0000 9999 0 0 0 0
2019/03/26 22:46:00 BASE 26.90 21 42.49 29 1.7 94 0.8 0 0 975.9 NA 0.0000 9999 0 0 0 0
2019/03/26 22:47:00 BASE 32.93 26 43.32 27 1.7 94 0.8 0 0 975.3 NA 0.0000 9999 0 0 0 0
2019/03/26 22:48:00 BASE 37.95 31 43.32 27 1.7 94 0.9 0 0 975.3 NA 0.0000 SQ 9999 5580 0 0 0
2019/03/26 22:49:00 BASE 35.54 33 43.32 27 1.8 94 0.9 0 0 975.7 NA 0.0000 SQ 9999 0 0 0 0
2019/03/26 22:50:00 BASE 32.20 30 43.32 27 1.8 94 0.9 0 0 975.9 NA 0.0000 9999 0 0 0 560
2019/03/26 22:51:00 BASE 30.70 29 43.32 27 1.8 94 0.9 0 0 975.9 NA 0.0000 9999 5450 0 0 0
2019/03/26 22:52:00 BASE 32.25 30 43.32 27 1.9 93 0.9 0 0 975.6 NA 0.0000 9999 5770 0 0 0
2019/03/26 22:53:00 BASE 33.79 29 43.32 27 1.9 93 0.9 0 0 975.8 NA 0.0000 9999 0 0 0 590
2019/03/26 22:54:00 BASE 31.15 28 43.32 27 1.9 93 0.8 0 0 976.0 NA 0.0000 9999 0 0 0 490
2019/03/26 22:55:00 BASE 28.48 27 43.32 27 1.9 93 0.9 0 0 976.0 NA 0.0000 9999 6230 0 0 0
2019/03/26 22:56:00 BASE 29.32 27 43.32 27 1.9 93 0.9 0 0 975.9 NA 0.0000 9999 5580 0 0 0
2019/03/26 22:57:00 BASE 31.20 27 41.88 37 2.0 92 0.9 0 0 975.9 NA 0.0000 9999 0 0 0 1020
2019/03/26 22:58:00 BASE 32.52 29 39.87 35 2.0 92 0.9 0 0 975.7 NA 0.0000 9999 5020 5510 0 0
2019/03/26 22:59:00 BASE 32.63 32 39.87 35 2.1 92 0.9 0 0 975.7 NA 0.0000 9999 5280 6230 0 0
2019/03/26 23:00:00 BASE 34.24 32 40.18 40 2.1 91 0.8 0 0 975.4 NA 0.0000 9999 5710 0 0 0
2019/03/26 23:01:00 BASE 36.11 34 40.18 40 2.1 91 0.8 0 0 975.6 NA 0.0000 9999 5510 0 0 0
2019/03/26 23:02:00 BASE 34.47 35 40.18 40 2.1 90 0.7 0 0 975.9 NA 0.0000 9999 0 0 0 0
2019/03/26 23:03:00 BASE 32.68 33 40.18 40 2.1 90 0.6 0 0 975.9 NA 0.0000 9999 5870 0 0 0
2019/03/26 23:04:00 BASE 31.24 33 40.18 40 2.1 90 0.6 0 0 976.0 NA 0.0000 9999 5090 0 0 0
2019/03/26 23:05:00 BASE 31.98 33 40.18 40 2.1 89 0.5 0 0 975.9 NA 0.0000 9999 4720 5250 0 0
2019/03/26 23:06:00 BASE 34.32 31 40.18 40 2.1 89 0.5 0 0 975.8 NA 0.0000 9999 4530 0 0 0
2019/03/26 23:07:00 BASE 34.96 31 40.18 40 2.1 89 0.5 0 0 975.9 NA 0.0000 9999 5180 0 0 0
2019/03/26 23:08:00 BASE 32.61 30 40.18 40 2.1 89 0.5 0 0 976.1 NA 0.0000 9999 5250 0 0 0
2019/03/26 23:09:00 BASE 30.11 28 40.18 40 2.1 89 0.5 0 0 976.2 NA 0.0000 9999 5180 0 0 0
2019/03/26 23:10:00 BASE 30.64 29 39.25 33 2.1 89 0.5 0 0 976.0 NA 0.0000 9999 5150 5710 0 0
2019/03/26 23:11:00 BASE 33.26 30 40.18 26 2.1 89 0.5 0 0 975.8 NA 0.0000 9999 5250 0 0 0
2019/03/26 23:12:00 BASE 33.32 31 40.18 26 2.1 89 0.5 0 0 976.0 NA 0.0000 9999 5770 0 0 0
2019/03/26 23:13:00 BASE 31.51 29 40.18 26 2.1 89 0.5 0 0 976.1 NA 0.0000 9999 4630 5450 0 0
2019/03/26 23:14:00 BASE 31.41 29 40.18 26 2.1 89 0.5 0 0 976.0 NA 0.0000 9999 4690 0 0 0
2019/03/26 23:15:00 BASE 32.54 31 40.18 26 2.1 89 0.5 0 0 975.9 NA 0.0000 9999 4720 0 0 0
2019/03/26 23:16:00 BASE 34.09 31 40.18 26 2.1 90 0.5 0 0 975.8 NA 0.0000 9999 4790 0 0 0
2019/03/26 23:17:00 BASE 33.35 30 40.18 26 2.1 90 0.6 0 0 975.9 NA 0.0000 9999 4560 5510 0 0
2019/03/26 23:18:00 BASE 32.74 29 40.18 26 2.1 90 0.6 0 0 975.9 NA 0.0000 9999 4460 0 0 0
2019/03/26 23:19:00 BASE 32.73 26 40.18 26 2.1 90 0.6 0 0 976.0 NA 0.0000 9999 4360 5120 0 0
2019/03/26 23:20:00 BASE 31.11 26 40.18 26 2.1 90 0.6 0 0 976.1 NA 0.0000 9999 4230 5020 0 0
2019/03/26 23:21:00 BASE 30.19 27 38.48 26 2.1 90 0.6 0 0 976.1 NA 0.0000 9999 5250 0 0 0
2019/03/26 23:22:00 BASE 31.60 29 38.48 26 2.2 90 0.6 0 0 975.9 NA 0.0000 9999 4490 0 0 0
2019/03/26 23:23:00 BASE 33.46 32 38.48 26 2.2 89 0.6 0 0 975.8 NA 0.0000 9999 4360 0 0 0
2019/03/26 23:24:00 BASE 32.91 30 38.48 26 2.2 89 0.6 0 0 975.9 NA 0.0000 9999 4920 0 0 0
2019/03/26 23:25:00 BASE 31.26 29 38.48 26 2.2 89 0.5 0 0 976.0 NA 0.0000 9999 4950 5450 0 0
2019/03/26 23:26:00 BASE 30.93 30 38.53 28 2.2 88 0.5 0 0 975.9 NA 0.0000 9999 4360 0 0 0
2019/03/26 23:27:00 BASE 31.66 29 38.53 28 2.2 88 0.5 0 0 975.9 NA 0.0000 9999 4330 0 0 0
2019/03/26 23:28:00 BASE 32.07 30 38.53 28 2.2 88 0.4 0 0 975.9 NA 0.0000 9999 4660 0 0 0
2019/03/26 23:29:00 BASE 31.69 30 38.53 28 2.2 88 0.4 0 0 976.0 NA 0.0000 9999 4630 0 0 0
2019/03/26 23:30:00 BASE 31.11 30 38.53 28 2.2 88 0.4 0 0 976.0 NA 0.0000 9999 5020 0 0 0
2019/03/26 23:31:00 BASE 31.59 31 38.53 28 2.2 88 0.4 0 0 975.9 NA 0.0000 9999 0 0 0 0
2019/03/26 23:32:00 BASE 31.27 29 38.53 28 2.2 88 0.4 0 0 976.0 NA 0.0000 9999 4720 0 0 0
2019/03/26 23:33:00 BASE 31.09 27 38.53 28 2.2 88 0.4 0 0 976.0 NA 0.0000 9999 4720 0 0 0
2019/03/26 23:34:00 BASE 31.11 28 38.53 28 2.2 88 0.4 0 0 976.0 NA 0.0000 9999 4920 0 0 0
2019/03/26 23:35:00 BASE 30.69 29 38.53 28 2.2 88 0.4 0 0 975.9 NA 0.0000 9999 4920 0 0 0
2019/03/26 23:36:00 BASE 30.65 29 36.83 27 2.2 88 0.4 0 0 975.9 NA 0.0000 9999 4820 0 0 0
2019/03/26 23:37:00 BASE 29.58 31 36.83 27 2.2 88 0.4 0 0 976.0 NA 0.0000 9999 4990 0 0 0
2019/03/26 23:38:00 BASE 28.68 31 36.83 27 2.1 88 0.4 0 0 976.0 NA 0.0000 9999 4950 0 0 0
2019/03/26 23:39:00 BASE 30.07 29 36.83 27 2.2 88 0.5 0 0 975.9 NA 0.0000 9999 4890 0 0 0
2019/03/26 23:40:00 BASE 30.36 29 36.83 27 2.2 88 0.5 0 0 976.0 NA 0.0000 9999 4590 0 0 0
2019/03/26 23:41:00 BASE 28.63 27 36.83 27 2.3 88 0.5 0 0 976.0 NA 0.0000 9999 4630 0 0 0
2019/03/26 23:42:00 BASE 29.85 24 36.83 27 2.3 88 0.6 0 0 975.8 NA 0.0000 9999 4590 0 0 0
2019/03/26 23:43:00 BASE 32.30 23 36.83 27 2.3 88 0.6 0 0 975.7 NA 0.0000 9999 4890 0 0 0
2019/03/26 23:44:00 BASE 33.45 24 38.79 26 2.3 88 0.5 0 0 975.7 NA 0.0000 9999 4460 5050 0 0
2019/03/26 23:45:00 BASE 32.93 26 38.79 26 2.3 88 0.5 0 0 975.8 NA 0.0000 9999 4360 0 0 0
2019/03/26 23:46:00 BASE 31.76 26 38.79 26 2.3 88 0.5 0 0 975.8 NA 0.0000 9999 4460 0 0 0
2019/03/26 23:47:00 BASE 30.84 27 38.79 26 2.2 88 0.5 0 0 975.9 NA 0.0000 9999 4360 0 0 0
2019/03/26 23:48:00 BASE 30.57 27 38.79 26 2.2 88 0.5 0 0 975.7 NA 0.0000 9999 4790 0 0 0
2019/03/26 23:49:00 BASE 30.47 26 38.79 26 2.2 88 0.5 0 0 975.8 NA 0.0000 9999 4820 0 0 0
2019/03/26 23:50:00 BASE 29.60 26 38.79 26 2.3 88 0.5 0 0 975.7 NA 0.0000 9999 4660 5350 0 0
2019/03/26 23:51:00 BASE 29.29 27 38.79 26 2.2 88 0.4 0 0 975.6 NA 0.0000 9999 4890 0 0 0
2019/03/26 23:52:00 BASE 29.58 28 38.79 26 2.2 88 0.4 0 0 975.6 NA 0.0000 9999 4890 0 0 0
2019/03/26 23:53:00 BASE 31.05 26 38.79 26 2.2 88 0.4 0 0 975.6 NA 0.0000 9999 4790 0 0 0
2019/03/26 23:54:00 BASE 31.64 26 36.63 28 2.2 88 0.4 0 0 975.6 NA 0.0000 9999 4560 0 0 0
2019/03/26 23:55:00 BASE 32.49 26 39.61 29 2.2 88 0.5 0 0 975.4 NA 0.0000 9999 4360 4760 0 0
2019/03/26 23:56:00 BASE 33.82 27 39.61 29 2.3 88 0.5 0 0 975.5 NA 0.0000 9999 4430 0 0 0
2019/03/26 23:57:00 BASE 32.78 27 39.61 29 2.3 88 0.5 0 0 975.5 NA 0.0000 9999 4660 0 0 0
2019/03/26 23:58:00 BASE 32.35 28 39.61 29 2.3 88 0.5 0 0 975.5 NA 0.0000 9999 4820 0 0 0
2019/03/26 23:59:00 BASE 31.12 28 39.61 29 2.3 88 0.5 0 0 975.7 NA 0.0000 9999 4890 0 0 0